     2              OBSERVATION DATA    GPS                 RINEX VERSION / TYPE
ASHTORIN MIT 28 - OCT - 96 10:57                            PGM / RUN BY / DATE
                                                            COMMENT
CHINA LAKE 1996 P-Code Ashtech data EXPT #2                 COMMENT
Original Marker Name: GS09                                  COMMENT
Campaign Name: China Lake Nov 1996                          COMMENT
4-Character Station Name: GS09                              COMMENT
6-Character Antenna Code: ASHP12                            COMMENT
Vertical Measurement Point: TGP                             COMMENT
Vertical Offset to Rinex Ref. Point: 0.0640                 COMMENT
Radial Measurement Point: RRP                               COMMENT
Radial Offset to Rinex Ref. Point: 0.0000                   COMMENT
Antenna Height from Field Measurement: 0.2260 m             COMMENT
Additional Antenna Identification Info.:                    COMMENT
Ashtech L1/L2 Revision B (700228DE)                         COMMENT
Original XYZ: -2455781.9300 -4602727.8900 3658823.2300      COMMENT
New XYZ position is based on association with SCEC monument COMMENT
E1F2Q3B6+0011. Position of that monument is believed to be  COMMENT
valid to within 1 m horizontally; vertical accuracy         COMMENT
should be no worse than 3-times this value.                 COMMENT
                                                            COMMENT
Revised Rinex header created by UCSD GPS archive for        COMMENT
GSAC on 31-Jul-2000 (2000:213) 22:36:08 GMT                 COMMENT
For assistance contact dagnew@ucsd.edu                      COMMENT
or anderson@python.ucsd.edu                                 COMMENT
                                                            COMMENT
BLM CA-065-94-66 GO09                                       MARKER NAME
                                                            MARKER NUMBER
JDT US DEFENSE MAPPING AGENCY                               OBSERVER / AGENCY
434 ASHTECH Z-XII3 1G001C7                                  REC # / TYPE / VERS
103 ASHTECH GEODETIC P                                      ANT # / TYPE
 -2444121.1492 -4616592.8130  3648770.5806                  APPROX POSITION XYZ
        0.1620        0.0000        0.0000                  ANTENNA: DELTA H/E/N
     1     1     0                                          WAVELENGTH FACT L1/2
     7    L1    L2    C1    P1    P2    D1    D2            # / TYPES OF OBSERV
    30                                                      INTERVAL
  1996    10     8    15    25   30.000000                  TIME OF FIRST OBS
  1996    10     8    21    29   60.000000                  TIME OF LAST OBS
                                                            END OF HEADER
 96 10  8 15 25 30.0000000  0  6 30 28 22 17  6 23                   0.000933137
     24808.27919      5588.33752  21703256.486           0.0005          0.0005
     -3096.108       -2412.552
    -28440.00419     -6203.37355  20355921.205           0.0005          0.0005
      3430.243        2672.917
    -14899.52419     -2922.89952  21470103.245           0.0005          0.0005
      1619.574        1262.006
    -12772.23619     -2588.77356  18750494.080           0.0005          0.0005
      1428.415        1113.051
      3893.62219      1844.58658  18056674.322           0.0005   18056679.1025
      -301.531        -234.959
    -22085.84519     -4779.30155  19437300.865           0.0005          0.0005
      2642.169        2058.833
 96 10  8 15 26  0.0000000  0  8 30 28 22 21 17  6 26 23             0.000924166
    117672.861 9     77949.91456  21720924.630           0.0004          0.0005
     -3094.234       -2411.091
   -131295.178 9    -86350.18157  20336351.352    20336351.5505   20336356.1805
      3427.415        2670.713
    -63270.270 9    -40614.07057  21460899.989           0.0004   21460906.2085
      1605.849        1251.311
    -93681.78419    -57869.77452  22560918.078           0.0005          0.0005
      3660.131        2852.050
    -55554.613 9    -35925.64658  18742352.303    18742352.7255   18742358.5335
      1424.460        1109.969
     13148.331 9      9056.02548  18058434.804    18058435.9115   18058440.7064
      -314.911        -245.385
    -38161.22619    -23514.77958  20073788.044           0.0005   20073796.7025
      1482.061        1154.853
   -101214.630 9    -66438.06158  19422244.949    19422244.2685   19422250.2985
      2633.697        2052.231
 96 10  8 15 26 30.0000000  0  6 30 28 22 17  6 23                   0.000527948
    210479.329 9    150266.64756  24136924.617           0.0004          0.0005
     -3094.297       -2411.140
   -234015.877 9   -166392.272 9  22715141.331    22715143.834    22715148.733
      3422.465        2666.856
   -111197.700 9    -77960.12547  23850120.409    23850119.5125   23850125.2014
      1590.237        1239.146
    -98184.268 9    -69143.55448  21132580.010    21132580.2874   21132586.0544
      1418.185        1105.079
     22824.224 9     16595.67248  20458617.357    20458616.8184   20458621.7224
      -330.292        -257.370
   -180037.625 9   -127858.56548  21805583.959    21805584.3644   21805590.4444
      2622.582        2043.570
 96 10  8 15 27  0.0000000  0  8 30 28 22 21 17  6 26 23             0.000519922
    303268.797 9    222570.12956  24154584.978    24154586.2165   24154592.7615
     -3091.038       -2408.601
   -336648.717 9   -246365.90819  22695613.412    22695613.4831   22695618.3301
      3420.316        2665.181
   -158709.809 9   -114982.55057  23841079.115    23841078.1065   23841083.9525
      1577.754        1229.419
   -313134.436 9   -228871.91056  24917498.272    24917500.5495   24917507.5115
      3657.550        2850.039
   -140666.294 9   -102246.43258  21124495.413    21124496.2105   21124501.9985
      1414.743        1102.397
     32932.452 9     24472.19958  20460540.271    20460540.3855   20460545.3205
      -343.242        -267.461
   -126119.057 9    -92053.33948  22455391.235    22455393.9535   22455398.7964
      1452.024        1131.447
   -258583.495 9   -189063.12358  21790637.044    21790637.6235   21790643.6485
      2614.412        2037.204
 96 10  8 15 27 30.0000000  0  8 30 28 22 21 17  6 26 23             0.000511792
    395950.850 9    294789.85356  24172221.368    24172222.1794   24172228.6275
     -3087.501       -2405.845
   -439217.538 9   -326289.652 9  22676096.907    22676095.288    22676100.102
      3417.962        2663.347
   -205847.840 9   -151713.48947  23832109.493    23832108.3224   23832113.9204
      1565.042        1219.513
   -422841.663 9   -314358.04356  24896615.358    24896623.9155   24896630.8175
      3656.575        2849.279
   -183050.821 9   -135273.33348  21116429.622    21116430.7654   21116436.4754
      1411.222        1099.654
     43435.902 9     32656.69248  20462539.034    20462539.1354   20462544.0804
      -356.764        -277.998
   -169471.837 9   -125834.72258  22447142.160    22447144.1985   22447149.0505
      1438.519        1120.924
   -336879.918 9   -250073.30448  21775737.198    21775738.3264   21775744.3484
      2605.562        2030.308
 96 10  8 15 28  0.0000000  0  8 30 28 22 21 17  6 26 23             0.000503513
    488536.474 9    366934.45246  24189840.305    24189841.2185   24189847.1744
     -3084.822       -2403.757
   -541703.567 9   -406148.881 9  22656593.010    22656592.838    22656597.639
      3414.249        2660.454
   -252592.543 9   -188137.93747  23823213.501    23823213.0674   23823218.7354
      1551.048        1208.609
   -532508.987 9   -399813.06346  24875751.728    24875754.9684   24875761.7974
      3654.359        2847.552
   -225324.910 9   -168214.17948  21108385.325    21108386.2854   21108391.9854
      1406.934        1096.312
     54361.082 9     41169.80648  20464617.774    20464618.1814   20464623.0824
      -371.772        -289.692
   -212405.482 9   -159289.50648  22438971.604    22438974.2514   22438979.0524
      1423.549        1109.259
   -414893.090 9   -310862.77448  21760892.127    21760892.9324   21760898.9524
      2595.147        2022.192
 96 10  8 15 28 30.0000000  0  9 30 28 22 21 17  6 26 23 10          0.000495159
    581027.667 9    439005.45446  24207440.549    24207441.6744   24207447.7274
     -3081.132       -2400.882
   -644082.352 9   -485924.547 9  22637110.666    22637110.809    22637115.573
      3411.049        2657.960
   -298919.747 9   -224237.06947  23814397.423    23814397.2844   23814403.0204
      1537.389        1197.965
   -642112.345 9   -485218.22646  24854895.642    24854898.2244   24854904.9094
      3652.620        2846.197
   -267475.113 9   -201058.48448  21100364.434    21100365.3924   21100371.0914
      1403.062        1093.295
     65735.120 9     50032.67648  20466782.184    20466782.6774   20466787.5084
      -386.466        -301.142
   -254885.418 9   -192390.73948  22430888.433    22430890.7204   22430895.3854
      1408.541        1097.564
   -492595.318 9   -371409.94348  21746105.870    21746106.7114   21746112.6994
      2585.072        2014.342
    284713.01919    204177.58456  25017916.198           0.0005   25017921.8765
     -3034.530       -2364.569
 96 10  8 15 29  0.0000000  0  9 30 28 22 21 17  6 26 23 10          0.000486740
    673416.436 9    510996.67746  24225021.804    24225022.6824   24225028.8444
     -3078.540       -2398.862
   -746353.792 9   -565616.566 9  22617648.746    22617649.221    22617653.955
      3406.737        2654.600
   -344821.275 9   -260004.49547  23805662.723    23805662.5324   23805668.2504
      1522.324        1186.226
   -751651.930 9   -570573.70546  24834051.754    24834053.6464   24834060.1444
      3649.711        2843.931
   -309499.688 9   -233804.90248  21092367.561    21092368.4314   21092374.0994
      1398.350        1089.623
     77562.575 9     59248.86248  20469032.805    20469033.4184   20469038.2284
      -402.141        -313.357
   -296911.579 9   -225138.39148  22422891.380    22422893.4644   22422898.0304
      1392.788        1085.289
   -569988.082 9   -431715.97848  21731378.701    21731379.4094   21731385.3374
      2574.090        2005.784
    375727.275 8    275097.73356  25035229.820    25035233.8045   25035241.5785
     -3033.500       -2363.766
 96 10  8 15 29 30.0000000  0  9 30 28 22 21 17  6 26 23 10          0.000478267
    765728.392 9    582928.02246  24242588.274    24242588.9634   24242595.2164
     -3076.208       -2397.045
   -848504.362 9   -645214.406 9  22598210.134    22598210.636    22598215.346
      3402.766        2651.506
   -390273.388 9   -295421.74447  23797013.406    23797013.2424   23797019.0654
      1507.313        1174.530
   -861114.034 8   -655868.81246  24813222.072    24813223.7444   24813230.2064
      3647.994        2842.593
   -351385.959 9   -266443.55348  21084396.895    21084397.7874   21084403.4524
      1393.490        1085.836
     89835.884 9     68812.47048  20471368.154    20471368.9794   20471373.8054
      -416.461        -324.515
   -338474.110 9   -257524.77148  22414982.814    22414984.4144   22414988.8824
      1377.492        1073.370
   -647054.500 9   -491767.71048  21716713.513    21716714.2374   21716720.0694
      2563.146        1997.257
    466707.436 9    345991.30546  25052543.997    25052546.6785   25052553.8484
     -3032.333       -2362.857
 96 10  8 15 30  0.0000000  0  9 30 28 22 21 17  6 26 23 10          0.000469756
    857986.078 9    654817.09146  24260143.713    24260144.8664   24260151.4124
     -3074.409       -2395.643
   -950530.815 9   -724715.528 9  22578795.142    22578795.671    22578800.376
      3398.772        2648.394
   -435274.317 9   -330487.41947  23788449.716    23788449.8594   23788455.6964
      1492.566        1163.038
   -970504.338 9   -741107.96856  24792405.724    24792407.4154   24792414.0215
      3645.185        2840.404
   -393122.197 9   -298965.29248  21076454.891    21076455.6994   21076461.3334
      1388.652        1082.066
    102540.114 9     78711.85748  20473785.707    20473786.5144   20473791.3814
      -430.588        -335.523
   -379568.946 9   -289546.70748  22407162.921    22407164.3634   22407168.8284
      1361.992        1061.292
   -723792.944 9   -551563.88048  21702110.923    21702111.5254   21702117.2494
      2552.551        1989.001
    557646.890 9    416853.17746  25069850.697    25069852.4924   25069859.1514
     -3030.670       -2361.561
 96 10  8 15 30 30.0000000  0  9 30 28 22 21 17  6 26 23 10          0.000461213
    950195.925 9    726668.87546  24277690.453    24277691.8784   24277698.4144
     -3072.897       -2394.465
  -1052428.365 9   -804116.203 9  22559404.645    22559405.226    22559409.945
      3394.408        2644.993
   -479826.737 9   -365203.59246  23779971.467    23779971.7774   23779977.6384
      1477.659        1151.423
  -1079831.717 9   -826298.09546  24771601.635    24771603.1004   24771609.8684
      3643.412        2839.022
   -434699.628 9   -331363.29448  21068543.072    21068543.8254   21068549.4124
      1383.219        1077.833
    115668.662 9     88941.88348  20476284.014    20476284.8394   20476289.7394
      -444.572        -346.420
   -420196.710 9   -321204.70448  22399431.900    22399433.1604   22399437.6594
      1346.693        1049.371
   -800205.597 9   -611106.18448  21687570.272    21687570.7804   21687576.4444
      2541.645        1980.503
    648543.132 9    487681.40446  25087148.585    25087149.6524   25087156.1124
     -3029.095       -2360.334
 96 10  8 15 31  0.0000000  0  9 30 28 22 21 17  6 26 23 10          0.000452627
   1042349.025 9    798476.44946  24295227.172    24295228.1714   24295234.6684
     -3071.205       -2393.147
  -1154201.562 9   -883419.985 9  22540037.814    22540038.435    22540043.161
      3389.744        2641.359
   -523942.461 9   -399579.49646  23771576.455    23771576.8874   23771582.6504
      1462.777        1139.826
  -1189111.651 9   -911451.26046  24750806.566    24750807.7964   24750814.7424
      3641.197        2837.296
   -476126.669 9   -363644.10048  21060659.774    21060660.5314   21060666.1334
      1378.057        1073.811
    129200.573 9     99486.21248  20478859.005    20478859.9084   20478864.8374
      -458.199        -357.038
   -460383.497 9   -352519.08148  22391784.159    22391785.8024   22391790.4104
      1331.784        1037.754
   -876301.598 9   -670401.74548  21673089.790    21673090.2324   21673095.9164
      2530.863        1972.101
    739380.670 9    558463.85846  25104434.395    25104435.5584   25104441.9234
     -3027.378       -2358.996
 96 10  8 15 31 30.0000000  0  9 30 28 22 21 17  6 26 23 10          0.000444003
   1134439.968 9    870235.58246  24312752.241    24312752.6664   24312759.0884
     -3068.744       -2391.229
  -1255838.456 9   -962617.556 9  22520696.925    22520697.569    22520702.331
      3385.356        2637.940
   -567622.042 9   -433615.54546  23763264.560    23763265.0134   23763270.7384
      1448.614        1128.790
  -1298326.185 9   -996553.45146  24730023.931    24730024.8904   24730032.0684
      3639.039        2835.615
   -517415.530 9   -395817.24248  21052802.753    21052803.5034   21052809.1324
      1373.863        1070.543
    143136.122 9    110345.06848  20481510.833    20481511.7644   20481516.7144
      -471.703        -367.561
   -500128.192 9   -383488.97648  22384220.828    22384222.7444   22384227.3484
      1317.308        1026.474
   -952079.089 9   -729449.12748  21658669.816    21658670.2144   21658675.9644
      2520.321        1963.886
    830148.761 9    629192.21046  25121707.528    25121708.0984   25121714.5634
     -3024.549       -2356.791
 96 10  8 15 32  0.0000000  0  9 30 28 22 21 17  6 26 23 10          0.000435325
   1226458.871 9    941938.58346  24330262.587    24330263.4574   24330269.8084
     -3065.995       -2389.087
  -1357331.600 9  -1041703.113 9  22501383.563    22501384.103    22501388.850
      3380.543        2634.189
   -610875.044 9   -467319.19547  23755033.906    23755034.2434   23755039.9574
      1434.558        1117.837
  -1407468.163 9  -1081599.12146  24709254.920    24709255.8234   24709263.0704
      3636.817        2833.883
   -558573.584 9   -427888.45248  21044970.624    21044971.3604   21044977.0314
      1369.645        1067.256
    157501.718 9    121539.02748  20484244.529    20484245.5014   20484250.4444
      -486.226        -378.877
   -539431.993 9   -414115.31448  22376741.434    22376743.4824   22376748.1284
      1302.557        1014.979
  -1027535.587 9   -788246.38348  21644310.735    21644311.2604   21644317.1034
      2509.816        1955.701
    920844.081 9    699863.82346  25138966.552    25138966.9714   25138973.2324
     -3022.572       -2355.251
 96 10  8 15 32 30.0000000  0  9 30 28 22 21 17  6 26 23 10          0.000426610
   1318406.475 9   1013586.01946  24347760.258    24347760.7514   24347766.9344
     -3063.424       -2387.084
  -1458656.524 9  -1120657.590 9  22482101.993    22482102.646    22482107.381
      3374.822        2629.731
   -653671.532 9   -500667.10647  23746889.826    23746890.3584   23746896.1334
      1418.924        1105.655
  -1516523.085 9  -1166576.95646  24688502.364    24688503.2804   24688510.6584
      3633.787        2831.522
   -599584.110 9   -459844.70948  21037166.685    21037167.3254   21037173.0284
      1364.787        1063.470
    172320.233 9    133085.90248  20487064.551    20487065.4364   20487070.3624
      -501.326        -390.644
   -578266.086 9   -444375.65048  22369352.438    22369353.5674   22369358.2814
      1286.664        1002.595
  -1102652.187 9   -846778.78848  21630016.498    21630016.9934   21630022.9204
      2498.350        1946.766
   1011493.996 9    770500.06446  25156216.811    25156217.1864   25156223.4964
     -3020.880       -2353.932
 96 10  8 15 33  0.0000000  0  9 30 28 22 21 17  6 26 23 10          0.000417856
   1410254.734 9   1085156.05246  24365238.496    24365239.1224   24365245.1954
     -3059.358       -2383.915
  -1559826.020 9  -1199490.952 9  22462850.214    22462850.753    22462855.486
      3370.225        2626.149
   -696008.076 9   -533656.63647  23738833.490    23738834.0354   23738839.8194
      1403.939        1093.978
  -1625491.988 9  -1251487.77246  24667765.754    24667766.9574   24667774.6424
      3631.218        2829.521
   -640469.742 9   -491703.64548  21029386.462    21029387.0744   21029392.7864
      1361.263        1060.724
    187572.585 9    144970.83448  20489967.107    20489967.9254   20489972.8364
      -515.184        -401.442
   -616629.909 9   -474269.53448  22362051.995    22362053.2014   22362057.8514
      1271.102         990.469
  -1177440.230 9   -905055.17248  21615784.723    21615785.3084   21615791.2444
      2487.812        1938.555
   1102084.193 8    841089.78246  25173456.013    25173456.0044   25173462.2924
     -3018.230       -2351.868
 96 10  8 15 33 30.0000000  0  9 30 28 22 21 17  6 26 23 10          0.000409072
   1501995.327 9   1156642.18446  24382696.047    24382696.8764   24382702.9004
     -3056.493       -2381.683
  -1660846.523 9  -1278208.221 9  22443626.452    22443627.227    22443631.939
      3364.744        2621.878
   -737883.301 9   -566286.68547  23730865.216    23730865.4354   23730871.2374
      1387.852        1081.443
  -1734383.919 9  -1336338.60646  24647044.321    24647045.4924   24647053.1924
      3628.487        2827.392
   -681234.267 9   -523468.21648  21021629.252    21021629.8444   21021635.5794
      1356.473        1056.992
    203254.676 9    157190.62548  20492951.462    20492952.1964   20492957.0424
      -530.023        -413.005
   -654499.725 9   -503778.47548  22354845.746    22354846.8674   22354851.4424
      1253.745         976.944
  -1251891.938 9   -963069.47548  21601616.996    21601617.6694   21601623.5474
      2475.950        1929.312
   1192607.299 8    911627.16046  25190681.715    25190682.0274   25190688.2964
     -3016.713       -2350.685
 96 10  8 15 34  0.0000000  0  9 30 28 22 21 17  6 26 23 10          0.000400277
   1593643.860 9   1228056.57346  24400136.514    24400137.1364   24400143.1284
     -3053.865       -2379.635
  -1761708.865 9  -1356802.245 9  22424433.077    22424433.776    22424438.475
      3358.981        2617.388
   -779276.517 9   -598541.15947  23722988.261    23722988.5814   23722994.3934
      1371.053        1068.353
  -1843203.045 9  -1421132.70546  24626337.054    24626337.8864   24626345.5924
      3625.626        2825.163
   -721854.977 9   -555120.71948  21013899.428    21013899.9874   21013905.7394
      1351.116        1052.818
    219373.851 9    169751.00548  20496018.791    20496019.5904   20496024.4414
      -544.906        -424.602
   -691847.752 9   -532880.83648  22347738.010    22347739.7764   22347744.3064
      1235.668         962.858
  -1326004.851 9  -1020819.77948  21587513.917    21587514.4884   21587520.3094
      2464.439        1920.342
   1283082.992 9    982127.64046  25207898.409    25207899.0374   25207905.2724
     -3015.683       -2349.883
 96 10  8 15 34 30.0000000  0  9 30 28 22 21 17  6 26 23 10          0.000391484
   1685200.694 9   1299399.51346  24417558.897    24417559.8154   24417565.8014
     -3050.613       -2377.101
  -1862405.235 9  -1435266.940 9  22405271.233    22405271.902    22405276.611
      3353.431        2613.063
   -820165.304 9   -630402.57047  23715207.401    23715207.7704   23715213.5074
      1354.350        1055.338
  -1951933.847 9  -1505857.97446  24605646.384    24605647.0684   24605654.7674
      3622.285        2822.560
   -762328.772 9   -586658.74548  21006197.541    21006198.1204   21006203.8604
      1346.333        1049.091
    235928.805 9    182650.95748  20499169.091    20499169.9074   20499174.7874
      -559.475        -435.954
   -728665.561 9   -561570.03548  22340732.187    22340733.5944   22340738.0704
      1218.369         949.378
  -1399775.686 9  -1078303.52848  21573475.764    21573476.3574   21573482.1144
      2452.946        1911.386
   1373516.933 9   1052595.59346  25225107.599    25225108.1264   25225114.3294
     -3014.103       -2348.652
 96 10  8 15 35  0.0000000  0  9 30 28 22 21 17  6 26 23 10          0.000382676
   1776666.639 9   1370671.63246  24434963.890    24434965.1794   24434971.3074
     -3047.538       -2374.705
  -1962930.046 9  -1513597.955 9  22386141.971    22386142.680    22386147.359
      3347.805        2608.679
   -860555.194 9   -661875.21847  23707521.867    23707521.8924   23707527.6154
      1338.102        1042.677
  -2060553.986 9  -1590497.02546  24584976.519    24584977.3004   24584985.0344
      3618.574        2819.668
   -802646.257 9   -618074.96748  20998525.386    20998525.9894   20998531.6994
      1341.131        1045.037
    252936.459 9    195903.65848  20502405.552    20502406.3694   20502411.3084
      -574.841        -447.928
   -764966.463 9   -589856.45148  22333824.015    22333825.7484   22333830.2254
      1201.427         936.177
  -1473201.072 9  -1135518.09948  21559503.319    21559503.9744   21559509.7114
      2441.772        1902.679
   1463908.907 9   1123030.83446  25242309.071    25242309.2514   25242315.4694
     -3012.555       -2347.445
 96 10  8 15 35 30.0000000  0  9 30 28 22 21 17  6 26 23 10          0.000373845
   1868055.645 9   1441883.79246  24452354.346    24452355.9204   24452362.2264
     -3045.204       -2372.886
  -2063276.302 9  -1591789.837 9  22367046.683    22367047.446    22367052.086
      3341.777        2603.982
   -900456.389 9   -692967.07447  23699928.982    23699928.9974   23699934.6614
      1321.763        1029.945
  -2169056.018 9  -1675044.04246  24564329.406    24564330.0194   24564337.7004
      3614.594        2816.567
   -842799.231 9   -649363.00448  20990884.617    20990885.2084   20990890.8744
      1335.521        1040.666
    270416.105 9    209524.14448  20505731.859    20505732.6514   20505737.6224
      -590.591        -460.201
   -800761.346 9   -617748.56648  22327012.872    22327014.1914   22327018.6674
      1184.793         923.215
  -1546289.059 9  -1192469.76148  21545595.099    21545595.7984   21545601.5214
      2430.632        1893.999
   1554261.565 9   1193435.43446  25259502.822    25259502.9044   25259509.0774
     -3011.213       -2346.400
 96 10  8 15 36  0.0000000  0  9 30 28 22 21 17  6 26 23 10          0.000364985
   1959371.360 9   1513038.84146  24469731.722    24469732.7564   24469739.1664
     -3042.398       -2370.700
  -2163441.755 9  -1669840.839 9  22347985.790    22347986.623    22347991.248
      3336.003        2599.483
   -939873.172 9   -723681.46147  23692428.250    23692428.3124   23692433.9364
      1306.169        1017.794
  -2277433.851 9  -1759494.28246  24543705.701    24543706.3994   24543713.9674
      3610.705        2813.536
   -882783.867 9   -680519.86848  20983275.811    20983276.4164   20983282.0734
      1330.175        1036.500
    288368.504 9    223513.00848  20509148.175    20509148.8934   20509153.8604
      -606.110        -472.293
   -836063.623 9   -645256.83848  22320295.074    22320296.4304   22320300.8584
      1168.757         910.720
  -1619048.110 9  -1249165.11348  21531749.531    21531750.2054   21531755.9214
      2419.874        1885.616
   1644567.604 9   1263803.75646  25276687.863    25276687.7674   25276693.7884
     -3009.247       -2344.868
 96 10  8 15 36 30.0000000  0  9 30 28 22 21 17  6 26 23 10          0.000356078
   2050603.768 9   1584128.97946  24487092.417    24487093.7004   24487100.1954
     -3040.014       -2368.842
  -2263433.652 9  -1747756.598 9  22328957.938    22328958.831    22328963.436
      3329.917        2594.741
   -978828.280 9   -754036.10347  23685015.074    23685015.3584   23685021.1024
      1290.698        1005.739
  -2385694.606 9  -1843853.29646  24523104.537    24523105.0924   24523112.5764
      3606.575        2810.318
   -922603.909 9   -711548.47648  20975698.447    20975698.9364   20975704.5764
      1324.264        1031.894
    306786.758 9    237864.87648  20512653.052    20512653.7894   20512658.7664
      -621.862        -484.568
   -870889.181 9   -672393.63348  22313668.537    22313669.4314   22313673.8334
      1152.647         898.166
  -1691474.479 9  -1305601.22948  21517967.321    21517967.9554   21517973.6474
      2408.413        1876.685
   1734811.592 9   1334123.67646  25293860.745    25293860.6574   25293866.7684
     -3007.376       -2343.410
 96 10  8 15 37  0.0000000  0  8 30 28 22 21 17  6 26 23             0.000347139
   2141777.569 9   1655173.45746  24504442.430    24504443.4864   24504450.0894
     -3038.440       -2367.616
  -2363237.133 9  -1825525.539 9  22309965.935    22309966.867    22309971.479
      3323.439        2589.693
  -1017315.084 9   -784025.84247  23677691.145    23677691.5794   23677697.3464
      1274.859         993.397
  -2493838.353 9  -1928121.13646  24502525.428    24502526.0504   24502533.4914
      3602.837        2807.405
   -962240.911 9   -742434.45648  20968155.803    20968156.2554   20968161.8964
      1318.181        1027.154
    325678.698 9    252585.84748  20516248.128    20516248.8274   20516253.8074
      -637.799        -496.986
   -905216.201 9   -699141.96348  22307136.103    22307137.2044   22307141.6784
      1135.511         884.814
  -1763557.012 9  -1361769.42348  21504250.487    21504251.1464   21504256.7794
      2396.757        1867.603
 96 10  8 15 37 30.0000000  0  8 30 28 22 21 17  6 26 23             0.000338196
   2232918.935 9   1726192.65646  24521786.445    24521787.1744   24521793.7854
     -3037.001       -2366.494
  -2462834.054 9  -1903133.525 9  22291013.455    22291014.233    22291018.851
      3316.802        2584.521
  -1055316.093 9   -813637.04447  23670460.019    23670460.2524   23670466.0404
      1259.045         981.074
  -2601862.571 9  -2012295.85046  24481969.467    24481969.7744   24481977.1364
      3599.302        2804.651
  -1001688.966 9   -773173.20348  20960649.046    20960649.5324   20960655.1604
      1312.157        1022.460
    345048.746 9    267679.37148  20519934.108    20519934.8734   20519939.8734
      -653.056        -508.875
   -939010.767 9   -725475.40148  22300704.957    22300706.3254   22300710.8204
      1117.796         871.010
  -1835263.424 9  -1417644.53348  21490605.226    21490605.8674   21490611.5194
      2384.057        1857.707
 96 10  8 15 38  0.0000000  0  8 30 28 22 21 17  6 26 23             0.000329243
   2324001.862 9   1797166.31746  24539119.099    24539119.6154   24539126.3114
     -3035.107       -2365.018
  -2562235.722 9  -1980589.364 9  22272098.050    22272098.771    22272103.362
      3309.995        2579.217
  -1092857.721 9   -842890.27947  23663315.974    23663316.3704   23663322.1704
      1243.694         969.112
  -2709783.533 9  -2096390.09246  24461433.027    24461433.2184   24461440.4684
      3595.278        2801.515
  -1040968.965 9   -803780.99748  20953174.358    20953174.8464   20953180.4334
      1306.517        1018.065
    364872.365 9    283126.32648  20523706.509    20523707.2534   20523712.2444
      -668.588        -520.978
   -972271.885 9   -751393.15048  22294376.554    22294376.9914   22294381.4854
      1099.763         856.958
  -1906592.691 9  -1473225.76348  21477031.765    21477032.3454   21477038.0224
      2371.228        1847.710
 96 10  8 15 38 30.0000000  0  8 30 28 22 21 17  6 26 23             0.000320272
   2415021.740 9   1868090.84646  24556439.459    24556440.1294   24556446.8234
     -3033.188       -2363.523
  -2661438.285 9  -2057890.062 9  22253220.399    22253221.197    22253225.727
      3303.167        2573.896
  -1129944.194 9   -871788.84147  23656258.490    23656258.9814   23656264.9034
      1228.370         957.171
  -2817581.512 9  -2180388.48846  24440919.906    24440919.9924   24440927.1164
      3591.003        2798.184
  -1080093.566 9   -834267.70248  20945729.247    20945729.7204   20945735.2944
      1301.533        1014.182
    385152.849 9    298929.27948  20527565.870    20527566.5674   20527571.5364
      -683.780        -532.816
  -1005001.005 9   -776896.36548  22288147.886    22288148.8704   22288153.4024
      1081.899         843.038
  -1977543.685 9  -1528512.24048  21463530.207    21463530.8184   21463536.5164
      2358.568        1837.845
 96 10  8 15 39  0.0000000  0  8 30 28 22 21 17  6 26 23             0.000311295
   2505975.916 9   1938964.19446  24573747.615    24573748.0934   24573754.7404
     -3030.885       -2361.729
  -2760437.976 9  -2135032.674 9  22234381.431    22234382.214    22234386.720
      3296.158        2568.435
  -1166573.552 9   -900331.21847  23649288.125    23649288.6574   23649294.6224
      1212.919         945.132
  -2925253.240 9  -2264288.52346  24420430.516    24420430.8124   24420437.8924
      3586.239        2794.472
  -1119075.954 9   -864643.59648  20938311.179    20938311.6334   20938317.2154
      1296.626        1010.358
    405887.514 9    315086.14348  20531511.555    20531512.3074   20531517.2534
      -699.304        -544.912
  -1037193.190 9   -801981.18148  22282021.680    22282022.8924   22282027.4734
      1063.666         828.831
  -2048118.298 9  -1583505.43548  21450100.328    21450100.9144   21450106.6384
      2345.829        1827.919
 96 10  8 15 39 30.0000000  0  8 30 28 22 21 17  6 26 23             0.000302309
   2596846.190 9   2009772.15846  24591039.816    24591040.2204   24591046.8714
     -3027.334       -2358.961
  -2859224.924 9  -2212009.515 9  22215583.196    22215583.681    22215588.195
      3289.453        2563.210
  -1202738.573 9   -928511.76547  23642406.269    23642406.7574   23642412.6644
      1197.828         933.372
  -3032773.030 9  -2348070.15446  24399970.454    24399970.5154   24399977.5144
      3581.561        2790.827
  -1157903.043 9   -894898.47148  20930922.524    20930923.0844   20930928.6854
      1291.579        1006.425
    427087.358 9    331605.48548  20535545.849    20535546.5594   20535551.4844
      -714.252        -556.560
  -1068839.654 9   -826640.77648  22276000.106    22276000.7784   22276005.3634
      1045.891         814.980
  -2118314.965 9  -1638204.12248  21436742.286    21436742.9574   21436748.6734
      2333.971        1818.679
 96 10  8 15 40  0.0000000  0  8 30 28 22 21 17  6 26 23             0.000293303
   2687615.809 9   2080501.67145  24608312.275    24608313.3584   24608319.7494
     -3024.218       -2356.534
  -2957806.251 9  -2288826.129 9  22196823.681    22196824.281    22196828.832
      3282.400        2557.714
  -1238435.208 9   -956327.35047  23635613.541    23635613.9794   23635619.8844
      1181.422         920.589
  -3140143.388 9  -2431735.33446  24379538.598    24379538.6024   24379545.5834
      3576.352        2786.768
  -1196565.869 9   -925025.35548  20923565.239    20923565.8184   20923571.4014
      1285.625        1001.786
    448748.916 9    348484.60048  20539667.859    20539668.6084   20539673.5424
      -730.101        -568.910
  -1099950.310 9   -850882.84548  22270080.331    22270080.6154   22270085.2044
      1028.069         801.093
  -2188163.015 9  -1692631.16248  21423450.733    21423451.3644   21423457.0414
      2322.378        1809.645
 96 10  8 15 40 30.0000000  0  8 30 28 22 21 17  6 26 23             0.000284293
   2778306.025 9   2151169.34446  24625570.327    24625571.2284   24625577.5504
     -3021.688       -2354.562
  -3056159.786 9  -2365465.244 9  22178107.749    22178108.191    22178112.800
      3274.409        2551.488
  -1273611.185 9   -983737.21347  23628919.798    23628920.2594   23628926.1284
      1163.563         906.672
  -3247360.853 9  -2515281.38346  24359135.653    24359135.8304   24359142.7714
      3571.609        2783.072
  -1235029.177 9   -954996.76948  20916246.005    20916246.5204   20916252.0954
      1278.574         996.291
    470898.461 9    365743.96448  20543882.730    20543883.5254   20543888.4694
      -746.528        -581.710
  -1130510.791 9   -874696.21748  22264263.997    22264265.1754   22264269.7424
      1009.245         786.425
  -2257646.143 9  -1746773.84648  21410228.486    21410229.1754   21410234.8454
      2309.789        1799.836
 96 10  8 15 41  0.0000000  0  8 30 28 22 21 17  6 26 23             0.000275275
   2868902.826 9   2221764.19246  24642810.187    24642811.2764   24642817.6574
     -3017.986       -2351.677
  -3154285.249 9  -2441926.640 9  22159434.830    22159435.519    22159440.183
      3267.051        2545.754
  -1308258.819 9  -1010735.37947  23622326.544    23622327.0094   23622332.8964
      1146.124         893.084
  -3354450.899 9  -2598728.15046  24338757.078    24338757.3224   24338764.2464
      3567.494        2779.865
  -1273277.533 9   -984800.68448  20908967.573    20908968.1324   20908973.7054
      1271.204         990.549
    493537.246 9    383384.55848  20548190.752    20548191.5604   20548196.5264
      -762.861        -594.437
  -1160513.784 9   -898075.17148  22258553.349    22258555.8684   22258560.4044
       990.941         772.162
  -2326759.364 9  -1800628.28848  21397076.741    21397077.3494   21397083.0024
      2297.603        1790.340
 96 10  8 15 41 30.0000000  0  8 30 28 22 21 17  6 26 23             0.000266231
   2959371.735 9   2292259.40245  24660026.173    24660026.9734   24660033.4254
     -3013.991       -2348.564
  -3252201.188 9  -2518224.771 9  22140802.117    22140802.741    22140807.443
      3260.078        2540.321
  -1342394.481 9  -1037334.62047  23615831.168    23615831.2694   23615837.1184
      1129.122         879.835
  -3461440.467 9  -2682096.61246  24318397.716    24318397.9664   24318404.8024
      3564.632        2777.635
  -1311317.772 9  -1014442.43448  20901728.741    20901729.3144   20901734.9464
      1264.373         985.226
    516654.801 9    401398.21848  20552589.866    20552590.6884   20552595.6584
      -778.858        -606.902
  -1189985.825 9   -921040.40248  22252945.057    22252947.5644   22252952.0614
       973.296         758.412
  -2395515.783 9  -1854204.70848  21383992.780    21383993.4644   21383999.0784
      2285.459        1780.877
 96 10  8 15 42  0.0000000  0  8 30 28 22 21 17  6 26 23             0.000257164
   3049734.648 8   2362672.02745  24677221.441    24677222.3514   24677229.1104
     -3010.203       -2345.613
  -3349891.796 9  -2594347.323 9  22122212.038    22122212.869    22122217.591
      3252.554        2534.458
  -1376010.692 9  -1063529.08947  23609434.231    23609434.3904   23609440.1544
      1112.046         866.529
  -3568333.485 9  -2765389.85146  24298056.458    24298056.9574   24298063.7114
      3561.467        2775.169
  -1349148.257 9  -1043920.74048  20894529.805    20894530.4354   20894536.0484
      1257.845         980.139
    540264.201 9    419795.13648  20557082.559    20557083.4304   20557088.4224
      -795.149        -619.597
  -1218920.748 9   -943587.10048  22247439.561    22247441.4224   22247445.9004
       955.698         744.700
  -2463887.324 9  -1907481.22048  21370982.270    21370982.8124   21370988.4084
      2272.558        1770.824
 96 10  8 15 42 30.0000000  0  8 30 28 22 21 17  6 26 23             0.000248075
   3139991.348 8   2433001.87945  24694397.012    24694397.4774   24694404.4364
     -3006.460       -2342.696
  -3447345.874 9  -2670285.563 9  22103667.123    22103668.007    22103672.723
      3244.764        2528.388
  -1409117.702 9  -1089326.76947  23603133.943    23603134.2984   23603140.1414
      1095.711         853.801
  -3675116.675 9  -2848597.49346  24277736.568    24277736.8264   24277743.4984
      3557.594        2772.151
  -1386785.151 9  -1073248.18848  20887367.852    20887368.4234   20887374.0014
      1251.834         975.455
    564368.140 9    438577.40948  20561669.464    20561670.2844   20561675.2854
      -811.296        -632.179
  -1247312.004 9   -965710.15748  22242037.896    22242038.7224   22242043.1544
       937.570         730.574
  -2531855.354 9  -1960443.30848  21358048.350    21358048.9144   21358054.5414
      2259.177        1760.398
 96 10  8 15 43  0.0000000  0  8 30 28 22 21 17  6 26 23             0.000238958
   3230138.502 8   2503246.36345  24711551.402    24711551.8664   24711558.8374
     -3003.156       -2340.122
  -3544562.137 9  -2746038.492 9  22085167.709    22085168.406    22085173.088
      3236.484        2521.936
  -1441741.364 9  -1114747.82947  23596925.940    23596926.2414   23596932.1174
      1079.342         841.046
  -3781764.002 9  -2931699.27746  24257442.252    24257442.4534   24257449.1984
      3552.327        2768.047
  -1424244.657 9  -1102437.41448  20880239.530    20880240.1304   20880245.7244
      1245.793         970.748
    588960.294 9    457740.11248  20566349.181    20566350.0044   20566355.0364
      -827.894        -645.112
  -1275164.620 9   -987413.49248  22236737.943    22236738.5744   22236743.0174
       919.429         716.438
  -2599426.853 9  -2013096.41148  21345189.761    21345190.4884   21345196.0864
      2245.820        1749.990
 96 10  8 15 43 30.0000000  0  8 30 28 22 21 17  6 26 23             0.000229829
   3320193.944 8   2573419.41245  24728688.272    24728688.9624   24728695.6764
     -3000.701       -2338.209
  -3641532.348 9  -2821599.695 9  22066714.873    22066715.568    22066720.252
      3228.026        2515.345
  -1473875.647 9  -1139787.55247  23590811.162    23590811.3254   23590817.1304
      1062.874         828.214
  -3888254.482 9  -3014678.85446  24237177.408    24237177.9294   24237184.7404
      3546.814        2763.751
  -1461537.820 9  -1131497.02548  20873142.925    20873143.5074   20873149.0694
      1240.302         966.469
    614033.613 9    477277.74548  20571120.457    20571121.3034   20571126.3404
      -843.737        -657.457
  -1302473.235 9  -1008692.93548  22231541.336    22231541.9044   22231546.3454
       900.917         702.013
  -2666601.921 9  -2065440.60848  21332406.641    21332407.4954   21332413.0874
      2232.409        1739.539
 96 10  8 15 44  0.0000000  0  8 30 28 22 21 17  6 26 23             0.000220696
   3410162.166 8   2643524.44645  24745808.534    24745809.4894   24745816.1174
     -2997.409       -2335.643
  -3738260.673 9  -2896972.409 9  22048308.072    22048308.741    22048313.439
      3220.160        2509.216
  -1505531.739 9  -1164454.64647  23584786.971    23584787.4064   23584793.2054
      1047.157         815.966
  -3994579.311 9  -3097529.34546  24216944.367    24216944.9274   24216951.8084
      3541.211        2759.385
  -1498678.013 9  -1160437.44248  20866075.431    20866075.9694   20866081.5254
      1235.292         962.565
    639563.997 9    497171.53248  20575978.885    20575979.6384   20575984.6634
      -858.627        -669.060
  -1329238.148 9  -1029548.71648  22226448.385    22226448.7544   22226453.1754
       883.068         688.105
  -2733393.340 9  -2117485.85748  21319696.702    21319697.5044   21319703.1184
      2219.969        1729.846
 96 10  8 15 44 30.0000000  0  8 30 28 22 21 17  6 26 23             0.000211568
   3500047.285 8   2713564.77345  24762913.809    24762914.3214   24762920.7034
     -2994.637       -2333.483
  -3834735.599 9  -2972147.673 9  22029949.487    22029950.165    22029954.866
      3211.772        2502.679
  -1536694.780 9  -1188737.55347  23578857.119    23578857.3324   23578863.0744
      1030.590         803.057
  -4100718.553 9  -3180235.22346  24196746.475    24196747.2944   24196754.1704
      3535.053        2754.587
  -1535644.239 9  -1189242.29348  20859041.010    20859041.5514   20859047.1004
      1229.195         957.814
    665555.103 9    517424.32048  20580924.962    20580925.6794   20580930.6274
      -873.740        -680.836
  -1355447.226 9  -1049971.37248  22221461.375    22221461.3574   22221465.7884
       864.511         673.645
  -2799790.712 9  -2169224.05948  21307061.819    21307062.5074   21307068.1254
      2206.910        1719.670
 96 10  8 15 45  0.0000000  0  8 30 28 22 21 17  6 26 23             0.000202436
   3589832.781 8   2783527.44445  24779999.158    24779999.9724   24780006.2884
     -2991.222       -2330.822
  -3930965.314 9  -3047131.865 9  22011637.541    22011638.249    22011642.981
      3203.420        2496.171
  -1567357.655 9  -1212630.71847  23573022.290    23573022.3574   23573028.1204
      1013.390         789.654
  -4206682.442 9  -3262804.46346  24176581.573    24176583.0404   24176589.8414
      3529.287        2750.094
  -1572422.742 9  -1217900.87048  20852042.260    20852042.8154   20852048.3714
      1222.571         952.653
    691992.370 9    538024.76948  20585955.844    20585956.5494   20585961.5044
      -888.854        -692.614
  -1381103.892 9  -1069963.58248  22216578.683    22216579.0474   22216583.4644
       845.835         659.092
  -2865811.439 9  -2220668.76948  21294498.463    21294499.2114   21294504.7994
      2194.286        1709.833
 96 10  8 15 45 30.0000000  0  8 30 28 22 21 17  6 26 23             0.000193303
   3679508.757 8   2853404.77145  24797063.715    24797064.5754   24797071.1534
     -2987.138       -2327.640
  -4026949.916 9  -3121925.059 9  21993372.248    21993372.993    21993377.740
      3195.435        2489.949
  -1597507.540 9  -1236124.14747  23567284.853    23567285.0224   23567290.8424
       996.588         776.562
  -4312486.941 9  -3345249.50746  24156447.756    24156449.0874   24156455.8714
      3524.208        2746.136
  -1609001.333 9  -1246403.66948  20845081.590    20845082.1784   20845087.7254
      1215.901         947.455
    718882.327 9    558977.96748  20591072.707    20591073.5354   20591078.5364
      -903.940        -704.369
  -1406200.867 9  -1089519.66748  22211802.709    22211803.2624   22211807.6474
       827.318         644.663
  -2931452.618 9  -2271817.72748  21282007.305    21282008.1114   21282013.6854
      2181.858        1700.149
 96 10  8 15 46  0.0000000  0  8 30 28 22 21 17  6 26 23             0.000184162
   3769061.495 8   2923186.10045  24814104.890    24814105.7614   24814112.6834
     -2983.310       -2324.657
  -4122682.455 9  -3196521.842 9  21975154.791    21975155.720    21975160.467
      3186.450        2482.948
  -1627144.025 9  -1259217.53647  23561645.001    23561645.3904   23561651.2334
       978.895         762.775
  -4418126.624 9  -3427566.12146  24136345.387    24136346.4734   24136353.2954
      3518.245        2741.490
  -1645368.388 9  -1274741.63348  20838161.251    20838161.7694   20838167.3214
      1208.348         941.570
    746242.628 9    580297.66248  20596279.215    20596280.0484   20596285.0374
      -920.418        -717.209
  -1430733.752 9  -1108636.19948  22207134.373    22207134.8344   22207139.1954
       807.928         629.554
  -2996719.666 9  -2322675.15448  21269587.416    21269588.2074   21269593.7784
      2169.040        1690.161
 96 10  8 15 46 30.0000000  0  8 30 28 22 21 17  6 26 23             0.000175093
   3858486.441 8   2992867.81945  24831122.330    24831122.5884   24831129.6574
     -2978.900       -2321.221
  -4218163.384 9  -3270922.562 9  21956985.602    21956986.311    21956991.075
      3178.188        2476.510
  -1656262.079 9  -1281906.95447  23556104.215    23556104.4654   23556110.3054
       961.675         749.357
  -4523611.691 9  -3509762.26146  24116272.102    24116273.3264   24116280.1234
      3513.316        2737.649
  -1681529.330 9  -1302918.98948  20831280.061    20831280.5804   20831286.1354
      1201.737         936.418
    774081.000 9    601989.87848  20601576.769    20601577.5504   20601582.5184
      -936.296        -729.581
  -1454698.007 9  -1127309.64248  22202573.946    22202574.6024   22202578.9524
       789.032         614.830
  -3061623.505 9  -2373249.56048  21257236.683    21257237.4094   21257242.9874
      2157.281        1680.998
 96 10  8 15 47  0.0000000  0  8 30 28 22 21 17  6 26 23             0.000165931
   3947792.101 8   3062456.61345  24848115.333    24848116.8414   24848124.0334
     -2975.558       -2318.617
  -4313383.872 9  -3345120.345 9  21938865.813    21938866.455    21938871.223
      3169.206        2469.511
  -1684859.726 9  -1304190.85647  23550662.374    23550662.5084   23550668.3864
       944.460         735.943
  -4628942.137 9  -3591837.91746  24096228.068    24096229.5644   24096236.3904
      3508.115        2733.596
  -1717492.720 9  -1330942.41548  20824436.422    20824436.9784   20824442.5104
      1195.313         931.413
    802418.131 9    624070.74848  20606969.223    20606969.9564   20606974.9244
      -953.565        -743.038
  -1478093.525 9  -1145539.92148  22198121.065    22198122.5994   22198126.9574
       770.153         600.119
  -3126174.350 9  -2423548.91048  21244953.067    21244953.7704   21244959.3764
      2145.145        1671.542
 96 10  8 15 47 30.0000000  0  8 30 28 22 21 17  6 26 23             0.000156761
   4036996.931 8   3131966.80845  24865090.937    24865091.8714   24865099.3284
     -2971.341       -2315.331
  -4408337.128 9  -3419109.890 9  21920796.687    21920797.446    21920802.236
      3161.001        2463.118
  -1712958.810 9  -1326086.26447  23545315.240    23545315.4564   23545321.3324
       928.890         723.810
  -4734113.895 9  -3673789.90746  24076214.632    24076216.0564   24076222.8184
      3503.354        2729.886
  -1753274.541 9  -1358824.35448  20817627.349    20817627.9154   20817633.4454
      1190.204         927.432
    831265.000 9    646548.80448  20612458.697    20612459.3564   20612464.3184
      -969.479        -755.438
  -1500931.556 9  -1163335.78848  22193775.433    22193776.6584   22193781.0454
       752.458         586.331
  -3190342.871 9  -2473550.34048  21232742.305    21232742.9054   21232748.5184
      2132.919        1662.015
 96 10  8 15 48  0.0000000  0  8 30 28 22 21 17  6 26 23             0.000147569
   4126096.896 8   3201395.27945  24882046.751    24882047.1484   24882054.4884
     -2968.643       -2313.228
  -4503031.341 9  -3492897.584 9  21902776.906    21902777.726    21902782.517
      3151.744        2455.904
  -1740581.863 9  -1347610.74947  23540059.037    23540059.0694   23540064.9254
       912.538         711.069
  -4839131.708 9  -3755621.95146  24056230.781    24056231.8254   24056238.5834
      3497.962        2725.685
  -1788894.958 9  -1386580.52348  20810849.101    20810849.5884   20810855.1234
      1184.245         922.788
    860596.677 9    669404.64248  20618040.306    20618041.0134   20618045.9794
      -986.128        -768.411
  -1523229.792 9  -1180711.03948  22189531.924    22189533.3964   22189537.8374
       733.996         571.945
  -3254133.664 9  -2523257.43948  21220603.370    21220603.9084   21220609.5564
      2119.529        1651.581
 96 10  8 15 48 30.0000000  0  8 30 28 22 21 17  6 26 23             0.000138357
   4215111.355 8   3270757.14845  24898985.329    24898986.2164   24898993.2874
     -2965.265       -2310.596
  -4597446.830 9  -3566468.090 9  21884810.159    21884811.032    21884815.827
      3142.733        2448.883
  -1767715.596 9  -1368753.94147  23534895.766    23534895.7104   23534901.5814
       896.558         698.617
  -4943992.939 9  -3837331.98046  24036276.537    24036277.3664   24036284.1584
      3492.919        2721.755
  -1824331.732 9  -1414193.59748  20804105.626    20804106.2044   20804111.7564
      1178.294         918.151
    890428.133 9    692649.90948  20623717.071    20623717.7864   20623722.7594
     -1002.479        -781.152
  -1544987.377 9  -1197665.00948  22185392.145    22185393.0234   22185397.5374
       716.659         558.436
  -3317507.866 9  -2572639.92248  21208543.506    21208544.1734   21208549.8484
      2105.602        1640.729
 96 10  8 15 49  0.0000000  0  8 30 28 22 21 17  6 26 23             0.000129096
   4304017.730 8   3340034.77345  24915903.576    24915904.7424   24915911.7304
     -2961.582       -2307.726
  -4691584.104 9  -3639821.806 9  21866896.506    21866897.324    21866902.087
      3133.385        2441.599
  -1794370.890 9  -1389524.33047  23529823.406    23529823.3524   23529829.2744
       880.665         686.232
  -5048691.118 9  -3918914.96246  24016353.356    24016353.9474   24016360.7884
      3487.246        2717.334
  -1859582.233 9  -1441661.51948  20797397.719    20797398.2414   20797403.8054
      1171.913         913.179
    920750.390 9    716277.62548  20629487.146    20629487.8984   20629492.9264
     -1018.690        -793.784
  -1566222.807 9  -1214212.10048  22181350.702    22181352.0654   22181356.6234
       699.083         544.740
  -3380454.192 9  -2621688.99248  21196565.216    21196565.8554   21196571.5264
      2090.961        1629.320
 96 10  8 15 49 30.0000000  0  8 30 28 22 21 17  6 26 23             0.000119796
   4392799.003 8   3409214.91945  24932798.187    24932799.3494   24932806.4374
     -2957.055       -2304.199
  -4785450.918 9  -3712964.777 9  21849034.230    21849035.056    21849039.801
      3124.305        2434.523
  -1820547.380 9  -1409921.62047  23524842.057    23524842.1484   23524848.0964
       864.120         673.340
  -5153226.064 9  -4000370.75446  23996460.675    23996461.6394   23996468.4014
      3481.763        2713.062
  -1894637.992 9  -1468977.69748  20790726.840    20790727.3754   20790732.9014
      1165.052         907.833
    951541.174 9    740270.42348  20635346.420    20635347.1924   20635352.2504
     -1034.245        -805.905
  -1586922.798 9  -1230341.97148  22177411.926    22177412.9894   22177417.5524
       680.730         530.439
  -3442970.682 9  -2670403.12948  21184668.753    21184669.3904   21184675.0444
      2077.087        1618.509
 96 10  8 15 50  0.0000000  0  8 30 28 22 21 17  6 26 23             0.000110473
   4481447.780 8   3478291.81745  24949668.464    24949668.6804   24949675.6604
     -2952.725       -2300.825
  -4879033.432 9  -3785886.212 9  21831225.987    21831226.920    21831231.629
      3114.606        2426.966
  -1846207.660 9  -1429916.67347  23519959.025    23519959.1884   23519965.1364
       846.735         659.793
  -5257592.298 9  -4081695.07847  23976600.022    23976601.4914   23976608.1514
      3476.093        2708.644
  -1929474.961 9  -1496123.38648  20784097.632    20784098.1134   20784103.6444
      1157.495         901.944
    982822.002 9    764645.07448  20641299.001    20641299.7684   20641304.8414
     -1051.099        -819.038
  -1607057.279 9  -1246031.17448  22173580.672    22173581.5674   22173586.0944
       661.521         515.471
  -3505082.496 9  -2718801.92848  21172849.319    21172849.9414   21172855.5654
      2063.650        1608.039
 96 10  8 15 50 30.0000000  0  8 30 28 22 21 17  6 26 23             0.000101138
   4569954.559 8   3547258.09345  24966510.448    24966510.9624   24966518.3474
     -2947.822       -2297.004
  -4972339.232 9  -3858592.029 9  21813470.697    21813471.444    21813476.093
      3105.546        2419.906
  -1871355.591 9  -1449512.48847  23515173.498    23515173.6994   23515179.7274
       829.534         646.390
  -5361793.894 9  -4162891.11547  23956771.411    23956772.6304   23956779.3154
      3470.285        2704.118
  -1964104.956 9  -1523107.79948  20777507.746    20777508.2734   20777513.7684
      1151.061         896.931
   1014592.118 9    789400.98548  20647344.686    20647345.4234   20647350.4894
     -1067.065        -831.479
  -1626618.856 9  -1261273.96748  22169858.238    22169859.1464   22169863.6384
       642.275         500.474
  -3566806.345 9  -2766898.42148  21161103.694    21161104.2994   21161109.8904
      2051.174        1598.317
 96 10  8 15 51  0.0000000  0  8 30 28 22 21 17  6 26 23             0.000091834
   4658325.987 8   3616118.86045  24983327.062    24983327.5274   24983334.7544
     -2943.397       -2293.556
  -5065363.785 9  -3931078.691 9  21795768.689    21795769.470    21795774.112
      3096.250        2412.662
  -1895973.481 9  -1468695.28247  23510488.913    23510489.1194   23510495.1434
       811.714         632.504
  -5465811.296 9  -4243943.61847  23936977.791    23936978.8664   23936985.4604
      3464.526        2699.631
  -1998536.806 9  -1549937.81348  20770955.568    20770956.1044   20770961.6094
      1144.692         891.968
   1046846.191 9    814534.01048  20653482.558    20653483.2064   20653488.2834
     -1083.080        -843.958
  -1645578.580 9  -1276047.78248  22166251.111    22166251.3114   22166255.7714
       621.939         484.628
  -3628159.421 9  -2814705.99648  21149428.502    21149429.2004   21149434.7494
      2039.087        1588.899
 96 10  8 15 51 30.0000000  0  8 30 28 22 21 17  6 26 23             0.000082595
   4746578.449 8   3684886.95045  25000120.584    25000121.4074   25000128.6534
     -2940.211       -2291.073
  -5158097.605 9  -4003338.808 9  21778121.978    21778122.797    21778127.485
      3085.847        2404.556
  -1920033.588 9  -1487443.44447  23505910.444    23505910.6964   23505916.6744
       792.263         617.348
  -5569654.534 9  -4324860.40847  23917217.223    23917218.2194   23917224.8304
      3458.132        2694.648
  -2032775.295 9  -1576617.15748  20764440.226    20764440.7714   20764446.2494
      1137.960         886.722
   1079593.808 9    840051.61048  20659714.225    20659714.8944   20659719.9664
     -1100.128        -857.243
  -1663916.356 9  -1290336.95448  22162761.927    22162761.7324   22162766.2154
       600.723         468.096
  -3689141.518 9  -2862224.50248  21137824.076    21137824.7114   21137830.2374
      2026.234        1578.884
 96 10  8 15 52  0.0000000  0  8 30 28 22 21 17  6 26 23             0.000073438
   4834709.611 8   3753560.56645  25016891.932    25016892.1774   25016899.3874
     -2935.370       -2287.301
  -5250533.504 9  -4075366.777 9  21760531.834    21760532.796    21760537.547
      3076.514        2397.284
  -1943535.474 9  -1505756.62647  23501438.239    23501438.4764   23501444.4624
       774.634         603.611
  -5673314.030 9  -4405634.02547  23897491.611    23897492.5084   23897499.1494
      3452.461        2690.229
  -2066845.081 9  -1603165.04648  20757956.936    20757957.4564   20757962.9664
      1133.284         883.078
   1112829.418 9    865949.46848  20666038.726    20666039.3974   20666044.4964
     -1115.380        -869.127
  -1681643.622 9  -1304150.40948  22159388.204    22159388.3614   22159392.8464
       581.188         452.874
  -3749746.560 9  -2909449.19548  21126291.239    21126291.9304   21126297.4774
      2013.852        1569.235
 96 10  8 15 52 30.0000000  0  8 30 28 22 21 17  6 26 23             0.000064363
   4922710.340 8   3822132.49445  25033637.060    25033637.8834   25033645.5844
     -2930.968       -2283.871
  -5342674.974 9  -4147165.325 9  21742997.852    21742998.837    21743003.645
      3066.471        2389.458
  -1966495.907 9  -1523647.90147  23497069.054    23497069.2384   23497075.3134
       756.394         589.398
  -5776789.514 9  -4486264.27147  23877800.775    23877801.7464   23877808.4164
      3446.155        2685.316
  -2100762.871 9  -1629594.49948  20751502.586    20751503.1604   20751508.6514
      1127.994         878.956
   1146520.310 9    892202.09148  20672449.912    20672450.5794   20672455.6914
     -1130.471        -880.886
  -1698771.348 9  -1317496.68848  22156129.231    22156129.0294   22156133.5404
       561.120         437.236
  -3809955.203 9  -2956365.01048  21114833.974    21114834.6054   21114840.1514
      2000.397        1558.751
 96 10  8 15 53  0.0000000  0  8 30 28 22 21 17  6 26 23             0.000055331
   5010551.759 8   3890580.27545  25050352.828    25050353.5564   25050361.3854
     -2925.211       -2279.385
  -5434531.764 9  -4218742.041 9  21725518.244    21725519.070    21725523.909
      3057.279        2382.295
  -1988937.849 9  -1541135.14747  23492798.548    23492798.7084   23492804.8054
       739.880         576.530
  -5880101.368 9  -4566766.99747  23858141.544    23858142.0844   23858148.8754
      3441.367        2681.585
  -2134530.002 9  -1655906.54948  20745077.008    20745077.4964   20745083.0014
      1123.184         875.208
   1180644.482 9    918792.32748  20678943.620    20678944.2784   20678949.3334
     -1144.484        -891.806
  -1715323.162 9  -1330394.21548  22152978.789    22152979.2884   22152983.8404
       542.441         422.681
  -3869779.919 9  -3002981.66148  21103449.743    21103450.3414   21103455.9154
      1987.786        1548.924
 96 10  8 15 53 30.0000000  0  8 30 28 22 21 17  6 26 23             0.000046315
   5098235.970 8   3958905.57345  25067038.719    25067039.4114   25067047.0264
     -2920.556       -2275.758
  -5526091.310 9  -4290087.139 9  21708095.161    21708095.879    21708100.707
      3046.500        2373.896
  -2010882.045 9  -1558234.54847  23488622.379    23488622.8864   23488628.9874
       723.172         563.511
  -5983239.718 9  -4647134.52047  23838514.970    23838515.4734   23838522.3074
      3434.192        2675.994
  -2168131.887 9  -1682089.84048  20738682.796    20738683.2904   20738688.7664
      1116.580         870.062
   1215210.117 9    945726.56648  20685521.276    20685521.9434   20685526.9894
     -1160.003        -903.898
  -1731302.047 9  -1342845.29648  22149937.966    22149938.5714   22149943.1564
       522.794         407.372
  -3929202.217 9  -3049284.74248  21092142.180    21092142.6574   21092148.2494
      1973.556        1537.836
 96 10  8 15 54  0.0000000  0  8 30 28 22 21 17  6 26 23             0.000037250
   5185773.379 8   4027116.47345  25083696.275    25083697.3834   25083705.0164
     -2915.261       -2271.632
  -5617347.703 9  -4361196.016 9  21690729.643    21690730.398    21690735.192
      3037.131        2366.595
  -2032366.626 9  -1574975.80947  23484533.900    23484534.5164   23484540.6574
       708.934         552.416
  -6086180.523 9  -4727348.12847  23818925.597    23818926.4254   23818933.2874
      3428.602        2671.638
  -2201538.671 9  -1708121.10248  20732325.655    20732326.1654   20732331.6574
      1110.207         865.096
   1250222.117 9    973008.61948  20692183.710    20692184.5244   20692189.5894
     -1174.339        -915.069
  -1746718.532 9  -1354858.14448  22147003.684    22147004.9414   22147009.4604
       504.823         393.369
  -3988216.408 9  -3095269.81148  21080912.006    21080912.6574   21080918.2334
      1960.726        1527.838
 96 10  8 15 54 30.0000000  0  8 30 28 22 21 17  6 26 23             0.000028097
   5273158.924 8   4095209.03845  25100325.728    25100326.3144   25100333.9944
     -2910.740       -2268.109
  -5708314.896 9  -4432079.539 9  21673419.003    21673419.924    21673424.708
      3027.096        2358.776
  -2053412.856 9  -1591375.49247  23480529.317    23480529.6284   23480535.7714
       693.833         540.649
  -6188953.292 9  -4807430.78247  23799368.379    23799369.4344   23799376.2374
      3422.651        2667.001
  -2234730.841 9  -1733985.13448  20726009.349    20726009.9174   20726015.3924
      1102.386         859.002
   1285679.871 9   1000638.01548  20698931.000    20698931.9204   20698936.9804
     -1189.870        -927.171
  -1761588.201 9  -1366444.90348  22144174.334    22144175.3294   22144179.8604
       486.325         378.954
  -4046843.760 9  -3140953.45548  21069755.776    21069756.2684   21069761.8174
      1947.596        1517.607
 96 10  8 15 55  0.0000000  0  8 30 28 22 21 17  6 26 23             0.000018845
   5360401.878 8   4163190.47945  25116927.739    25116928.2934   25116935.8304
     -2905.934       -2264.364
  -5798978.718 9  -4502726.672 9  21656166.471    21656167.167    21656171.958
      3016.841        2350.785
  -2074000.903 9  -1607418.15147  23476611.692    23476611.8554   23476617.9664
       678.181         528.453
  -6291547.214 9  -4887374.09947  23779845.369    23779846.3894   23779853.2244
      3416.669        2662.339
  -2267682.027 9  -1759661.38148  20719738.984    20719739.5544   20719744.9914
      1094.278         852.684
   1321616.235 9   1028640.35648  20705769.477    20705770.4134   20705775.4774
     -1206.181        -939.881
  -1775904.073 9  -1377600.13148  22141449.296    22141451.1284   22141455.6484
       467.794         364.515
  -4105075.104 9  -3186328.51448  21058674.805    21058675.2044   21058680.7474
      1934.031        1507.037
 96 10  8 15 55 30.0000000  0  8 30 28 22 21 17  6 26 23             0.000009511
   5447508.308 8   4231065.56045  25133503.884    25133504.3704   25133511.5954
     -2901.071       -2260.575
  -5889338.228 9  -4573136.675 9  21638971.605    21638972.306    21638977.129
      3007.127        2343.216
  -2094116.069 9  -1623092.33147  23472783.406    23472784.0214   23472790.2404
       662.647         516.348
  -6393961.661 9  -4967177.55047  23760356.253    23760357.5844   23760364.3934
      3411.030        2657.945
  -2300397.126 9  -1785153.66548  20713513.534    20713514.0904   20713519.5374
      1086.682         846.765
   1358045.910 9   1057027.09648  20712701.773    20712702.7404   20712707.8474
     -1222.532        -952.622
  -1789667.879 9  -1388325.17548  22138829.773    22138832.0114   22138836.5224
       449.766         350.467
  -4162904.124 9  -3231390.07948  21047670.197    21047670.7134   21047676.2424
      1921.237        1497.068
 96 10  8 15 56  0.0000000  0  8 30 28 22 21 17  6 26 23             0.000000133
   5534481.014 8   4298836.41845  25150053.886    25150054.8794   25150062.0154
     -2896.736       -2257.197
  -5979384.792 9  -4643302.827 9  21621836.225    21621836.995    21621841.859
      2996.313        2334.789
  -2113724.736 9  -1638371.82647  23469052.178    23469052.6364   23469058.8774
       644.655         502.329
  -6496202.188 9  -5046845.48747  23740900.599    23740901.8634   23740908.6494
      3405.376        2653.540
  -2332862.717 9  -1810451.52948  20707335.560    20707336.0984   20707341.5444
      1078.369         840.288
   1394987.961 9   1085813.08848  20719731.678    20719732.5424   20719737.7074
     -1239.972        -966.212
  -1802866.704 9  -1398609.97548  22136319.147    22136320.3664   22136324.8734
       430.394         335.372
  -4220328.263 9  -3276136.15048  21036742.755    21036743.2524   21036748.7734
      1907.417        1486.299
 96 10  8 15 56 29.9990000  0  8 30 28 22 21 17  6 26 23            -0.000009239
   5621299.950 8   4366487.47345  25166575.189    25166576.0974   25166583.1664
     -2890.857       -2252.616
  -6069108.173 9  -4713217.149 9  21604762.453    21604763.183    21604768.091
      2985.957        2326.720
  -2132787.993 9  -1653226.35647  23465424.694    23465425.0404   23465431.2554
       626.880         488.478
  -6598274.207 9  -5126382.10347  23721477.225    23721478.2274   23721484.9864
      3400.038        2649.380
  -2365103.285 9  -1835574.05048  20701200.401    20701200.9214   20701206.3654
      1071.677         835.073
   1432443.545 9   1114999.23548  20726859.299    20726860.0974   20726865.2384
     -1256.542        -979.124
  -1815487.150 9  -1408444.09348  22133918.053    22133918.7944   22133923.3094
       411.498         320.648
  -4277344.234 9  -3320564.16948  21025892.957    21025893.4774   21025898.9714
      1894.254        1476.042
 96 10  8 15 56 59.9990000  0  8 30 28 22 21 17  6 26 23            -0.000018613
   5707926.741 8   4433988.81846  25183059.863    25183060.7854   25183067.7484
     -2884.984       -2248.039
  -6158545.002 9  -4782908.179 9  21587743.252    21587743.891    21587748.849
      2975.744        2318.762
  -2151344.491 9  -1667685.97847  23461892.934    23461893.8124   23461900.0744
       609.511         474.944
  -6700210.741 9  -5205813.16747  23702079.415    23702080.3554   23702087.0514
      3394.946        2645.412
  -2397175.360 9  -1860565.28148  20695097.187    20695097.7934   20695103.2514
      1065.775         830.474
   1470371.931 9   1144553.80448  20734076.865    20734077.6414   20734082.7984
     -1272.653        -991.678
  -1827563.651 9  -1417854.35048  22131619.757    22131620.7184   22131625.2584
       392.940         306.187
  -4333984.935 9  -3364699.76748  21015114.492    21015115.0954   21015120.5924
      1881.130        1465.816
 96 10  8 15 57 29.9990000  0  8 30 28 22 21 17  6 26 23            -0.000027955
   5794396.717 8   4501367.94246  25199514.204    25199515.5414   25199522.4714
     -2879.423       -2243.706
  -6247651.264 9  -4852341.628 9  21570786.773    21570787.552    21570792.513
      2964.720        2310.171
  -2169365.188 9  -1681728.10447  23458464.259    23458464.6474   23458470.8734
       592.045         461.334
  -6801962.562 9  -5285100.29547  23682716.369    23682717.6484   23682724.2634
      3388.589        2640.459
  -2429055.007 9  -1885406.56348  20689030.808    20689031.3164   20689036.7524
      1059.542         825.617
   1508803.401 9   1174500.38648  20741390.011    20741390.8934   20741396.0904
     -1289.269       -1004.625
  -1839064.549 9  -1426816.09648  22129431.024    22129432.1974   22129436.7124
       373.693         291.189
  -4390217.883 9  -3408517.63548  21004413.873    21004414.3194   21004419.8294
      1867.824        1455.447
 96 10  8 15 57 59.9990000  0  8 30 28 22 21 17  6 26 23            -0.000037273
   5880690.274 8   4568609.61346  25215935.884    25215936.9824   25215943.6894
     -2873.083       -2238.766
  -6336431.111 9  -4921520.729 9  21553892.585    21553893.320    21553898.261
      2954.311        2302.061
  -2186871.584 9  -1695369.48147  23455133.530    23455133.3014   23455139.5074
       575.427         448.385
  -6903532.414 9  -5364245.62147  23663388.347    23663389.5724   23663396.1864
      3382.932        2636.051
  -2460761.738 9  -1910113.11348  20682997.248    20682997.7344   20683003.1414
      1054.610         821.774
   1547714.935 9   1204821.04348  20748794.579    20748795.5254   20748800.7474
     -1304.391       -1016.409
  -1849998.032 9  -1435335.69848  22127350.788    22127351.6164   22127356.1114
       355.468         276.988
  -4446051.530 9  -3452024.35948  20993789.036    20993789.5584   20993795.0614
      1854.754        1445.263
 96 10  8 15 58 29.9990000  0  8 30 28 22 21 17  6 26 23            -0.000046597
   5966794.087 8   4635703.44646  25232320.967    25232322.0714   25232328.8414
     -2867.504       -2234.419
  -6424896.584 9  -4990454.862 9  21537058.154    21537058.937    21537063.823
      2943.198        2293.401
  -2203892.251 9  -1708632.35947  23451893.952    23451894.3214   23451900.5884
       559.019         435.599
  -7004915.953 9  -5443245.76547  23644095.978    23644096.9504   23644103.5424
      3375.756        2630.459
  -2492313.979 9  -1934699.27748  20676993.072    20676993.5424   20676998.9484
      1048.510         817.021
   1587082.448 9   1235497.00748  20756286.050    20756286.9264   20756292.1724
     -1320.262       -1028.775
  -1860378.789 9  -1443424.60348  22125374.845    22125376.2004   22125380.6664
       336.375         262.110
  -4501487.956 9  -3495221.56648  20983239.753    20983240.3374   20983245.8354
      1840.895        1434.464
 96 10  8 15 58 59.9990000  0  8 30 28 22 21 17  6 26 23            -0.000055924
   6052735.957 8   4702671.08046  25248675.518    25248676.3104   25248683.1614
     -2862.037       -2230.159
  -6513030.512 9  -5059130.649 9  21520286.872    21520287.639    21520292.497
      2932.237        2284.860
  -2220420.905 9  -1721511.86747  23448747.622    23448749.1284   23448755.3374
       542.782         422.947
  -7106080.083 9  -5522074.94747  23624845.347    23624846.0694   23624852.6574
      3368.476        2624.786
  -2523679.893 9  -1959140.25148  20671024.350    20671024.8244   20671030.2344
      1042.455         812.303
   1626923.914 9   1266542.28548  20763867.694    20763868.5354   20763873.7574
     -1336.084       -1041.104
  -1870186.485 9  -1451066.96848  22123509.331    22123509.8294   22123514.3614
       317.311         247.255
  -4556512.608 9  -3538097.90648  20972768.982    20972769.5014   20972774.9944
      1827.397        1423.946
 96 10  8 15 59 29.9990000  0  8 30 28 22 21 17  6 26 23            -0.000065261
   6138497.123 8   4769497.89146  25264995.168    25264996.0964   25265002.9114
     -2855.905       -2225.381
  -6600844.718 9  -5127557.300 9  21503576.327    21503577.142    21503581.997
      2921.622        2276.589
  -2236477.322 9  -1734023.39147  23445692.874    23445693.7624   23445699.9354
       527.141         410.759
  -7207037.586 9  -5600743.11547  23605633.761    23605634.4944   23605641.1234
      3361.692        2619.500
  -2554874.658 9  -1983447.86348  20665088.215    20665088.6524   20665094.0454
      1036.711         807.827
   1667232.338 9   1297951.42548  20771538.136    20771539.0304   20771544.2064
     -1351.472       -1053.095
  -1879424.956 9  -1458265.78148  22121750.150    22121751.8294   22121756.3284
       297.996         232.205
  -4611148.396 9  -3580671.23848  20962372.176    20962372.6534   20962378.1694
      1814.579        1413.958
 96 10  8 15 59 59.9990000  0  8 30 28 22 21 17  6 26 23            -0.000074588
   6224090.231 8   4836193.76845  25281282.838    25281283.9574   25281290.7794
     -2850.577       -2221.229
  -6688330.133 9  -5195727.754 9  21486928.355    21486929.227    21486934.084
      2910.349        2267.804
  -2252047.692 9  -1746156.16847  23442730.915    23442730.8774   23442737.0134
       510.415         397.726
  -7307781.894 9  -5679245.16647  23586462.668    23586463.4574   23586470.1674
      3354.235        2613.690
  -2585879.834 9  -2007607.73848  20659188.084    20659188.5544   20659193.9684
      1029.786         802.431
   1708005.020 9   1329722.32748  20779296.980    20779297.8704   20779303.0464
     -1367.111       -1065.281
  -1888064.191 9  -1464997.65248  22120106.732    22120107.8464   22120112.3324
       277.644         216.346
  -4665386.089 9  -3622934.36348  20952051.007    20952051.5394   20952057.0944
      1800.937        1403.328
 96 10  8 16  0 29.9990000  0  8 30 28 22 21 17  6 26 23            -0.000083912
   6309518.931 8   4902761.51746  25297539.716    25297540.6274   25297547.3624
     -2845.066       -2216.935
  -6775476.851 9  -5263634.288 9  21470345.063    21470345.729    21470350.629
      2899.013        2258.971
  -2267114.752 9  -1757896.76947  23439864.062    23439863.6944   23439869.9084
       493.620         384.639
  -7408305.336 9  -5757575.10747  23567333.292    23567334.4214   23567341.1754
      3347.034        2608.078
  -2616673.380 9  -2031602.71448  20653328.266    20653328.7424   20653334.1864
      1022.734         796.936
   1749246.705 9   1361858.68448  20787144.970    20787145.9084   20787151.1224
     -1382.757       -1077.473
  -1896094.904 9  -1471255.35848  22118578.447    22118579.6654   22118584.1444
       257.399         200.571
  -4719226.843 9  -3664888.19248  20941805.444    20941805.9974   20941811.5494
      1788.078        1393.308
 96 10  8 16  0 59.9990000  0  7 28 22 21 17  6 26 23               -0.000093222
  -6862283.502 9  -5331275.832 9  21453826.379    21453826.957    21453831.862
      2887.776        2250.215
  -2281674.546 9  -1769242.08447  23437094.126    23437093.1124   23437099.2874
       476.741         371.486
  -7508625.530 9  -5835746.67147  23548243.202    23548244.0834   23548250.8394
      3340.677        2603.125
  -2647260.174 9  -2055436.58348  20647507.816    20647508.3014   20647513.7304
      1016.003         791.691
   1790953.886 9   1394357.76748  20795081.513    20795082.4934   20795087.7524
     -1398.026       -1089.371
  -1903522.156 9  -1477042.82748  22117165.044    22117166.2904   22117170.7974
       237.475         185.045
  -4772685.445 9  -3706544.23248  20931632.613    20931633.1494   20931638.7524
      1775.448        1383.466
 96 10  8 16  1 29.9990000  0  7 28 22 21 17  6 26 23               -0.000102520
  -6948739.901 9  -5398644.456 9  21437374.091    21437374.863    21437379.753
      2876.221        2241.211
  -2295713.090 9  -1780181.24047  23434422.563    23434421.7204   23434427.9424
       459.270         357.873
  -7608745.089 9  -5913761.89547  23529191.059    23529191.9444   23529198.7104
      3334.130        2598.023
  -2677624.133 9  -2079096.81448  20641729.723    20641730.1974   20641735.6254
      1008.448         785.804
   1833125.571 9   1427218.79948  20803106.608    20803107.5384   20803112.7784
     -1413.045       -1101.074
  -1910341.428 9  -1482356.54648  22115867.362    22115868.6584   22115873.1564
       217.514         169.491
  -4825748.815 9  -3747892.30748  20921534.935    20921535.5154   20921541.1284
      1762.308        1373.227
 96 10  8 16  1 59.9990000  0  7 28 22 21 17  6 26 23               -0.000111827
  -7034855.954 9  -5465747.873 9  21420986.915    21420987.538    21420992.384
      2864.429        2232.023
  -2309229.298 9  -1790713.36847  23431850.104    23431849.6464   23431855.9424
       441.504         344.029
  -7708670.621 9  -5991625.94647  23510176.099    23510176.7334   23510183.4954
      3327.274        2592.681
  -2707761.624 9  -2102580.57948  20635994.735    20635995.2344   20636000.6284
      1000.316         779.467
   1875737.126 9   1460422.59048  20811215.418    20811216.2854   20811221.5014
     -1428.273       -1112.940
  -1916578.802 9  -1487216.84248  22114679.759    22114681.7644   22114686.2264
       198.001         154.286
  -4878423.281 9  -3788937.33448  20911511.286    20911511.8664   20911517.4784
      1748.903        1362.782
 96 10  8 16  2 29.9990000  0  7 28 22 21 17  6 26 23               -0.000121149
  -7120630.838 9  -5532585.445 9  21404664.648    21404665.156    21404669.960
      2853.434        2223.455
  -2322233.712 9  -1800846.70147  23429375.382    23429374.9974   23429381.3084
       425.139         331.277
  -7808412.339 9  -6069346.75047  23491195.659    23491196.4434   23491203.2754
      3321.551        2588.222
  -2737669.909 9  -2125885.73748  20630303.408    20630303.9054   20630309.2994
       993.129         773.867
   1918799.856 9   1493977.94048  20819410.081    20819410.8894   20819416.1184
     -1443.026       -1124.436
  -1922250.821 9  -1491636.59648  22113601.259    22113602.4514   22113606.8864
       179.653         139.989
  -4930715.457 9  -3829684.47848  20901560.346    20901560.9614   20901566.5774
      1736.749        1353.311
 96 10  8 16  2 59.9990000  0  7 28 22 21 17  6 26 23               -0.000130503
  -7206063.438 9  -5599156.303 9  21388407.431    21388407.900    21388412.681
      2841.784        2214.377
  -2334741.734 9  -1810593.23147  23426995.356    23426994.8354   23427001.1254
       408.517         318.325
  -7907968.592 9  -6146923.04047  23472250.963    23472251.5034   23472258.3644
      3315.276        2583.332
  -2767350.212 9  -2149013.25148  20624655.456    20624655.9264   20624661.3464
       985.283         767.753
   1962313.324 9   1527884.51848  20827690.479    20827691.2364   20827696.4504
     -1458.018       -1136.118
  -1927359.603 9  -1495617.47548  22112629.087    22112630.2784   22112634.6954
       160.706         125.225
  -4982626.635 9  -3870134.73848  20891681.973    20891682.5864   20891688.2104
      1723.692        1343.137
 96 10  8 16  3 29.9990000  0  7 28 22 21 17  6 26 23               -0.000139894
  -7291141.203 9  -5665450.667 9  21372217.506    21372218.163    21372222.914
      2830.104        2205.276
  -2346755.989 9  -1819955.02647  23424709.137    23424708.6004   23424714.9014
       392.518         305.858
  -8007327.636 9  -6224345.66447  23453343.387    23453344.0794   23453350.9734
      3308.728        2578.230
  -2796791.851 9  -2171954.79448  20619052.889    20619053.3944   20619058.7864
       977.704         761.847
   2006277.583 9   1562142.36048  20836056.689    20836057.3744   20836062.5854
     -1472.875       -1147.695
  -1931896.466 9  -1499152.69648  22111766.029    22111766.9034   22111771.3414
       141.858         110.539
  -5034136.709 9  -3910272.44548  20881880.023    20881880.5544   20881886.1724
      1710.461        1332.827
 96 10  8 16  3 59.9990000  0  7 28 22 21 17  6 26 23               -0.000149337
  -7375875.780 9  -5731477.611 9  21356092.897    21356093.721    21356098.474
      2818.899        2196.545
  -2358308.230 9  -1828956.77947  23422510.481    23422510.2804   23422516.6504
       377.693         294.306
  -8106505.384 9  -6301627.01047  23434470.307    23434471.1934   23434478.0364
      3303.156        2573.888
  -2826022.797 9  -2194732.15648  20613490.447    20613490.9184   20613496.3114
       971.290         756.849
   2050683.086 9   1596744.02948  20844506.734    20844507.4394   20844512.6954
     -1487.472       -1159.069
  -1935877.825 9  -1502255.05248  22111008.004    22111009.2244   22111013.6694
       123.593          96.306
  -5085261.809 9  -3950110.17648  20872151.178    20872151.7434   20872157.3514
      1697.986        1323.106
 96 10  8 16  4 29.9990000  0  8 28 22 21 17  6 26 23  3            -0.000158802
  -7460249.356 9  -5797223.250 9  21340037.323    21340037.942    21340042.743
      2806.494        2186.878
  -2369393.552 9  -1837594.71847  23420401.319    23420400.8174   23420407.2164
       361.699         281.843
  -8205490.373 9  -6378758.16347  23415634.216    23415634.9994   23415641.7734
      3296.215        2568.479
  -2855052.171 9  -2217352.44748  20607966.323    20607966.7964   20607972.2204
       964.583         751.623
   2095548.096 9   1631703.76048  20853044.190    20853044.9704   20853050.2574
     -1502.998       -1171.167
  -1939282.873 9  -1504908.33448  22110359.795    22110361.2754   22110365.6684
       103.918          80.975
  -5135987.347 9  -3989636.55548  20862498.405    20862499.0014   20862504.6034
      1684.087        1312.275
  -2348451.70019   -937292.85656  25149184.606    25149185.3545   25149191.9315
      4071.172        3172.342
 96 10  8 16  4 59.9990000  0  8 28 22 21 17  6 26 23  3            -0.000168276
  -7544267.007 9  -5862691.548 9  21324049.336    21324049.909    21324054.723
      2794.681        2177.674
  -2380008.176 9  -1845865.88747  23418381.352    23418380.9104   23418387.2724
       345.811         269.463
  -8304279.224 9  -6455736.47447  23396835.291    23396836.1614   23396842.8654
      3289.809        2563.488
  -2883908.201 9  -2239837.67348  20602475.240    20602475.6854   20602481.0964
       959.187         747.418
   2140860.115 9   1667011.79948  20861666.664    20861667.5944   20861672.8624
     -1517.898       -1182.778
  -1942110.702 9  -1507111.83748  22109822.175    22109823.1874   22109827.5174
        84.651          65.962
  -5186300.112 9  -4028841.29448  20852924.188    20852924.8244   20852930.4194
      1669.982        1301.285
  -2470579.271 9  -1032457.18146  25125944.843    25125945.3844   25125951.7844
      4070.663        3171.945
 96 10  8 16  5 29.9990000  0  8 28 22 21 17  6 26 23  3            -0.000177736
  -7627918.211 9  -5927874.300 9  21308131.161    21308131.623    21308136.440
      2782.594        2168.255
  -2390129.189 9  -1853752.43247  23416454.720    23416454.9984   23416461.3294
       329.410         256.683
  -8402864.429 9  -6532556.10547  23378075.404    23378076.0734   23378082.7504
      3282.975        2558.162
  -2912592.831 9  -2262189.33548  20597016.738    20597017.2064   20597022.6114
       953.685         743.131
   2186639.089 9   1702683.70548  20870378.216    20870379.0974   20870384.3194
     -1533.557       -1194.979
  -1944349.195 9  -1508856.11548  22109396.762    22109397.2254   22109401.5564
        65.218          50.819
  -5236178.135 9  -4067707.27448  20843432.754    20843433.3534   20843438.9434
      1655.812        1290.243
  -2592673.077 9  -1127595.21146  25102710.674    25102711.7264   25102718.1154
      4069.435        3170.988
 96 10  8 16  5 59.9990000  0  8 28 22 21 17  6 26 23  3            -0.000187161
  -7711202.243 9  -5992770.947 9  21292282.596    21292283.219    21292288.001
      2769.812        2158.295
  -2399745.331 9  -1861245.55047  23414624.867    23414625.1974   23414631.5174
       311.847         242.998
  -8501229.211 9  -6609203.98247  23359357.163    23359357.9134   23359364.5874
      3274.855        2551.835
  -2941113.547 9  -2284413.26948  20591589.359    20591589.8744   20591595.2784
       947.810         738.553
   2232895.086 9   1738727.31548  20879180.553    20879181.3474   20879186.5564
     -1550.002       -1207.794
  -1945997.685 9  -1510140.64648  22109082.839    22109083.5084   22109087.8984
        44.853          34.950
  -5285631.382 9  -4106242.26048  20834022.089    20834022.7174   20834028.2994
      1641.191        1278.850
  -2714728.084 9  -1222703.00546  25079484.339    25079485.4614   25079491.7054
      4067.729        3169.659
 96 10  8 16  6 29.9990000  0  8 28 22 21 17  6 26 23  3            -0.000196545
  -7794113.122 9  -6057376.823 9  21276505.253    21276505.777    21276510.580
      2757.890        2149.005
  -2408844.083 9  -1868335.50247  23412893.590    23412893.7864   23412900.0744
       295.109         229.955
  -8599359.075 9  -6685668.80047  23340683.839    23340684.4174   23340691.1224
      3267.527        2546.125
  -2969461.900 9  -2306502.89648  20586194.858    20586195.3824   20586200.7344
       942.175         734.162
   2279628.550 9   1775142.97848  20888073.684    20888074.4514   20888079.6714
     -1565.273       -1219.693
  -1947042.727 9  -1510954.95848  22108883.220    22108884.6304   22108889.0184
        25.299          19.713
  -5334653.814 9  -4144441.54748  20824693.426    20824694.0944   20824699.6644
      1627.347        1268.062
  -2836745.492 9  -1317781.50245  25056265.581    25056266.3334   25056272.4934
      4066.897        3169.011
 96 10  8 16  6 59.9990000  0  8 28 22 21 17  6 26 23  3            -0.000205908
  -7876655.078 9  -6121695.229 9  21260798.043    21260798.549    21260803.347
      2745.223        2139.135
  -2417434.822 9  -1875029.63047  23411259.110    23411259.0554   23411265.3324
       278.070         216.678
  -8697259.566 9  -6761954.88447  23322053.982    23322054.5854   23322061.2964
      3259.632        2539.973
  -2997615.221 9  -2328440.55348  20580837.433    20580837.9884   20580843.3674
       935.052         728.612
   2326833.406 9   1811925.96148  20897056.536    20897057.2424   20897062.5154
     -1581.251       -1232.144
  -1947491.538 9  -1511304.67748  22108798.003    22108799.2234   22108803.6564
         5.074           3.954
  -5383255.192 9  -4182312.74048  20815444.943    20815445.5534   20815451.1254
      1613.259        1257.085
  -2958728.872 9  -1412833.48446  25033052.852    25033053.5734   25033059.8704
      4065.803        3168.158
 96 10  8 16  7 29.9990000  0  8 28 22 21 17  6 26 23  3            -0.000215283
  -7958836.728 9  -6185732.874 9  21245159.143    21245159.888    21245164.686
      2733.215        2129.778
  -2425548.909 9  -1881352.32647  23409715.356    23409715.0624   23409721.3004
       262.493         204.540
  -8794948.102 9  -6838075.81547  23303464.423    23303465.0884   23303471.7774
      3252.611        2534.502
  -3025568.235 9  -2350222.12648  20575518.156    20575518.7034   20575524.0984
       928.197         723.270
   2374489.454 9   1849060.52148  20906125.112    20906125.8544   20906131.1934
     -1596.100       -1243.714
  -1947360.687 9  -1511202.71548  22108822.560    22108824.1064   22108828.6234
       -14.078         -10.970
  -5431468.211 9  -4219881.31448  20806270.318    20806270.9054   20806276.4844
      1600.734        1247.325
  -3080706.413 9  -1507880.91046  25009841.066    25009841.9054   25009848.1984
      4065.836        3168.184
 96 10  8 16  7 59.9990000  0  8 28 22 21 17  6 26 23  3            -0.000224660
  -8040631.285 9  -6249468.891 9  21229594.213    21229594.878    21229599.683
      2720.388        2119.783
  -2433171.070 9  -1887291.70147  23408265.055    23408264.5784   23408270.8694
       246.266         191.895
  -8892401.498 9  -6914013.51947  23284919.779    23284920.3364   23284927.0694
      3245.068        2528.624
  -3053291.499 9  -2371824.67048  20570242.628    20570243.1524   20570248.5424
       920.601         717.351
   2422615.650 9   1886561.43048  20915283.218    20915283.9524   20915289.3154
     -1611.608       -1255.798
  -1946629.217 9  -1510632.73148  22108962.528    22108963.3094   22108967.8394
       -33.928         -26.437
  -5479280.881 9  -4257137.93148  20797171.896    20797172.4934   20797178.0564
      1587.428        1236.957
  -3202669.034 9  -1602916.70446  24986632.329    24986633.2114   24986639.4754
      4065.540        3167.953
 96 10  8 16  8 29.9990000  0  8 28 22 21 17  6 26 23  3            -0.000234061
  -8122050.376 9  -6312912.334 9  21214100.633    21214101.334    21214106.130
      2707.859        2110.020
  -2440318.822 9  -1892861.39647  23406905.209    23406904.4574   23406910.7024
       230.578         179.671
  -8989648.467 9  -6989790.36547  23266414.207    23266414.8514   23266421.6184
      3238.374        2523.408
  -3080789.880 9  -2393251.98348  20565009.887    20565010.4074   20565015.7664
       913.014         711.439
   2471194.613 9   1924415.14748  20924527.487    20924528.2154   20924533.6084
     -1626.712       -1267.568
  -1945320.238 9  -1509612.74548  22109211.438    22109212.4494   22109216.9674
       -52.941         -41.253
  -5526711.845 9  -4294097.11148  20788146.152    20788146.6854   20788152.2324
      1574.991        1227.266
  -3324626.039 9  -1697948.11846  24963425.140    24963425.5184   24963431.7734
      4064.989        3167.524
 96 10  8 16  8 59.9990000  0  8 28 22 21 17  6 26 23  3            -0.000243483
  -8203099.688 9  -6376067.641 9  21198677.508    21198678.132    21198682.958
      2695.359        2100.280
  -2447000.419 9  -1898067.85947  23405633.872    23405633.1104   23405639.2854
       214.755         167.341
  -9086704.462 9  -7065418.40847  23247944.631    23247945.6944   23247952.5044
      3231.925        2518.383
  -3108077.712 9  -2414515.23448  20559817.136    20559817.7034   20559823.0514
       906.390         706.278
   2520227.118 9   1962622.27248  20933858.226    20933858.8204   20933864.2344
     -1642.002       -1279.482
  -1943450.935 9  -1508156.14048  22109567.105    22109568.2074   22109572.7044
       -71.740         -55.901
  -5573775.466 9  -4330770.05248  20779190.274    20779190.7724   20779196.3244
      1562.522        1217.550
  -3446572.814 9  -1792971.57546  24940219.593    24940219.7314   24940226.0414
      4064.801        3167.377
 96 10  8 16  9 29.9990000  0  8 28 22 21 17  6 26 23  3            -0.000252908
  -8283767.082 9  -6438925.352 9  21183327.052    21183327.654    21183332.474
      2682.453        2090.223
  -2453199.225 9  -1902898.13647  23404454.176    23404453.5954   23404459.7454
       198.282         154.505
  -9183562.158 9  -7140891.93147  23229513.204    23229514.2794   23229521.0924
      3225.107        2513.070
  -3135170.563 9  -2435626.55148  20554661.531    20554662.0964   20554667.4434
       899.661         701.034
   2569722.245 9   2001189.88048  20943276.711    20943277.4604   20943282.8584
     -1657.736       -1291.742
  -1941018.485 9  -1506260.71848  22110029.520    22110031.0944   22110035.5874
       -90.444         -70.476
  -5620456.471 9  -4367144.85148  20770307.142    20770307.6624   20770313.2054
      1549.543        1207.436
  -3568498.572 9  -1887978.63346  24917018.129    24917018.1134   24917024.3584
      4063.474        3166.343
 96 10  8 16  9 59.9990000  0  8 28 22 21 17  6 26 23  3            -0.000262308
  -8364034.933 9  -6501471.729 9  21168052.451    21168053.190    21168058.017
      2668.719        2079.521
  -2458882.696 9  -1907326.84447  23403372.479    23403372.0364   23403378.2544
       180.714         140.816
  -9280198.318 9  -7216192.82247  23211123.975    23211125.0254   23211131.8094
      3217.300        2506.987
  -3162050.429 9  -2456571.90448  20549546.427    20549547.0174   20549552.3794
       892.154         695.185
   2619702.437 9   2040135.46148  20952787.688    20952788.4064   20952793.7824
     -1674.147       -1304.530
  -1938013.242 9  -1503918.96348  22110601.444    22110602.9334   22110607.4104
      -109.916         -85.649
  -5666739.509 9  -4403209.54748  20761499.787    20761500.2814   20761505.8184
      1535.892        1196.799
  -3690361.714 9  -1982936.91846  24893828.158    24893828.3044   24893834.4654
      4060.634        3164.130
 96 10  8 16 10 29.9990000  0  8 28 22 21 17  6 26 23  3            -0.000271698
  -8443909.120 9  -6563711.354 9  21152852.980    21152853.643    21152858.470
      2655.781        2069.440
  -2464061.201 9  -1911362.07947  23402387.043    23402386.6564   23402392.8094
       164.136         127.898
  -9376626.147 9  -7291331.38447  23192774.217    23192775.3834   23192782.1944
      3210.791        2501.915
  -3188715.254 9  -2477349.69248  20544472.323    20544472.8884   20544478.2164
       885.141         689.720
   2670148.979 9   2079444.43448  20962387.340    20962388.0594   20962393.4584
     -1689.421       -1316.432
  -1934441.306 9  -1501135.63148  22111281.758    22111282.6704   22111287.0834
      -128.631        -100.232
  -5712627.452 9  -4438966.37248  20752767.598    20752768.0914   20752773.6214
      1522.848        1186.635
  -3812148.819 9  -2077835.93746  24870653.076    24870652.8964   24870658.9944
      4058.153        3162.197
 96 10  8 16 10 59.9990000  0  8 28 22 21 17  6 26 23  3            -0.000281092
  -8523390.968 9  -6625645.258 9  21137728.165    21137728.737    21137733.589
      2643.259        2059.682
  -2468742.910 9  -1915010.19847  23401495.894    23401495.7944   23401501.9174
       148.223         115.498
  -9472858.789 9  -7366317.85547  23174461.735    23174462.8734   23174469.7024
      3204.925        2497.344
  -3215169.240 9  -2497963.19248  20539438.215    20539438.8494   20539444.1714
       878.780         684.764
   2721058.941 9   2119114.51048  20972075.181    20972075.9584   20972081.3544
     -1704.128       -1327.892
  -1930306.972 9  -1497914.06648  22112068.443    22112069.3954   22112073.7914
      -146.668        -114.287
  -5758112.744 9  -4474409.44748  20744112.053    20744112.5064   20744118.0664
      1509.849        1176.506
  -3933867.461 9  -2172681.60346  24847490.572    24847490.6224   24847496.6654
      4056.745        3161.100
 96 10  8 16 11 29.9990000  0  8 28 22 21 17  6 26 23  3            -0.000290500
  -8602483.884 9  -6687276.104 9  21122677.229    21122677.881    21122682.714
      2630.097        2049.426
  -2472932.405 9  -1918274.78547  23400698.225    23400698.5624   23400704.7264
       131.569         102.521
  -9568900.659 9  -7441155.66847  23156185.564    23156186.6734   23156193.5394
      3198.267        2492.156
  -3241414.283 9  -2518413.87948  20534444.070    20534444.6254   20534449.9284
       871.314         678.946
   2772412.610 9   2159130.33448  20981847.502    20981848.2684   20981853.6694
     -1719.009       -1339.487
  -1925628.496 9  -1494268.49548  22112959.195    22112959.7004   22112964.1034
      -164.817        -128.429
  -5803200.637 9  -4509542.86148  20735532.117    20735532.5514   20735538.0934
      1496.559        1166.150
  -4055528.173 9  -2267482.13846  24824338.968    24824339.4144   24824345.3204
      4054.535        3159.378
 96 10  8 16 11 59.9990000  0  8 28 22 21 17  6 26 23  3            -0.000299920
  -8681190.962 9  -6748606.292 9  21107699.825    21107700.447    21107705.242
      2616.517        2038.844
  -2476632.255 9  -1921157.82447  23399994.198    23399994.5584   23400000.7164
       114.636          89.327
  -9664756.341 9  -7515848.40147  23137944.961    23137945.9204   23137952.7924
      3191.616        2486.974
  -3267446.702 9  -2538698.88748  20529490.260    20529490.8064   20529496.1234
       863.822         673.108
   2824203.756 9   2199487.04848  20991703.146    20991703.8474   20991709.2004
     -1734.197       -1351.322
  -1920406.573 9  -1490199.45548  22113953.237    22113953.4294   22113957.8034
      -183.856        -143.264
  -5847904.763 9  -4544377.23048  20727025.204    20727025.6304   20727031.1554
      1483.083        1155.649
  -4177139.836 9  -2362244.44446  24801197.201    24801197.5514   24801203.3834
      4052.457        3157.759
 96 10  8 16 12 29.9990000  0  8 28 22 21 17  6 26 23  3            -0.000309337
  -8759494.985 9  -6809622.414 9  21092799.004    21092799.692    21092804.482
      2603.256        2028.511
  -2479831.296 9  -1923650.62347  23399385.785    23399385.8114   23399392.0014
        98.156          76.485
  -9760419.409 9  -7590391.04647  23119741.015    23119741.8104   23119748.6614
      3185.263        2482.023
  -3293263.343 9  -2558815.75548  20524577.539    20524578.0834   20524583.3824
       856.910         667.722
   2876447.286 9   2240196.26348  21001644.859    21001645.5174   21001650.8344
     -1749.315       -1363.102
  -1914619.783 9  -1485690.27248  22115053.785    22115054.6004   22115059.0024
      -202.431        -157.738
  -5892208.514 9  -4578899.62848  20718594.397    20718594.9064   20718600.4504
      1470.111        1145.541
  -4298707.030 9  -2456972.08746  24778063.507    24778064.2544   24778069.8524
      4051.612        3157.100
 96 10  8 16 12 59.9990000  0  8 28 22 21 17  6 26 23  3            -0.000318730
  -8837386.894 9  -6870317.407 9  21077976.608    21077977.355    21077982.135
      2589.372        2017.692
  -2482520.265 9  -1925745.96447  23398873.796    23398874.0874   23398880.3514
        81.055          63.160
  -9855861.580 9  -7664761.56047  23101578.921    23101579.7614   23101586.5794
      3177.150        2475.701
  -3318869.396 9  -2578768.52148  20519704.919    20519705.3974   20519710.7124
       850.001         662.338
   2929154.972 9   2281267.16448  21011674.780    21011675.4964   21011680.8134
     -1764.477       -1374.917
  -1908255.171 9  -1480730.82948  22116264.756    22116265.7314   22116270.1264
      -222.130        -173.088
  -5936112.982 9  -4613110.88948  20710239.644    20710240.1874   20710245.7004
      1456.680        1135.075
  -4420240.953 9  -2551673.81646  24754936.032    24754937.1274   24754942.8264
      4050.360        3156.125
 96 10  8 16 13 29.9990000  0  8 28 22 21 17  6 26 23  3            -0.000328105
  -8914878.746 9  -6930700.668 9  21063230.359    21063231.128    21063235.955
      2576.095        2007.347
  -2484718.240 9  -1927458.70947  23398455.146    23398455.8144   23398462.1494
        64.898          50.570
  -9951060.839 9  -7738942.80347  23083462.986    23083463.9624   23083470.7504
      3168.889        2469.264
  -3344279.505 9  -2598568.61248  20514869.496    20514870.0154   20514875.3444
       843.330         657.140
   2982289.850 9   2322670.93848  21021785.965    21021786.7254   21021792.0954
     -1778.593       -1385.917
  -1901304.838 9  -1475314.98248  22117587.607    22117588.3304   22117592.7054
      -242.033        -188.597
  -5979630.889 9  -4647020.94148  20701958.482    20701959.0124   20701964.5004
      1443.802        1125.041
  -4541743.708 9  -2646351.27146  24731814.706    24731816.0354   24731821.6084
      4049.005        3155.069
 96 10  8 16 13 59.9990000  0  8 28 22 21 17  6 26 23  3            -0.000337453
  -8991960.913 9  -6990764.690 9  21048562.032    21048562.883    21048567.718
      2562.498        1996.752
  -2486431.879 9  -1928794.04647  23398129.589    23398129.7094   23398136.1254
        49.343          38.449
 -10046009.101 9  -7812928.44847  23065395.181    23065395.9214   23065402.6934
      3160.683        2462.870
  -3369480.456 9  -2618205.71848  20510073.964    20510074.4364   20510079.7864
       836.480         651.803
   3035859.898 9   2364413.81148  21031979.977    21031980.7584   21031986.1634
     -1792.802       -1396.989
  -1893732.407 9  -1469414.38548  22119028.536    22119029.2734   22119033.6634
      -262.872        -204.835
  -6022749.764 9  -4680620.05448  20693753.319    20693753.7874   20693759.2484
      1430.491        1114.668
  -4663187.588 9  -2740982.83946  24708704.311    24708705.9664   24708711.5294
      4047.024        3153.525
 96 10  8 16 14 29.9990000  0  8 28 22 21 17  6 26 23  3            -0.000346814
  -9068642.067 9  -7050516.238 9  21033970.120    21033970.954    21033975.789
      2549.103        1986.314
  -2487700.140 9  -1929782.35647  23397888.598    23397888.3244   23397894.8264
        34.786          27.106
 -10140708.603 9  -7886720.26847  23047374.489    23047375.2574   23047381.9904
      3152.134        2456.208
  -3394478.041 9  -2637684.36248  20505317.135    20505317.5914   20505322.9204
       829.523         646.382
   3089841.550 9   2406477.40748  21042252.401    21042253.1674   21042258.5794
     -1806.399       -1407.584
  -1885543.772 9  -1463033.63448  22120586.522    22120587.5104   22120591.8874
      -283.334        -220.780
  -6065468.332 9  -4713907.24548  20685624.141    20685624.6944   20685630.1944
      1416.859        1104.046
  -4784576.546 8  -2835571.60546  24685604.900    24685606.4294   24685612.0604
      4045.063        3151.997
 96 10  8 16 14 59.9990000  0  8 28 22 21 17  6 26 23  3            -0.000356209
  -9144909.831 9  -7109945.662 9  21019456.788    21019457.720    21019462.508
      2535.044        1975.359
  -2488525.471 9  -1930425.48947  23397731.412    23397731.2104   23397737.7704
        19.961          15.554
 -10235143.964 9  -7960306.25147  23029404.072    23029404.8234   23029411.5174
      3143.414        2449.414
  -3419257.833 9  -2656993.29448  20500601.652    20500602.1394   20500607.4724
       822.025         640.539
   3144233.228 9   2448860.51548  21052602.756    21052603.5544   21052609.0014
     -1820.120       -1418.275
  -1876737.846 9  -1456171.87548  22122262.203    22122263.2494   22122267.5864
      -303.868        -236.780
  -6107758.110 9  -4746860.31148  20677576.689    20677577.2104   20677582.7354
      1402.099        1092.545
  -4905882.300 8  -2930095.54145  24662521.847    24662522.5834   24662528.3554
      4041.547        3149.257
 96 10  8 16 15 29.9990000  0  8 28 22 21 17  6 26 23  3            -0.000365650
  -9220752.255 9  -7169043.655 9  21005024.481    21005025.368    21005030.187
      2521.212        1964.581
  -2488907.456 9  -1930723.17747  23397658.244    23397658.6144   23397665.1194
         5.378           4.191
 -10329333.463 9  -8033700.66447  23011480.307    23011481.2004   23011487.8524
      3136.275        2443.851
  -3443799.168 9  -2676116.42148  20495931.678    20495932.1074   20495937.4174
       814.228         634.463
   3199053.507 9   2491577.59248  21063034.750    21063035.5244   21063041.0074
     -1834.657       -1429.603
  -1867327.511 9  -1448839.14448  22124053.074    22124054.0144   22124058.3674
      -323.226        -251.864
  -6149605.340 9  -4779468.53348  20669613.456    20669613.9814   20669619.4684
      1387.943        1081.514
  -5027075.447 8  -3024531.72645  24639459.954    24639460.2324   24639465.9254
      4038.190        3146.642
 96 10  8 16 15 59.9990000  0  8 28 22 21 17  6 26 23  3            -0.000375123
  -9296160.612 9  -7227803.412 9  20990674.847    20990675.643    20990680.446
      2506.118        1952.819
  -2488826.142 9  -1930659.84247  23397673.305    23397674.0984   23397680.6414
       -10.809          -8.423
 -10423303.191 9  -8106923.82147  22993598.573    22993599.4344   22993605.9984
      3128.358        2437.682
  -3468096.371 9  -2695049.30848  20491308.108    20491308.4964   20491313.8434
       805.705         627.822
   3254337.971 9   2534656.37348  21073554.984    21073555.7984   21073561.2944
     -1850.806       -1442.186
  -1857334.860 9  -1441052.66848  22125954.597    22125955.5804   22125959.9394
      -342.832        -267.142
  -6191015.463 9  -4811736.15048  20661733.472    20661733.8834   20661739.3844
      1372.931        1069.816
  -5148166.543 8  -3118888.40345  24616417.741    24616417.3194   24616423.1104
      4034.756        3143.966
 96 10  8 16 16 29.9990000  0  8 28 22 21 17  6 26 23  3            -0.000384622
  -9371155.065 9  -7286240.649 9  20976403.916    20976404.685    20976409.499
      2492.851        1942.481
  -2488288.061 9  -1930240.60347  23397775.720    23397776.4884   23397783.0764
       -25.928         -20.204
 -10517071.879 9  -8179990.32647  22975755.472    22975755.8994   22975762.4294
      3122.279        2432.945
  -3492181.772 9  -2713817.15748  20486724.798    20486725.2014   20486730.5734
       799.417         622.922
   3310069.122 9   2578083.22048  21084160.258    21084161.0894   21084166.5614
     -1865.340       -1453.512
  -1846796.299 9  -1432840.81248  22127960.068    22127960.9864   22127965.3464
      -360.296        -280.750
  -6232017.816 9  -4843686.02648  20653930.838    20653931.3894   20653936.8744
      1359.979        1059.724
  -5269196.793 8  -3213197.64945  24593386.154    24593385.9644   24593391.8144
      4033.185        3142.742
 96 10  8 16 16 59.9990000  0  8 28 22 21 17  6 26 23  3            -0.000394125
  -9445741.463 9  -7344359.923 9  20962210.585    20962211.361    20962216.180
      2479.583        1932.143
  -2487274.101 9  -1929450.52847  23397969.295    23397969.5084   23397976.0634
       -41.528         -32.359
 -10610658.316 9  -8252914.81547  22957946.430    22957946.9684   22957953.5374
      3116.772        2428.653
  -3516067.698 9  -2732429.57148  20482179.482    20482179.8364   20482185.2084
       793.014         617.933
   3366252.306 9   2621862.29948  21094851.708    21094852.4214   21094857.8994
     -1880.183       -1465.078
  -1835727.060 9  -1424215.43548  22130066.510    22130067.3914   22130071.7884
      -377.807        -294.395
  -6272630.165 9  -4875332.00448  20646202.623    20646203.1334   20646208.6104
      1347.728        1050.178
  -5390161.965 8  -3307456.18945  24570367.220    24570366.9384   24570373.0004
      4031.183        3141.182
 96 10  8 16 17 29.9990000  0  8 28 22 21 17  6 26 23  3            -0.000403612
  -9519916.036 9  -7402158.293 9  20948095.641    20948096.394    20948101.214
      2464.842        1920.656
  -2485776.799 9  -1928283.82647  23398253.887    23398254.4714   23398261.0134
       -58.896         -45.893
 -10704055.280 9  -8325691.66647  22940173.760    22940174.0954   22940180.6744
      3109.044        2422.632
  -3539752.598 9  -2750885.33948  20477672.351    20477672.7454   20477678.0844
       785.484         612.065
   3422893.678 9   2665998.40748  21105630.346    21105630.9594   21105636.4284
     -1896.292       -1477.630
  -1824108.614 9  -1415162.11348  22132277.102    22132278.3024   22132282.6844
      -397.457        -309.707
  -6312873.559 9  -4906690.48448  20638544.461    20638545.0754   20638550.5484
      1334.579        1039.932
  -5511059.269 8  -3401661.85145  24547361.677    24547360.9914   24547367.2184
      4028.230        3138.881
 96 10  8 16 17 59.9990000  0  8 28 22 21 17  6 26 23  3            -0.000412946
  -9593655.529 9  -7459617.641 9  20934063.454    20934064.241    20934069.042
      2450.918        1909.806
  -2483773.061 9  -1926722.49947  23398635.497    23398635.8034   23398642.3864
       -74.737         -58.237
 -10797213.811 9  -8398282.72847  22922446.528    22922446.6234   22922453.1844
      3101.272        2416.575
  -3563229.070 9  -2769178.69948  20473204.832    20473205.3364   20473210.6624
       779.269         607.223
   3479994.754 9   2710492.72648  21116496.198    21116496.9454   21116502.4094
     -1910.512       -1488.711
  -1811900.269 9  -1405649.12948  22134600.319    22134601.4284   22134605.8214
      -416.734        -324.728
  -6352728.857 9  -4937746.55248  20630960.168    20630960.8574   20630966.3224
      1322.162        1030.256
  -5631886.202 8  -3495812.70045  24524368.646    24524368.3844   24524374.6544
      4026.491        3137.525
 96 10  8 16 18 29.9990000  0  8 28 22 21 17  6 26 23  3            -0.000422360
  -9666968.084 9  -7516744.308 9  20920112.557    20920113.300    20920118.125
      2436.775        1898.786
  -2481292.930 9  -1924789.96547  23399106.609    23399107.8384   23399114.3554
       -90.397         -70.439
 -10890128.602 9  -8470683.85647  22904765.518    22904765.5654   22904772.1164
      3093.339        2410.394
  -3586501.316 9  -2787312.92248  20468776.342    20468776.8144   20468782.1134
       772.377         601.852
   3537524.438 9   2755321.03548  21127443.583    21127444.4944   21127449.9974
     -1924.566       -1499.662
  -1799105.219 9  -1395678.97548  22137035.071    22137036.2144   22137040.6424
      -435.774        -339.564
  -6392204.393 9  -4968506.69848  20623448.270    20623448.9144   20623454.3714
      1309.747        1020.582
  -5752640.636 8  -3589907.01045  24501389.620    24501389.4774   24501395.8694
      4023.849        3135.467
 96 10  8 16 18 59.9990000  0  8 28 22 21 17  6 26 23  3            -0.000431778
  -9739859.464 9  -7573542.788 9  20906241.742    20906242.522    20906247.361
      2422.893        1887.969
  -2478351.996 9  -1922498.36047  23399667.112    23399667.5504   23399674.0204
      -105.286         -82.041
 -10982812.241 9  -8542904.86647  22887128.391    22887128.4584   22887135.0294
      3085.697        2404.439
  -3609563.476 9  -2805283.44348  20464387.766    20464388.2724   20464393.5294
       765.422         596.433
   3595464.320 9   2800468.96548  21138469.279    21138470.0904   21138475.6054
     -1937.763       -1509.945
  -1785755.236 9  -1385276.40648  22139575.294    22139576.6694   22139581.0534
      -454.107        -353.850
  -6431313.876 9  -4998981.61348  20616006.005    20616006.6204   20616012.0834
      1297.858        1011.318
  -5873318.471 8  -3683941.66945  24478424.575    24478425.0474   24478431.4784
      4021.618        3133.728
 96 10  8 16 19 29.9990000  0  8 28 22 21 17  6 26 23  3            -0.000441216
  -9812330.547 9  -7630013.766 9  20892450.898    20892451.741    20892456.589
      2408.124        1876.460
  -2474957.502 9  -1919853.32647  23400313.095    23400313.4714   23400319.9364
      -121.431         -94.621
 -11075254.018 9  -8614937.41347  22869536.943    22869537.3534   22869543.9674
      3076.898        2397.583
  -3632415.109 9  -2823089.91648  20460039.248    20460039.7274   20460045.0204
       757.558         590.305
   3653795.107 9   2845921.50348  21149569.313    21149570.1104   21149575.6214
     -1951.438       -1520.601
  -1771853.338 9  -1374443.76548  22142221.278    22142222.0914   22142226.5034
      -472.976        -368.553
  -6470062.818 9  -5029175.58748  20608632.336    20608632.9254   20608638.3924
      1284.989        1001.290
  -5993936.927 8  -3777930.06445  24455471.408    24455472.0664   24455478.5414
      4019.266        3131.896
 96 10  8 16 19 59.9990000  0  8 28 22 21 17  6 26 23  3            -0.000450669
  -9884354.597 9  -7686136.404 9  20878745.206    20878746.032    20878750.879
      2393.094        1864.749
  -2471080.920 9  -1916832.62947  23401050.924    23401051.2344   23401057.6964
      -137.522        -107.160
 -11167436.625 9  -8686768.00747  22851995.095    22851995.6084   22852002.1854
      3068.379        2390.945
  -3655019.385 9  -2840703.64048  20455737.778    20455738.2784   20455743.5854
       748.996         583.633
   3712542.245 9   2891698.46848  21160748.623    21160749.3574   21160754.8624
     -1965.472       -1531.537
  -1757394.495 9  -1363177.14448  22144972.589    22144973.4714   22144977.9264
      -491.284        -382.819
  -6508419.324 9  -5059063.76548  20601333.263    20601333.8874   20601339.3844
      1271.648         990.894
  -6114472.170 8  -3871853.58645  24432534.345    24432534.8794   24432541.3014
      4015.750        3129.156
 96 10  8 16 20 29.9990000  0  8 28 22 21 17  6 26 23  3            -0.000460139
  -9955936.091 9  -7741914.191 9  20865123.675    20865124.526    20865129.361
      2379.110        1853.852
  -2466726.036 9  -1913439.22647  23401879.433    23401879.9854   23401886.5074
      -152.734        -119.014
 -11259383.252 9  -8758414.71847  22834498.017    22834498.7514   22834505.3074
      3061.483        2385.571
  -3677375.203 9  -2858123.76448  20451483.578    20451484.1194   20451489.4364
       741.650         577.909
   3771703.794 9   2937798.35048  21172006.620    21172007.4464   21172012.9864
     -1978.561       -1541.736
  -1742397.667 9  -1351491.31948  22147826.414    22147827.2614   22147831.7834
      -508.413        -396.166
  -6546385.084 9  -5088647.46948  20594108.640    20594109.2164   20594114.7264
      1259.417         981.364
  -6234897.148 8  -3965691.19245  24409618.503    24409618.6404   24409625.4814
      4012.738        3126.809
 96 10  8 16 20 59.9990000  0  8 28 22 21 17  6 26 23  3            -0.000469612
 -10027075.489 9  -7797347.493 9  20851586.367    20851587.162    20851592.004
      2364.212        1842.243
  -2461895.152 9  -1909674.93147  23402799.038    23402799.3194   23402805.8354
      -168.485        -131.287
 -11351098.065 9  -8829880.80247  22817045.020    22817045.9824   22817052.5274
      3053.445        2379.308
  -3699499.959 9  -2875363.83448  20447273.384    20447273.9374   20447279.2444
       734.091         572.019
   3831283.349 9   2984223.94948  21183344.266    21183345.0884   21183350.6134
     -1992.738       -1552.783
  -1726848.882 9  -1339375.40048  22150784.921    22150786.1324   22150790.6304
      -527.619        -411.132
  -6583952.478 9  -5117920.75548  20586959.818    20586960.3854   20586965.8884
      1245.692         970.669
  -6355210.592 8  -4059441.90145  24386723.521    24386723.7824   24386730.5294
      4009.125        3123.994
 96 10  8 16 21 29.9990000  0  8 28 22 21 17  6 26 23  3            -0.000479097
 -10097778.016 9  -7852440.374 9  20838132.105    20838132.934    20838137.772
      2349.195        1830.542
  -2456614.953 9  -1905560.50547  23403804.042    23403804.1064   23403810.5684
      -183.564        -143.037
 -11442584.330 9  -8901168.78847  22799635.804    22799636.6824   22799643.2544
      3045.734        2373.299
  -3721412.132 9  -2892438.25848  20443103.649    20443104.2164   20443109.5074
       726.584         566.169
   3891282.901 9   3030976.82148  21194761.784    21194762.6364   21194768.2024
     -2007.380       -1564.192
  -1710733.565 9  -1326818.01548  22153851.492    22153852.8064   22153857.2534
      -546.678        -425.983
  -6621110.970 9  -5146875.41848  20579888.825    20579889.3634   20579894.8774
      1231.415         959.544
  -6475432.155 8  -4153121.01645  24363845.038    24363846.4664   24363853.0864
      4005.628        3121.269
 96 10  8 16 21 59.9990000  0  8 28 22 21 17  6 26 23  3            -0.000488595
 -10168040.472 9  -7907190.342 9  20824761.579    20824762.426    20824767.282
      2334.512        1819.100
  -2450898.110 9  -1901105.85847  23404891.360    23404892.0394   23404898.4864
      -198.000        -154.286
 -11533853.850 9  -8972287.88147  22782267.875    22782268.6524   22782275.1854
      3038.490        2367.655
  -3743114.103 9  -2909348.89148  20438973.966    20438974.4794   20438979.7644
       719.946         560.997
   3951712.227 9   3078064.57948  21206261.067    21206261.9674   21206267.5324
     -2021.619       -1575.288
  -1694057.225 9  -1313823.48548  22157025.041    22157026.2664   22157030.6714
      -565.547        -440.686
  -6657846.127 9  -5175500.20648  20572898.361    20572898.9254   20572904.4054
      1217.255         948.510
  -6595555.312 8  -4246723.43145  24340986.915    24340987.7944   24340994.2464
      4002.212        3118.607
 96 10  8 16 22 29.9990000  0  8 28 22 21 17  6 26 23  3            -0.000498097
 -10237853.695 9  -7961590.257 9  20811476.537    20811477.395    20811482.289
      2319.137        1807.120
  -2444744.215 9  -1896310.63047  23406062.967    23406063.1224   23406069.6084
      -212.797        -165.816
 -11624900.292 9  -9043233.15547  22764942.526    22764943.0634   22764949.5724
      3030.647        2361.543
  -3764616.786 9  -2926104.23248  20434882.136    20434882.6554   20434887.9244
       712.898         555.505
   4012576.126 9   3125490.97348  21217843.061    21217844.0064   21217849.5724
     -2036.501       -1586.884
  -1676803.073 9  -1300378.70348  22160308.358    22160309.6534   22160314.0294
      -585.287        -456.068
  -6694158.795 9  -5203795.78348  20565988.245    20565988.8454   20565994.3084
      1203.116         937.493
  -6715582.459 8  -4340251.04845  24318146.707    24318147.3154   24318153.9554
      3999.203        3116.262
 96 10  8 16 22 59.9990000  0  8 28 22 21 17  6 26 23  3            -0.000507604
 -10307215.790 9  -8015638.645 9  20798277.359    20798278.232    20798283.097
      2304.482        1795.700
  -2438150.615 9  -1891172.78147  23407318.025    23407317.8754   23407324.3894
      -227.313        -177.127
 -11715716.456 9  -9113998.98847  22747660.705    22747661.3194   22747667.8214
      3023.155        2355.705
  -3785911.976 9  -2942697.89048  20430829.829    20430830.3154   20430835.5824
       706.188         550.276
   4073873.655 9   3173255.25548  21229507.656    21229508.5724   21229514.1114
     -2050.402       -1597.716
  -1658965.788 9  -1286479.52948  22163702.852    22163703.9874   22163708.3984
      -604.164        -470.777
  -6730061.058 9  -5231771.56248  20559156.266    20559156.8914   20559162.3414
      1190.032         927.298
  -6835539.461 8  -4433724.03845  24295320.261    24295320.2744   24295326.9454
      3997.395        3114.853
 96 10  8 16 23 29.9990000  0  8 28 22 21 17  6 26 23  3            -0.000517122
 -10376124.121 9  -8069333.450 9  20785164.544    20785165.442    20785170.271
      2289.229        1783.815
  -2431103.913 9  -1885681.87247  23408658.978    23408658.8724   23408665.3494
      -242.807        -189.200
 -11806295.970 9  -9184580.40647  22730424.026    22730424.6074   22730431.1034
      3015.340        2349.616
  -3806986.865 9  -2959119.88648  20426819.449    20426819.8914   20426825.1514
       698.640         544.395
   4135592.262 9   3221347.65248  21241252.338    21241253.2514   21241258.8094
     -2064.310       -1608.553
  -1640562.481 9  -1272139.29848  22167204.442    22167206.0614   22167210.4664
      -622.920        -485.392
  -6765571.138 9  -5259441.74548  20552398.972    20552399.5584   20552405.0064
      1177.235         917.326
  -6955420.009 8  -4527137.40145  24272507.609    24272507.8074   24272514.3794
      3994.375        3112.500
 96 10  8 16 23 59.9990000  0  8 28 22 21 17  6 26 23  3            -0.000526622
 -10444575.713 9  -8122672.354 9  20772138.645    20772139.576    20772144.359
      2274.087        1772.016
  -2423577.345 9  -1879817.04647  23410091.482    23410091.1074   23410097.6114
      -258.932        -201.765
 -11896638.078 9  -9254976.84847  22713232.525    22713233.0814   22713239.5634
      3007.462        2343.477
  -3827843.231 9  -2975371.60648  20422850.539    20422851.0604   20422856.3254
       691.712         538.996
   4197721.850 9   3269760.29648  21253075.217    21253076.1294   21253081.7224
     -2077.772       -1619.043
  -1621588.667 9  -1257354.51948  22170815.260    22170816.6694   22170821.0774
      -642.040        -500.291
  -6800712.462 9  -5286824.58448  20545711.831    20545712.3724   20545717.8054
      1165.503         908.184
  -7075201.666 8  -4620473.73445  24249713.391    24249714.1404   24249720.6324
      3990.844        3109.749
 96 10  8 16 24 29.9990000  0  8 28 22 21 17  6 26 23  3            -0.000536092
 -10512563.795 9  -8175650.082 9  20759200.907    20759201.886    20759206.673
      2258.601        1759.949
  -2415565.748 9  -1873574.26647  23411616.054    23411615.5954   23411622.2204
      -274.953        -214.249
 -11986741.501 9  -9325187.29747  22696086.299    22696086.9744   22696093.4374
      2999.408        2337.201
  -3848477.746 9  -2991450.45148  20418923.961    20418924.4304   20418929.6904
       684.035         533.014
   4260266.048 9   3318496.00948  21264977.117    21264977.9284   21264983.5434
     -2091.586       -1629.807
  -1602034.260 9  -1242117.33348  22174536.572    22174537.7634   22174542.1484
      -661.401        -515.377
  -6835498.721 9  -5313930.75448  20539092.212    20539092.7724   20539098.2114
      1153.514         898.842
  -7194869.105 8  -4713721.07245  24226941.327    24226942.1034   24226948.6854
      3986.933        3106.701
 96 10  8 16 24 59.9990000  0  8 28 22 21 17  6 26 23  3            -0.000545543
 -10580091.664 9  -8228269.200 9  20746350.835    20746351.747    20746356.559
      2242.900        1747.714
  -2407082.550 9  -1866964.01947  23413230.286    23413229.9724   23413236.5194
      -290.818        -226.611
 -12076599.646 9  -9395206.61947  22678987.052    22678987.5494   22678994.0024
      2990.831        2330.518
  -3868890.663 9  -3007356.62448  20415039.448    20415039.9674   20415045.2524
       676.570         527.197
   4323210.115 9   3367543.30948  21276954.937    21276955.8084   21276961.4154
     -2105.130       -1640.361
  -1581902.347 9  -1226430.13048  22178367.263    22178368.7274   22178373.1244
      -680.940        -530.603
  -6869921.936 9  -5340754.02648  20532541.654    20532542.2344   20532547.6854
      1140.981         889.076
  -7314410.279 9  -4806870.00045  24204192.912    24204194.1294   24204200.6754
      3982.129        3102.958
 96 10  8 16 25 29.9990000  0  8 28 22 21 17  6 26 23  3            -0.000554974
 -10647155.542 9  -8280526.768 9  20733589.068    20733589.919    20733594.735
      2228.094        1736.177
  -2398143.307 9  -1859998.41347  23414930.871    23414931.0964   23414937.6304
      -304.941        -237.616
 -12166216.789 9  -9465038.14947  22661933.491    22661934.0144   22661940.4274
      2983.789        2325.030
  -3889091.567 9  -3023097.58948  20411195.341    20411195.8764   20411201.1754
       670.241         522.266
   4386557.385 9   3416904.80148  21289009.506    21289010.4344   21289015.9914
     -2118.022       -1650.407
  -1561194.511 9  -1210294.16548  22182308.087    22182309.3154   22182313.7334
      -699.554        -545.107
  -6903971.469 9  -5367286.12348  20526062.145    20526062.7864   20526068.2744
      1129.003         879.743
  -7433812.274 9  -4899910.49745  24181471.956    24181472.5264   24181479.2884
      3978.183        3099.883
 96 10  8 16 25 59.9990000  0  8 28 22 21 17  6 26 23  3            -0.000564396
 -10713765.799 9  -8332430.868 9  20720913.546    20720914.402    20720919.226
      2212.705        1724.186
  -2388777.754 9  -1852700.60647  23416714.031    23416713.2714   23416719.8594
      -319.079        -248.633
 -12255612.414 9  -9534697.06747  22644921.993    22644922.5804   22644928.9904
      2976.012        2318.970
  -3909091.709 9  -3038682.12048  20407389.419    20407389.9814   20407395.2654
       663.186         516.768
   4450307.437 9   3466580.13748  21301140.759    21301141.6894   21301147.2464
     -2131.805       -1661.147
  -1539917.989 9  -1193715.06748  22186356.474    22186358.0904   22186362.5634
      -718.520        -559.886
  -6937652.948 9  -5393531.42448  20519652.780    20519653.3834   20519658.8924
      1116.430         869.945
  -7553090.611 9  -4992854.63545  24158774.101    24158774.5504   24158781.4054
      3973.840        3096.499
 96 10  8 16 26 29.9990000  0  8 28 22 21 17  6 26 23  3            -0.000573831
 -10779915.149 9  -8383975.818 9  20708325.687    20708326.592    20708331.426
      2197.205        1712.108
  -2379003.138 9  -1845084.05247  23418572.837    23418573.4074   23418579.9224
      -332.706        -259.251
 -12344769.583 9  -9604170.17547  22627955.913    22627956.5204   22627962.9414
      2967.614        2312.426
  -3928877.649 9  -3054099.73748  20403624.258    20403624.8094   20403630.1204
       655.879         511.075
   4514463.390 9   3516571.76648  21313349.343    21313350.1954   21313355.7474
     -2145.222       -1671.601
  -1518083.224 9  -1176700.97448  22190511.386    22190513.0414   22190517.6094
      -737.101        -574.364
  -6970947.871 9  -5419475.51048  20513316.940    20513317.5604   20513323.0584
      1103.177         859.618
  -7672236.465 9  -5085695.53245  24136101.608    24136101.9554   24136108.7454
      3969.318        3092.975
 96 10  8 16 26 59.9990000  0  8 28 22 21 17  6 26 23  3            -0.000583271
 -10845589.173 9  -8435150.383 9  20695828.392    20695829.230    20695834.076
      2181.396        1699.789
  -2368804.177 9  -1837136.85147  23420513.921    23420514.1774   23420520.7024
      -346.887        -270.302
 -12433659.168 9  -9673434.76747  22611040.797    22611041.3534   22611047.7874
      2958.953        2305.678
  -3948435.425 9  -3069339.55948  20399902.595    20399903.1114   20399908.3994
       648.336         505.197
   4579025.333 9   3566879.75248  21325635.006    21325635.9414   21325641.4694
     -2158.603       -1682.028
  -1495682.185 9  -1159245.62648  22194774.115    22194775.8434   22194780.3984
      -755.849        -588.973
  -7003835.832 9  -5445102.48948  20507058.591    20507059.1954   20507064.6854
      1089.903         849.275
  -7791241.826 9  -5178426.96346  24113455.847    24113456.0124   24113462.7384
      3964.646        3089.334
 96 10  8 16 27 29.9990000  0  8 28 22 21 17  6 26 23  3            -0.000592725
 -10910799.117 9  -8485963.330 9  20683419.570    20683420.183    20683425.060
      2166.033        1687.818
  -2358186.144 9  -1828863.09647  23422533.995    23422534.6764   23422541.3174
      -360.913        -281.231
 -12522307.040 9  -9742511.02547  22594171.533    22594172.1924   22594178.6224
      2951.009        2299.488
  -3967775.166 9  -3084409.49048  20396222.366    20396222.8754   20396228.1684
       641.031         499.505
   4643980.075 9   3617493.81148  21337995.389    21337996.4274   21338001.9904
     -2171.501       -1692.079
  -1472739.549 9  -1141368.26248  22199140.951    22199141.6814   22199146.2384
      -773.548        -602.765
  -7036342.868 9  -5470432.63948  20500872.754    20500873.3074   20500878.7984
      1077.441         839.564
  -7910116.759 9  -5271056.76646  24090834.820    24090834.9174   24090841.4414
      3960.410        3086.034
 96 10  8 16 27 59.9990000  0  8 28 22 21 17  6 26 23  3            -0.000602188
 -10975537.584 9  -8536408.895 9  20671100.180    20671100.867    20671105.733
      2149.671        1675.068
  -2347134.005 9  -1820251.07447  23424637.483    23424637.8414   23424644.5014
      -376.119        -293.080
 -12610704.624 9  -9811392.24347  22577350.117    22577350.6844   22577357.1314
      2942.080        2292.530
  -3986888.304 9  -3099302.85148  20392585.243    20392585.7534   20392591.0374
       633.021         493.263
   4709323.437 9   3668410.69448  21350429.698    21350430.8804   21350436.4474
     -2184.837       -1702.470
  -1449258.798 9  -1123071.58348  22203608.463    22203609.9364   22203614.4554
      -792.030        -617.166
  -7068473.450 9  -5495469.44648  20494758.517    20494759.0804   20494764.5724
      1064.257         829.291
  -8028852.349 9  -5363577.97246  24068240.050    24068240.3754   24068246.7484
      3955.092        3081.890
 96 10  8 16 28 29.9990000  0  8 28 22 21 17  6 26 23  3            -0.000611657
 -11039798.053 9  -8586481.990 9  20658871.827    20658872.512    20658877.386
      2134.480        1663.231
  -2335637.757 9  -1811292.99847  23426826.094    23426825.5624   23426832.1844
      -390.111        -303.983
 -12698854.941 9  -9880080.77747  22560575.684    22560576.2304   22560582.7044
      2934.935        2286.962
  -4005778.197 9  -3114022.24948  20388990.668    20388991.1304   20388996.3794
       626.362         488.074
   4775049.584 9   3719625.84848  21362937.091    21362938.2044   21362943.7714
     -2196.891       -1711.863
  -1425235.661 9  -1104352.26248  22208180.298    22208181.4354   22208185.8994
      -809.423        -630.719
  -7100213.058 9  -5520201.60048  20488718.674    20488719.2214   20488724.7184
      1051.930         819.686
  -8147454.096 9  -5455994.90746  24045671.124    24045671.2894   24045677.6624
      3951.846        3079.361
 96 10  8 16 28 59.9990000  0  8 28 22 21 17  6 26 23  3            -0.000621137
 -11103576.593 9  -8636179.559 9  20646735.278    20646735.858    20646740.754
      2117.598        1650.076
  -2323697.740 9  -1801989.11147  23429099.108    23429097.6754   23429104.3474
      -405.663        -316.101
 -12786776.157 9  -9948590.79947  22543844.896    22543845.3974   22543851.8554
      2926.694        2280.541
  -4024437.902 9  -3128562.28348  20385439.814    20385440.3204   20385445.5594
       617.708         481.331
   4841165.822 9   3771144.97348  21375518.691    21375519.7554   21375525.3304
     -2210.738       -1722.653
  -1400663.487 9  -1085205.12148  22212856.405    22212857.3724   22212861.8114
      -828.519        -645.599
  -7131561.880 9  -5544629.24348  20482753.192    20482753.7494   20482759.2104
      1038.333         809.091
  -8265937.718 9  -5548319.78646  24023124.454    24023124.6964   24023131.0674
      3947.065        3075.635
 96 10  8 16 29 29.9990000  0  8 28 22 21 17  6 26 23  3            -0.000630636
 -11166884.545 9  -8685510.435 9  20634688.118    20634688.757    20634693.657
      2102.214        1638.089
  -2311332.064 9  -1792353.56047  23431451.516    23431450.7874   23431457.4724
      -419.314        -326.738
 -12874485.815 9 -10016935.96348  22527154.343    22527154.7994   22527161.2644
      2919.797        2275.166
  -4042867.259 9  -3142922.82448  20381932.892    20381933.3304   20381938.5604
       610.210         475.488
   4907669.398 9   3822965.92448  21388174.006    21388174.9824   21388180.5894
     -2223.514       -1732.608
  -1375558.634 9  -1065642.91048  22217633.507    22217634.7444   22217639.1404
      -845.893        -659.137
  -7162543.916 9  -5568771.08748  20476857.484    20476858.0684   20476863.5254
      1026.337         799.743
  -8384311.513 9  -5640559.07946  24000598.241    24000598.8764   24000605.1854
      3943.847        3073.128
 96 10  8 16 29 59.9990000  0  8 28 22 21 17  6 26 23  3            -0.000640144
 -11229704.874 9  -8734461.348 9  20622733.755    20622734.450    20622739.342
      2085.721        1625.237
  -2298535.235 9  -1782382.05847  23433885.863    23433886.0514   23433892.7134
      -433.757        -337.992
 -12961964.457 9 -10085101.11848  22510507.651    22510508.1384   22510514.6484
      2912.030        2269.114
  -4061044.106 9  -3157086.60348  20378473.972    20378474.4234   20378479.6644
       601.490         468.694
   4974583.770 9   3875106.96748  21400907.431    21400908.3724   21400914.0364
     -2237.451       -1743.468
  -1349901.619 9  -1045650.44448  22222515.817    22222517.1534   22222521.5484
      -864.647        -673.751
  -7193135.360 9  -5592608.56948  20471036.096    20471036.7164   20471042.1444
      1013.046         789.386
  -8502566.386 9  -5732705.71346  23978094.908    23978095.6954   23978101.9834
      3939.726        3069.916
 96 10  8 16 30 29.9990000  0  8 28 22 21 17  6 26 23  3            -0.000649669
 -11292047.633 9  -8783040.124 9  20610870.285    20610871.047    20610875.917
      2070.199        1613.142
  -2285330.840 9  -1772092.93847  23436399.175    23436398.7574   23436405.4884
      -446.803        -348.158
 -13049225.091 9 -10153096.38948  22493902.444    22493902.9534   22493909.4954
      2905.023        2263.654
  -4078970.212 9  -3171054.99948  20375062.726    20375063.2094   20375068.4564
       593.380         462.374
   5041896.981 9   3927558.79348  21413716.725    21413717.6474   21413723.3524
     -2250.348       -1753.518
  -1323704.704 9  -1025237.27048  22227500.873    22227502.2614   22227506.6554
      -882.042        -687.305
  -7223350.788 9  -5616153.05248  20465286.328    20465286.9094   20465292.3054
      1001.215         780.168
  -8620709.409 9  -5824765.19946  23955612.665    23955613.7974   23955619.9254
      3936.161        3067.138
 96 10  8 16 30 59.9990000  0  8 28 22 21 17  6 26 23  3            -0.000659200
 -11353903.893 9  -8831239.810 9  20599099.464    20599100.206    20599105.047
      2053.598        1600.206
  -2271709.110 9  -1761478.65647  23438990.985    23438990.9104   23438997.7194
      -461.442        -359.565
 -13136243.821 9 -10220903.17248  22477343.275    22477343.8194   22477350.3614
      2896.247        2256.816
  -4096630.794 9  -3184816.48948  20371701.974    20371702.5064   20371707.7664
       584.172         455.199
   5109615.334 9   3980326.32248  21426602.893    21426603.9664   21426609.7344
     -2264.099       -1764.233
  -1296964.968 9  -1004401.13048  22232589.460    22232590.6704   22232595.0664
      -900.467        -701.663
  -7253201.337 9  -5639413.21448  20459605.982    20459606.5444   20459611.9194
       988.856         770.537
  -8738713.025 9  -5916716.04146  23933156.922    23933158.3784   23933164.6024
      3930.671        3062.861
 96 10  8 16 31 29.9990000  0  8 28 22 21 17  6 26 23  3            -0.000668725
 -11415273.322 9  -8879060.148 9  20587421.220    20587422.000    20587426.847
      2037.146        1587.386
  -2257661.955 9  -1750532.86547  23441664.200    23441664.1234   23441670.7924
      -475.598        -370.596
 -13223011.312 9 -10288514.16948  22460831.916    22460832.4954   22460839.0214
      2887.656        2250.122
  -4114031.197 9  -3198375.24948  20368390.836    20368391.3194   20368396.5674
       575.625         448.539
   5177736.338 9   4033407.60148  21439565.874    21439566.9364   21439572.7534
     -2277.765       -1774.882
  -1269685.374 9   -983144.31648  22237780.315    22237781.8394   22237786.1924
      -918.735        -715.897
  -7282687.250 9  -5662389.24148  20453994.989    20453995.5594   20454000.9504
       976.175         760.656
  -8856557.521 9  -6008542.89646  23910731.991    23910733.2824   23910739.5044
      3925.129        3058.542
 96 10  8 16 31 59.9990000  0  8 28 22 21 17  6 26 23  3            -0.000678235
 -11476142.769 9  -8926490.891 9  20575838.100    20575838.943    20575843.791
      2021.082        1574.869
  -2243182.407 9  -1739250.13447  23444421.400    23444419.4784   23444426.1484
      -489.467        -381.403
 -13309514.374 9 -10355919.12848  22444370.730    22444371.4974   22444377.9604
      2879.488        2243.757
  -4131187.311 9  -3211743.65848  20365126.126    20365126.6314   20365131.8454
       568.451         442.949
   5246262.378 9   4086804.49048  21452606.035    21452607.0374   21452612.8774
     -2290.276       -1784.631
  -1241850.073 9   -961454.48548  22243076.998    22243078.7194   22243083.0984
      -936.624        -729.837
  -7311784.248 9  -5685062.22048  20448458.028    20448458.5964   20448463.9934
       963.955         751.134
  -8974234.534 9  -6100239.25946  23888339.007    23888340.0774   23888346.2854
      3920.166        3054.675
 96 10  8 16 32 29.9990000  0  8 28 22 21 17  6 26 23  3            -0.000687740
 -11536521.358 9  -8973539.146 9  20564348.524    20564349.297    20564354.134
      2004.387        1561.860
  -2228273.470 9  -1727632.81547  23447258.247    23447256.5354   23447263.2454
      -504.351        -393.001
 -13395756.610 9 -10423120.84848  22427959.299    22427960.1804   22427966.5864
      2870.209        2236.526
  -4148120.868 9  -3224938.64248  20361903.766    20361904.2784   20361909.4934
       560.777         436.969
   5315174.962 9   4140502.58148  21465719.844    21465720.7144   21465726.5264
     -2303.652       -1795.053
  -1213469.452 9   -939339.71948  22248477.495    22248479.3074   22248483.7924
      -955.123        -744.252
  -7340502.713 9  -5707440.23848  20442993.092    20442993.6474   20442999.0444
       950.741         740.837
  -9091746.738 9  -6191807.16946  23865977.243    23865978.2804   23865984.4594
      3914.194        3050.021
 96 10  8 16 32 59.9990000  0  8 28 22 21 17  6 26 23  3            -0.000697227
 -11596400.011 9  -9020197.840 9  20552954.092    20552954.775    20552959.601
      1987.694        1548.852
  -2212919.500 9  -1715668.73947  23450179.274    23450178.2774   23450184.9974
      -519.005        -404.419
 -13481720.961 9 -10490106.02048  22411600.838    22411601.6924   22411608.0644
      2861.020        2229.366
  -4164837.778 9  -3237964.80948  20358722.674    20358723.1664   20358728.3794
       553.875         431.591
   5384485.766 9   4194510.97148  21478909.323    21478910.1664   21478915.9084
     -2316.872       -1805.355
  -1184538.012 9   -916795.75748  22253983.111    22253984.7134   22253989.2674
      -973.358        -758.461
  -7368822.831 9  -5729507.85848  20437604.009    20437604.4994   20437609.9154
       937.415         730.453
  -9209083.150 9  -6283238.12046  23843649.196    23843649.8424   23843656.0374
      3908.290        3045.421
 96 10  8 16 33 29.9990000  0  8 28 22 21 17  6 26 23  3            -0.000706710
 -11655787.275 9  -9066473.634 9  20541653.022    20541653.746    20541658.579
      1971.361        1536.125
  -2197141.953 9  -1703374.58747  23453180.603    23453180.6514   23453187.4084
      -532.850        -415.208
 -13567425.089 9 -10556888.42948  22395291.952    22395292.7334   22395299.0564
      2852.529        2222.750
  -4181364.607 9  -3250842.86748  20355577.758    20355578.2554   20355583.4014
       547.851         426.897
   5454180.963 9   4248818.89148  21492172.027    21492172.7824   21492178.4604
     -2329.400       -1815.117
  -1155070.076 9   -893833.73848  22259590.846    22259592.2514   22259596.8514
      -991.173        -772.343
  -7396748.032 9  -5751267.74948  20432289.964    20432290.5384   20432295.9224
       924.254         720.198
  -9326258.492 9  -6374543.55446  23821351.577    23821352.0804   23821358.2214
      3903.349        3041.571
 96 10  8 16 33 59.9990000  0  8 28 22 21 17  6 26 23  3            -0.000716204
 -11714686.240 9  -9112368.938 9  20530444.888    20530445.648    20530450.499
      1954.685        1523.131
  -2180951.711 9  -1690758.85347  23456261.458    23456261.5474   23456268.3604
      -547.124        -426.330
 -13652878.061 9 -10623475.13648  22379030.955    22379031.5654   22379037.8904
      2843.997        2216.102
  -4197710.831 9  -3263580.19248  20352467.137    20352467.6674   20352472.8234
       541.058         421.604
   5524236.615 9   4303407.68848  21505503.256    21505504.0144   21505509.6334
     -2341.576       -1824.605
  -1125078.538 9   -870463.72348  22265298.019    22265299.3944   22265304.0434
     -1008.850        -786.117
  -7424288.985 9  -5772728.22848  20427049.177    20427049.6804   20427055.0534
       911.254         710.068
  -9443292.692 9  -6465739.01446  23799080.852    23799081.3074   23799087.2984
      3898.197        3037.556
 96 10  8 16 34 29.9990000  0  8 28 22 21 17  6 26 23  3            -0.000725701
 -11773084.054 9  -9157873.727 9  20519332.198    20519332.915    20519337.800
      1937.499        1509.739
  -2164333.957 9  -1677810.00547  23459423.753    23459423.8354   23459430.6794
      -561.665        -437.661
 -13738081.482 9 -10689867.38648  22362816.973    22362817.8744   22362824.2134
      2835.250        2209.286
  -4213836.016 9  -3276145.27748  20349398.677    20349399.1674   20349404.3084
       533.033         415.350
   5594664.058 9   4358286.18648  21518905.355    21518905.9264   21518911.5404
     -2354.506       -1834.680
  -1094554.093 9   -846678.45147  22271106.548    22271107.9714   22271112.7054
     -1026.996        -800.257
  -7451437.237 9  -5793882.70348  20421882.895    20421883.5294   20421888.8894
       897.739         699.537
  -9560163.950 9  -6556807.49846  23776840.709    23776841.4634   23776847.4584
      3892.225        3032.903
 96 10  8 16 34 59.9990000  0  8 28 22 21 17  6 26 23  3            -0.000735202
 -11830968.854 9  -9202978.774 9  20508317.008    20508317.791    20508322.702
      1921.422        1497.212
  -2147295.041 9  -1664532.97247  23462666.372    23462666.2994   23462673.0834
      -574.318        -447.521
 -13823031.050 9 -10756061.83648  22346651.694    22346652.4864   22346658.8354
      2828.064        2203.686
  -4229728.189 9  -3288528.79948  20346374.542    20346374.9944   20346380.1404
       526.253         410.067
   5665469.736 9   4413459.41248  21532379.300    21532379.8174   21532385.4384
     -2365.945       -1843.594
  -1063492.693 9   -822474.77748  22277017.587    22277018.7464   22277023.5344
     -1043.908        -813.435
  -7478194.016 9  -5814732.13948  20416791.265    20416791.8884   20416797.2534
       886.005         690.394
  -9676869.588 9  -6647746.93046  23754632.015    23754633.0734   23754639.0724
      3887.877        3029.515
 96 10  8 16 35 29.9990000  0  8 28 22 21 17  6 26 23  3            -0.000744714
 -11888341.238 9  -9247684.532 9  20497399.461    20497400.198    20497405.097
      1903.708        1483.409
  -2129843.549 9  -1650934.45747  23465988.136    23465987.2824   23465994.0514
      -588.823        -458.823
 -13907743.352 9 -10822071.40248  22330531.462    22330532.2724   22330538.6154
      2819.550        2197.052
  -4245373.872 9  -3300720.24548  20343397.254    20343397.7184   20343402.8604
       517.027         402.878
   5736642.577 9   4468918.74248  21545923.013    21545923.5454   21545929.2184
     -2378.606       -1853.459
  -1031890.154 9   -797849.42948  22283031.306    22283032.5394   22283037.3054
     -1062.552        -827.963
  -7504568.911 9  -5835283.99848  20411772.293    20411772.9114   20411778.2824
       872.702         680.028
  -9793421.046 9  -6738566.23046  23732452.927    23732454.0134   23732460.0084
      3882.377        3025.229
 96 10  8 16 35 59.9990000  0  8 28 22 21 17  6 26 23  3            -0.000754238
 -11945207.151 9  -9291995.636 9  20486578.325    20486578.972    20486583.878
      1887.279        1470.607
  -2111977.704 9  -1637013.05547  23469387.538    23469387.0324   23469393.8474
      -602.201        -469.248
 -13992221.286 9 -10887898.34148  22314455.868    22314456.6384   22314462.9724
      2812.188        2191.315
  -4260760.931 9  -3312710.16748  20340469.188    20340469.6754   20340474.8144
       508.724         396.408
   5808174.408 9   4524657.80748  21559534.975    21559535.6304   21559541.3194
     -2390.316       -1862.584
   -999755.879 9   -772809.74748  22289146.036    22289147.5544   22289152.2794
     -1079.745        -841.360
  -7530577.904 9  -5855550.73848  20406822.945    20406823.5594   20406828.9314
       861.145         671.022
  -9909821.606 9  -6829267.94046  23710302.887    23710303.6694   23710309.7074
      3877.627        3021.528
 96 10  8 16 36 29.9990000  0  8 28 22 21 17  6 26 23  3            -0.000763767
 -12001569.308 9  -9335914.203 9  20475852.922    20475853.619    20475858.529
      1870.254        1457.341
  -2093703.502 9  -1622773.45147  23472864.447    23472864.5944   23472871.4024
      -615.996        -479.997
 -14076461.647 9 -10953540.15648  22298425.499    22298426.2234   22298432.5254
      2803.812        2184.789
  -4275888.513 9  -3324497.90248  20337590.573    20337591.0294   20337596.1524
       500.078         389.671
   5880072.263 9   4580682.08148  21573216.644    21573217.3414   21573223.0534
     -2402.718       -1872.248
   -967093.409 9   -747358.48548  22295361.148    22295363.0604   22295367.7394
     -1097.421        -855.133
  -7556235.553 9  -5875543.70748  20401940.472    20401941.0664   20401946.4244
       849.564         661.998
 -10026065.838 9  -6919847.83246  23688182.337    23688183.0724   23688189.1754
      3872.167        3017.273
 96 10  8 16 36 59.9990000  0  8 28 22 21 17  6 26 23  3            -0.000773288
 -12057417.689 9  -9379432.428 9  20465225.305    20465226.051    20465230.934
      1853.139        1444.004
  -2075014.306 9  -1608210.48547  23476421.601    23476421.0974   23476427.9124
      -629.903        -490.834
 -14160445.395 9 -11018982.01848  22282443.842    22282444.6704   22282450.9504
      2795.332        2178.181
  -4290763.479 9  -3336088.78648  20334759.977    20334760.4104   20334765.5414
       491.668         383.118
   5952337.859 9   4636992.90048  21586968.475    21586969.0534   21586974.7694
     -2414.837       -1881.691
   -933907.662 9   -721499.47948  22301676.421    22301678.1334   22301682.7744
     -1114.703        -868.600
  -7581555.514 9  -5895273.54048  20397122.193    20397122.7914   20397128.1754
       838.533         653.402
 -10142152.885 9  -7010305.24946  23666091.868    23666092.4354   23666098.5314
      3866.961        3013.216
 96 10  8 16 37 29.9990000  0  8 28 22 21 17  6 26 23  3            -0.000782810
 -12112756.890 9  -9422553.887 9  20454694.609    20454695.370    20454700.250
      1835.963        1430.620
  -2055905.066 9  -1593320.21947  23480058.228    23480057.5574   23480064.3004
      -644.027        -501.839
 -14244177.833 9 -11084228.04948  22266510.145    22266510.8754   22266517.2014
      2786.688        2171.445
  -4305387.803 9  -3347484.36848  20331977.037    20331977.5204   20331982.6384
       483.366         376.649
   6024961.937 9   4693583.06048  21600788.358    21600789.0014   21600794.7374
     -2426.837       -1891.042
   -900215.270 9   -695245.68648  22308087.965    22308089.6194   22308094.2524
     -1131.514        -881.699
  -7606542.175 9  -5914743.66148  20392367.411    20392367.9934   20392373.3624
       827.079         644.477
 -10258083.580 9  -7100640.83346  23644031.288    23644031.5224   23644037.6704
      3861.489        3008.952
 96 10  8 16 37 59.9990000  0  8 28 22 21 17  6 26 23  3            -0.000792331
 -12167574.015 9  -9465268.537 9  20444263.213    20444264.023    20444268.897
      1818.521        1417.029
  -2036379.504 9  -1578105.53347  23483772.985    23483773.1744   23483779.9084
      -657.415        -512.271
 -14327643.404 9 -11149266.13848  22250627.103    22250627.8964   22250634.2084
      2777.829        2164.542
  -4319765.719 9  -3358687.94748  20329241.025    20329241.5014   20329246.6004
       475.212         370.295
   6097951.976 9   4750458.38548  21614677.684    21614678.5614   21614684.3034
     -2439.118       -1900.611
   -866016.139 9   -668597.02947  22314596.125    22314597.4724   22314602.1574
     -1148.487        -894.925
  -7631179.005 9  -5933941.18548  20387679.168    20387679.7594   20387685.1454
       815.196         635.218
 -10373836.462 9  -7190837.85846  23622004.278    23622004.4854   23622010.6184
      3855.383        3004.195
 96 10  8 16 38 29.9990000  0  8 28 22 21 17  6 26 23  3            -0.000801860
 -12221869.873 9  -9507577.001 9  20433931.172    20433931.885    20433936.757
      1801.123        1403.472
  -2016463.664 9  -1562586.73847  23487562.275    23487563.1004   23487569.8084
      -670.348        -522.349
 -14410850.661 9 -11214102.94348  22234793.443    22234794.0604   22234800.3704
      2769.335        2157.923
  -4333907.109 9  -3369707.22048  20326549.981    20326550.5034   20326555.5994
       467.531         364.310
   6171308.208 9   4807619.05248  21628636.838    21628637.8094   21628643.5324
     -2451.341       -1910.136
   -831307.872 9   -641551.64747  22321200.724    22321202.2604   22321206.9484
     -1165.343        -908.059
  -7655450.792 9  -5952854.26348  20383060.334    20383060.9714   20383066.3644
       802.786         625.548
 -10489406.545 9  -7280892.45146  23600012.031    23600012.2414   23600018.3564
      3849.214        2999.388
 96 10  8 16 38 59.9990000  0  8 28 22 21 17  6 26 23  3            -0.000811401
 -12275642.503 9  -9549477.752 9  20423698.621    20423699.288    20423704.164
      1783.520        1389.756
  -1996165.835 9  -1546770.28847  23491424.795    23491425.6414   23491432.4054
      -682.984        -532.195
 -14493805.001 9 -11278742.66648  22219007.745    22219008.3144   22219014.6304
      2760.810        2151.281
  -4347823.813 9  -3380551.40848  20323901.747    20323902.2464   20323907.3474
       460.040         358.473
   6245034.122 9   4865067.78248  21642666.604    21642667.3864   21642673.1104
     -2463.866       -1919.896
   -796090.740 9   -614109.74347  22327902.537    22327903.8684   22327908.5204
     -1182.718        -921.598
  -7679332.024 9  -5971463.00848  20378515.806    20378516.5364   20378521.9164
       789.009         614.812
 -10604791.806 9  -7370803.01946  23578054.782    23578055.1874   23578061.2274
      3842.825        2994.409
 96 10  8 16 39 29.9990000  0  8 28 22 21 17  6 26 23  3            -0.000820958
 -12328884.958 9  -9590965.385 9  20413566.848    20413567.578    20413572.446
      1765.983        1376.091
  -1975500.891 9  -1530667.77647  23495357.813    23495358.0694   23495364.8544
      -694.648        -541.284
 -14576508.604 9 -11343187.01648  22203269.805    22203270.3464   22203276.6064
      2752.752        2145.002
  -4361518.460 9  -3391222.56548  20321295.749    20321296.2354   20321301.3504
       452.930         352.932
   6319132.002 9   4922806.35448  21656766.916    21656767.7464   21656773.4684
     -2475.996       -1929.348
   -760341.602 9   -586253.28947  22334705.248    22334706.7084   22334711.3284
     -1200.748        -935.648
  -7702785.247 9  -5989738.24148  20374052.929    20374053.5584   20374058.9134
       774.726         603.683
 -10719972.283 9  -7460554.01446  23556136.501    23556137.1084   23556143.1614
      3835.923        2989.031
 96 10  8 16 39 59.9990000  0  8 28 22 21 17  6 26 23  3            -0.000830523
 -12381599.588 9  -9632041.725 9  20403535.402    20403536.298    20403541.183
      1748.372        1362.368
  -1954480.190 9  -1514288.05446  23499357.599    23499358.1984   23499365.0284
      -706.903        -550.834
 -14658966.396 9 -11407439.81648  22187578.551    22187579.1154   22187585.3824
      2744.461        2138.541
  -4374993.388 9  -3401722.51548  20318731.531    20318732.0494   20318737.1764
       445.305         346.991
   6393599.658 9   4980833.06748  21670937.463    21670938.4724   21670944.2364
     -2488.471       -1939.068
   -724040.856 9   -557967.00847  22341613.415    22341614.4974   22341619.1474
     -1219.170        -950.003
  -7725815.613 9  -6007683.98048  20369670.352    20369671.0334   20369676.3864
       760.780         592.816
 -10834939.952 9  -7550139.18546  23534258.796    23534259.5054   23534265.5204
      3828.747        2983.439
 96 10  8 16 40 29.9990000  0  8 28 22 21 17  6 26 23  3            -0.000840084
 -12433787.761 9  -9672707.840 9  20393604.413    20393605.221    20393610.128
      1730.963        1348.802
  -1933081.516 9  -1497613.81246  23503429.763    23503430.1964   23503437.0954
      -719.666        -560.779
 -14741181.217 9 -11471503.29548  22171933.579    22171934.1204   22171940.3904
      2736.650        2132.455
  -4388243.889 9  -3412047.58948  20316210.028    20316210.5684   20316215.7134
       438.149         341.415
   6468443.613 9   5039152.99948  21685179.936    21685180.8084   21685186.6374
     -2500.814       -1948.686
   -687189.174 9   -529251.42247  22348625.799    22348627.1344   22348631.8424
     -1237.321        -964.146
  -7748436.097 9  -6025310.32748  20365365.810    20365366.5104   20365371.8354
       747.565         582.518
 -10949697.097 9  -7639560.30946  23512421.179    23512421.9564   23512427.9824
      3821.976        2978.163
 96 10  8 16 40 59.9990000  0  8 28 22 21 17  6 26 23  3            -0.000849633
 -12485444.961 9  -9712960.208 9  20383774.462    20383775.203    20383780.088
      1712.978        1334.788
  -1911291.883 9  -1480634.92947  23507576.333    23507576.6904   23507583.5374
      -732.947        -571.128
 -14823148.978 9 -11535374.25848  22156335.670    22156336.1794   22156342.4244
      2728.075        2125.773
  -4401267.660 9  -3422195.98448  20313731.750    20313732.2334   20313737.3854
       430.096         335.140
   6543658.663 9   5097762.09048  21699492.830    21699493.8054   21699499.6224
     -2513.237       -1958.366
   -649786.904 9   -500106.82247  22355743.080    22355744.5294   22355749.2664
     -1256.049        -978.739
  -7770662.651 9  -6042629.71848  20361136.195    20361136.9044   20361142.2474
       734.564         572.388
 -11064248.630 9  -7728821.22746  23490622.670    23490623.4874   23490629.5024
      3814.785        2972.560
 96 10  8 16 41 29.9990000  0  8 28 22 21 17  6 26 23  3            -0.000859163
 -12536573.202 9  -9752800.400 9  20374045.037    20374045.843    20374050.730
      1694.766        1320.597
  -1889102.486 9  -1463344.53247  23511798.637    23511799.2584   23511806.1204
      -747.300        -582.312
 -14904872.043 9 -11599054.54748  22140784.242    22140784.7354   22140791.0134
      2719.304        2118.938
  -4414049.076 9  -3432155.53548  20311299.546    20311299.9904   20311305.1694
       421.039         328.082
   6619225.673 9   5156645.44148  21713872.845    21713873.7564   21713879.6194
     -2525.448       -1967.882
   -611839.045 9   -470537.07947  22362964.288    22362965.7304   22362970.5194
     -1274.501        -993.118
  -7792534.245 9  -6059672.51848  20356974.202    20356974.8654   20356980.2394
       722.957         563.343
 -11178590.568 9  -7817918.81046  23468864.092    23468864.8654   23468870.9264
      3807.298        2966.726
 96 10  8 16 41 59.9990000  0  8 28 22 21 17  6 26 23  3            -0.000868653
 -12587156.447 9  -9792215.924 9  20364419.432    20364420.167    20364425.076
      1677.428        1307.087
  -1866470.761 9  -1445709.47546  23516105.217    23516105.8994   23516112.8474
      -761.324        -593.239
 -14986327.145 9 -11662526.03348  22125283.548    22125284.3174   22125290.6444
      2711.051        2112.507
  -4426552.207 9  -3441898.24448  20308920.280    20308920.7554   20308925.9234
       412.575         321.487
   6695162.519 9   5215816.96948  21728323.187    21728324.0974   21728329.9834
     -2536.893       -1976.800
   -573360.383 9   -440553.72247  22370286.762    22370288.0174   22370292.7654
     -1290.724       -1005.759
  -7814073.079 9  -6076456.02548  20352875.523    20352876.1814   20352881.5564
       712.747         555.387
 -11292712.759 9  -7906845.17046  23447147.487    23447148.1054   23447154.1464
      3800.896        2961.737
 96 10  8 16 42 29.9990000  0  8 28 22 21 17  6 26 23  3            -0.000878139
 -12637224.547 9  -9831230.034 9  20354891.885    20354892.529    20354897.452
      1660.531        1293.920
  -1843437.479 9  -1427761.51346  23520488.305    23520488.9774   23520495.9994
      -774.047        -603.154
 -15067542.065 9 -11725810.36548  22109828.788    22109829.6464   22109835.9694
      2703.202        2106.391
  -4438813.433 9  -3451452.45048  20306586.998    20306587.5394   20306592.7094
       404.876         315.488
   6771425.296 9   5275242.47448  21742835.695    21742836.4784   21742842.3544
     -2547.130       -1984.777
   -534406.029 9   -410199.69847  22377699.694    22377700.7554   22377705.5294
     -1306.281       -1017.881
  -7835308.234 9  -6093002.89448  20348834.611    20348835.2614   20348840.6314
       702.960         547.761
 -11406648.420 9  -7995626.18946  23425466.141    23425466.8964   23425472.8944
      3794.809        2956.994
 96 10  8 16 42 59.9990000  0  8 28 22 21 17  6 26 23  3            -0.000887623
 -12686763.385 9  -9869831.737 9  20345464.950    20345465.641    20345470.538
      1642.453        1279.833
  -1820007.535 9  -1409504.45947  23524946.826    23524947.6244   23524954.6234
      -787.581        -613.699
 -15148487.652 9 -11788884.83148  22094425.573    22094426.2304   22094432.5334
      2693.588        2098.900
  -4450817.638 9  -3460806.38448  20304302.736    20304303.2194   20304308.4124
       395.807         308.421
   6848008.333 9   5334917.52748  21757409.022    21757409.7934   21757415.6464
     -2558.032       -1993.272
   -494968.053 9   -379468.83447  22385204.505    22385205.5714   22385210.3664
     -1322.510       -1030.527
  -7856226.265 9  -6109302.65948  20344854.025    20344854.6824   20344860.0534
       692.000         539.221
 -11520376.396 9  -8084245.36346  23403824.566    23403825.1564   23403831.0874
      3787.331        2951.167
 96 10  8 16 43 29.9990000  0  8 28 22 21 17  6 26 23  3            -0.000897107
 -12735766.459 9  -9908015.958 9  20336140.052    20336140.692    20336145.591
      1623.996        1265.451
  -1796178.413 9  -1390936.36247  23529481.825    23529482.2134   23529489.2274
      -801.198        -624.310
 -15229149.708 9 -11851738.35248  22079076.212    22079076.7834   22079083.0344
      2683.374        2090.941
  -4462559.743 9  -3469956.08548  20302068.303    20302068.7894   20302073.9634
       386.722         301.342
   6924912.253 9   5394842.62447  21772043.287    21772044.1384   21772049.9834
     -2569.458       -2002.175
   -455057.593 9   -348369.78647  22392798.975    22392800.3284   22392805.0784
     -1338.504       -1042.990
  -7876819.622 9  -6125349.42648  20340935.228    20340935.9004   20340941.2764
       680.169         530.002
 -11633881.657 9  -8172690.99846  23382225.409    23382225.7264   23382231.6814
      3779.395        2944.983
 96 10  8 16 43 59.9990000  0  8 28 22 21 17  6 26 23  3            -0.000906603
 -12784225.419 9  -9945776.193 9  20326918.557    20326919.257    20326924.173
      1605.717        1251.208
  -1771970.489 9  -1372073.09447  23534088.497    23534088.8404   23534095.9294
      -813.390        -633.810
 -15309508.910 9 -11914355.88748  22063784.322    22063784.9024   22063791.1464
      2673.087        2082.925
  -4474056.404 9  -3478914.52748  20299880.525    20299881.0324   20299886.2124
       378.921         295.263
   7002158.964 9   5455034.82847  21786742.720    21786743.7054   21786749.5504
     -2581.117       -2011.260
   -414678.777 9   -316905.79147  22400483.094    22400484.2634   22400488.9304
     -1354.450       -1055.416
  -7897042.958 9  -6141107.86948  20337086.963    20337087.5264   20337092.8914
       666.940         519.693
 -11747162.352 9  -8260961.65146  23360668.285    23360669.1114   23360675.0254
      3771.725        2939.006
 96 10  8 16 44 29.9990000  0  9  1 28 22 21 17  6 26 23  3         -0.000916112
  -2509158.03518  -1941329.65756  24874330.236    24874331.4115   24874339.7445
      4166.810        3246.865
 -12832129.101 9  -9983103.745 9  20317802.783    20317803.500    20317808.410
      1587.758        1237.214
  -1747399.137 9  -1352926.62147  23538764.143    23538764.5884   23538771.7644
      -824.906        -642.784
 -15389556.186 9 -11976730.36148  22048551.759    22048552.3814   22048558.6304
      2663.372        2075.355
  -4485312.902 9  -3487685.82848  20297738.461    20297738.9944   20297744.1834
       371.443         289.436
   7079758.386 9   5515501.87347  21801509.398    21801510.4034   21801516.2434
     -2592.402       -2020.053
   -373799.106 9   -285051.51547  22408262.373    22408263.4354   22408268.0904
     -1370.876       -1068.215
  -7916861.267 9  -6156550.70348  20333315.584    20333316.2514   20333321.5634
       654.224         509.785
 -11860209.259 9  -8349050.13446  23339156.055    23339157.0454   23339162.8874
      3764.517        2933.390
 96 10  8 16 44 59.9990000  0  9  1 28 22 21 17  6 26 23  3         -0.000925638
  -2634205.486 8  -2038769.17146  24850535.004    24850535.7174   24850543.9184
      4169.790        3249.187
 -12879494.423 9 -10020011.797 9  20308789.486    20308790.182    20308795.102
      1569.832        1223.246
  -1722480.158 9  -1333509.28946  23543506.235    23543506.5034   23543513.7234
      -836.445        -651.775
 -15469318.823 9 -12038883.03848  22033373.385    22033374.0074   22033380.2864
      2654.266        2068.259
  -4496346.486 9  -3496283.43648  20295638.839    20295639.3704   20295644.5774
       364.088         283.705
   7157700.190 9   5576235.70947  21816341.084    21816342.1934   21816348.0914
     -2603.808       -2028.941
   -332434.910 9   -252819.69547  22416133.669    22416134.8004   22416139.4634
     -1386.837       -1080.652
  -7936301.635 9  -6171699.03948  20329616.206    20329616.8794   20329622.1894
       641.908         500.188
 -11973045.058 9  -8436974.11446  23317684.097    23317685.1454   23317690.8774
      3757.837        2928.185
 96 10  8 16 45 29.9990000  0  9  1 28 22 21 17  6 26 23  3         -0.000935175
  -2759332.080 8  -2136270.35446  24826724.239    24826724.9984   24826733.1824
      4172.526        3251.319
 -12926320.444 9 -10056499.614 9  20299878.708    20299879.497    20299884.412
      1552.372        1209.640
  -1697216.516 9  -1313823.37346  23548313.888    23548314.0554   23548321.2684
      -847.341        -660.266
 -15548819.246 9 -12100831.39848  22018245.025    22018245.5554   22018251.8024
      2646.258        2062.019
  -4507157.206 9  -3504707.37948  20293581.617    20293582.1554   20293587.3964
       357.154         278.302
   7235991.878 9   5637242.18047  21831239.621    21831240.6044   21831246.5444
     -2615.097       -2037.738
   -290579.796 9   -220205.34247  22424098.720    22424099.5984   22424104.2794
     -1403.044       -1093.281
  -7955374.579 9  -6186561.07248  20325986.766    20325987.4134   20325992.7394
       630.092         490.981
 -12085682.227 9  -8524743.32246  23296249.945    23296251.0104   23296256.7054
      3751.743        2923.436
 96 10  8 16 45 59.9990000  0  9  1 28 22 21 17  6 26 23  3         -0.000944714
  -2884512.130 8  -2233813.16546  24802903.013    24802903.9224   24802912.1594
      4173.341        3251.954
 -12972606.319 9 -10092566.535 9  20291070.820    20291071.610    20291076.520
      1533.871        1195.224
  -1671605.684 9  -1293866.92146  23553187.796    23553187.6754   23553194.8874
      -859.652        -669.859
 -15628070.986 9 -12162585.97748  22003163.949    22003164.4524   22003170.6804
      2637.846        2055.464
  -4517738.516 9  -3512952.56648  20291568.102    20291568.6194   20291573.8274
       348.587         271.626
   7314630.922 9   5698519.32847  21846204.028    21846205.1364   21846211.0864
     -2626.773       -2046.836
   -248207.891 9   -187188.28847  22432161.906    22432162.7484   22432167.4414
     -1421.200       -1107.428
  -7974085.559 9  -6201141.04948  20322426.162    20322426.8244   20322432.1254
       618.092         481.630
 -12198120.438 9  -8612357.48447  23274853.547    23274854.7484   23274860.4224
      3744.580        2917.854
 96 10  8 16 46 29.9990000  0  9  1 28 22 21 17  6 26 23  3         -0.000954249
  -3009738.833 8  -2331392.33746  24779073.536    24779074.0104   24779082.2204
      4174.662        3252.983
 -13018359.465 9 -10128218.342 9  20282364.280    20282365.102    20282370.001
      1515.799        1181.142
  -1645641.464 9  -1273635.10646  23558128.370    23558128.5384   23558135.7144
      -871.813        -679.335
 -15707106.412 9 -12224172.00248  21988123.942    21988124.4984   21988130.7074
      2630.752        2049.937
  -4528070.275 9  -3521003.29648  20289602.005    20289602.5394   20289607.7784
       339.807         264.785
   7393582.713 9   5760040.16847  21861228.127    21861229.2204   21861235.1534
     -2637.111       -2054.892
   -205315.075 9   -153765.33247  22440324.007    22440325.0214   22440329.7224
     -1438.549       -1120.947
  -7992481.498 9  -6215475.54348  20318925.558    20318926.2004   20318931.4604
       607.835         473.638
 -12310361.394 9  -8699817.94446  23253495.144    23253495.9894   23253501.7014
      3737.591        2912.409
 96 10  8 16 46 59.9990000  0  9  1 28 22 21 17  6 26 23  3         -0.000963771
  -3135000.200 8  -2428998.49845  24755237.060    24755237.4674   24755245.8594
      4176.097        3254.102
 -13063560.867 9 -10163440.224 9  20273762.884    20273763.583    20273768.460
      1497.463        1166.854
  -1619304.104 9  -1253112.53546  23563140.311    23563140.4534   23563147.5234
      -884.054        -688.873
 -15785923.985 9 -12285588.26848  21973125.399    21973125.9794   21973132.1884
      2623.572        2044.342
  -4538135.990 9  -3528846.72048  20287686.544    20287687.0754   20287692.3564
       331.056         257.966
   7472849.535 9   5821806.47947  21876312.101    21876313.2724   21876319.1454
     -2647.384       -2062.897
   -161904.087 9   -119938.60647  22448584.936    22448585.8624   22448590.5884
     -1455.652       -1134.274
  -8010556.856 9  -6229560.23548  20315485.940    20315486.5414   20315491.8394
       596.973         465.174
 -12422384.829 9  -8787108.92047  23232178.338    23232178.6474   23232184.3694
      3730.466        2906.857
 96 10  8 16 47 29.9990000  0  9  1 28 22 21 17  6 26 23  3         -0.000973285
  -3260306.989 8  -2526640.07946  24731391.870    24731392.3794   24731400.7884
      4177.850        3255.468
 -13108207.455 9 -10198229.780 9  20265266.799    20265267.609    20265272.516
      1479.140        1152.577
  -1592596.844 9  -1232301.73346  23568222.838    23568222.7224   23568229.8134
      -896.236        -698.366
 -15864517.895 9 -12346830.25348  21958169.441    21958170.0514   21958176.2404
      2616.116        2038.532
  -4547931.718 9  -3536479.76548  20285822.424    20285823.0104   20285828.2984
       322.251         251.105
   7552428.220 9   5883815.81047  21891455.735    21891456.6914   21891462.5384
     -2657.540       -2070.810
   -117970.769 9    -85704.86147  22456945.162    22456946.0654   22456950.8104
     -1472.838       -1147.666
  -8028292.465 9  -6243380.18948  20312110.995    20312111.5744   20312116.8834
       585.505         456.238
 -12534178.649 9  -8874220.96647  23210904.888    23210904.9314   23210910.7044
      3722.562        2900.698
 96 10  8 16 47 59.9990000  0  9  1 28 22 21 17  6 26 23  3         -0.000982807
  -3385676.579 8  -2624330.61546  24707534.649    24707535.3294   24707543.7534
      4180.373        3257.434
 -13152306.763 9 -10232592.887 9  20256874.884    20256875.811    20256880.699
      1461.029        1138.464
  -1565531.722 9  -1211212.06647  23573373.097    23573373.1014   23573380.1504
      -907.836        -707.405
 -15942889.093 9 -12407898.70048  21943255.850    21943256.5224   21943262.6884
      2608.812        2032.841
  -4557468.929 9  -3543911.36748  20284007.667    20284008.1784   20284013.4504
       313.799         244.519
   7632297.753 9   5946051.76747  21906654.450    21906655.4064   21906661.2534
     -2666.984       -2078.169
    -73539.433 9    -51083.06647  22465399.837    22465401.0664   22465405.8404
     -1488.783       -1160.091
  -8045686.547 9  -6256934.01948  20308801.035    20308801.5824   20308806.8844
       574.266         447.480
 -12645741.120 9  -8961152.74646  23189675.651    23189675.2464   23189681.0034
      3715.191        2894.954
 96 10  8 16 48 29.9990000  0  9  1 28 22 21 17  6 26 23  3         -0.000992349
  -3511120.291 8  -2722078.90446  24683664.312    24683664.1494   24683672.5594
      4182.719        3259.262
 -13195853.456 9 -10266525.379 9  20248588.212    20248589.152    20248594.048
      1442.294        1123.865
  -1538117.184 9  -1189850.14347  23578589.870    23578589.9774   23578596.9604
      -919.651        -716.611
 -16021031.314 9 -12468788.72048  21928385.843    21928386.5554   21928392.7314
      2600.649        2026.480
  -4566751.215 9  -3551144.32648  20282241.285    20282241.7994   20282247.1074
       305.377         237.956
   7712466.916 9   6008521.21247  21921910.077    21921911.1184   21921916.9804
     -2677.559       -2086.410
    -28636.581 9    -16093.84547  22473944.381    22473945.7824   22473950.5324
     -1504.446       -1172.295
  -8062724.337 9  -6270210.21648  20305558.885    20305559.3784   20305564.7184
       561.646         437.646
 -12757072.949 9  -9047904.80546  23168490.290    23168489.4694   23168495.2914
      3707.194        2888.723
 96 10  8 16 48 59.9990000  0  9  1 28 22 21 17  6 26 23  3         -0.001001911
  -3636642.138 8  -2819888.08845  24659778.765    24659778.0294   24659786.4064
      4184.961        3261.009
 -13238848.769 9 -10300028.230 9  20240406.601    20240407.408    20240412.334
      1423.771        1109.432
  -1510357.571 9  -1168219.31946  23583872.341    23583872.5664   23583879.4714
      -931.333        -725.714
 -16098919.266 9 -12529480.61348  21913564.230    21913564.9504   21913571.1434
      2591.549        2019.389
  -4575798.036 9  -3558193.80648  20280519.669    20280520.2424   20280525.5424
       297.236         231.612
   7792956.108 9   6071240.03047  21937226.583    21937227.6694   21937233.6094
     -2688.688       -2095.082
     16726.837 9     19254.25647  22482577.075    22482578.1044   22482582.8794
     -1520.106       -1184.498
  -8079384.761 9  -6283192.36848  20302388.412    20302388.9754   20302394.3254
       548.804         427.639
 -12868178.155 9  -9134480.27546  23147347.485    23147346.8074   23147352.6464
      3699.496        2882.724
 96 10  8 16 49 29.9980000  0  9  1 28 22 21 17  6 26 23  3         -0.001011480
  -3762211.721 8  -2917734.48345  24635882.942    24635882.9154   24635891.2734
      4186.925        3262.539
 -13281277.410 9 -10333089.516 9  20232332.564    20232333.476    20232338.417
      1405.316        1095.051
  -1482235.952 9  -1146306.41847  23589223.526    23589224.0164   23589230.8524
      -943.068        -734.858
 -16176517.723 9 -12589946.91748  21898797.718    21898798.4444   21898804.6414
      2582.352        2012.222
  -4584575.779 9  -3565033.61748  20278849.386    20278849.9174   20278855.1944
       288.453         224.769
   7873784.692 9   6134223.30347  21952607.784    21952608.8384   21952614.8664
     -2699.628       -2103.606
     62568.983 9     54975.39547  22491300.102    22491301.4814   22491306.3484
     -1535.606       -1196.576
  -8095657.182 9  -6295872.17348  20299291.789    20299292.4294   20299297.7844
       536.643         418.163
 -12979035.470 9  -9220862.57946  23126251.667    23126251.3204   23126257.1644
      3691.618        2876.585
 96 10  8 16 49 59.9980000  0  9  1 28 22 21 17  6 26 23  3         -0.001021040
  -3887818.087 8  -3015609.54245  24611980.375    24611980.7684   24611989.0134
      4188.036        3263.405
 -13323133.165 9 -10365704.400 9  20224367.763    20224368.588    20224373.547
      1386.136        1080.106
  -1453740.739 9  -1124102.40646  23594646.088    23594646.4594   23594653.3514
      -955.603        -744.626
 -16253819.860 9 -12650182.32948  21884087.520    21884088.2994   21884094.5094
      2572.206        2004.316
  -4593074.944 9  -3571656.35848  20277232.087    20277232.6034   20277237.8494
       279.260         217.605
   7954968.547 9   6197483.41447  21968056.430    21968057.6214   21968063.6854
     -2711.737       -2113.042
    108899.108 9     91076.77347  22500116.269    22500117.7864   22500122.7024
     -1552.024       -1209.369
  -8111550.022 9  -6308256.19948  20296267.536    20296268.1134   20296273.4934
       523.943         408.267
 -13089641.918 9  -9307049.40946  23105204.228    23105203.5824   23105209.3974
      3683.139        2869.978
 96 10  8 16 50 29.9980000  0  9  1 28 22 21 17  6 26 23  3         -0.001030589
  -4013485.255 8  -3113531.97845  24588065.675    24588066.8844   24588075.2704
      4190.218        3265.105
 -13364431.401 9 -10397884.851 9  20216508.993    20216509.814    20216514.763
      1367.634        1065.689
  -1424885.669 9  -1101617.98246  23600137.384    23600137.3824   23600144.3744
      -967.587        -753.964
 -16330835.190 9 -12710194.25448  21869432.009    21869432.7424   21869438.9484
      2562.715        1996.921
  -4601320.148 9  -3578081.20148  20275663.084    20275663.5764   20275668.8554
       270.976         211.150
   8036500.561 9   6261014.81747  21983571.816    21983572.6904   21983578.7154
     -2723.032       -2121.843
    155711.597 9    127554.02647  22509024.421    22509025.9544   22509030.8044
     -1568.261       -1222.022
  -8127082.907 9  -6320359.74648  20293311.731    20293312.3074   20293317.6644
       512.254         399.159
 -13200005.688 9  -9393047.13546  23084202.639    23084202.1074   23084207.8174
      3674.989        2863.628
 96 10  8 16 50 59.9980000  0  9  1 28 22 21 17  6 26 23  3         -0.001040130
  -4139230.803 8  -3211515.50545  24564137.329    24564138.3244   24564146.6944
      4191.973        3266.472
 -13405183.875 9 -10429640.034 9  20208754.147    20208754.915    20208759.853
      1348.537        1050.808
  -1395678.528 9  -1078859.21546  23605695.295    23605695.3454   23605702.3864
      -980.091        -763.707
 -16407572.699 9 -12769989.69248  21854829.337    21854830.0334   21854836.2534
      2552.710        1989.125
  -4609323.361 9  -3584317.47948  20274140.139    20274140.6354   20274145.9274
       261.862         204.048
   8118350.166 9   6324793.69747  21999147.117    21999148.1474   21999154.1984
     -2734.123       -2130.485
    203007.264 9    164407.78347  22518024.642    22518026.0704   22518030.8804
     -1585.238       -1235.250
  -8142286.605 9  -6332206.77648  20290418.594    20290419.1384   20290424.5244
       500.769         390.210
 -13310134.689 9  -9478861.91747  23063245.056    23063245.2474   23063250.9124
      3666.192        2856.773
 96 10  8 16 51 29.9980000  0  9  1 28 22 21 17  6 26 23  3         -0.001049651
  -4265037.621 8  -3309546.76645  24540197.414    24540198.1224   24540206.5034
      4194.750        3268.636
 -13445364.885 9 -10460949.918 9  20201107.978    20201108.736    20201113.656
      1329.939        1036.316
  -1366106.119 9  -1055815.81546  23611322.745    23611322.7594   23611329.8964
      -991.667        -772.728
 -16484030.401 9 -12829567.10348  21840279.944    21840280.6054   21840286.8444
      2544.237        1982.522
  -4617057.065 9  -3590343.75048  20272668.504    20272668.9724   20272674.2634
       253.705         197.692
   8200515.194 9   6388818.36047  22014782.380    22014783.6364   22014789.7484
     -2743.798       -2138.024
    250799.135 9    201648.18747  22527118.890    22527120.5784   22527125.3894
     -1601.117       -1247.624
  -8157154.285 9  -6343791.98048  20287589.416    20287589.9234   20287595.2814
       490.129         381.919
 -13419995.619 9  -9564467.82347  23042339.139    23042339.3744   23042345.0804
      3657.558        2850.045
 96 10  8 16 51 59.9980000  0  9  1 28 22 21 17  6 26 23  3         -0.001059165
  -4390928.060 8  -3407643.20345  24516240.540    24516242.0704   24516250.3434
      4197.604        3270.860
 -13484991.727 9 -10491827.987 9  20193567.265    20193568.019    20193572.937
      1311.518        1021.962
  -1336188.147 9  -1032503.14946  23617015.887    23617016.0114   23617023.1834
     -1003.137        -781.665
 -16560239.479 9 -12888950.77748  21825777.885    21825778.5014   21825784.7394
      2536.074        1976.162
  -4624566.319 9  -3596195.12748  20271239.555    20271240.0574   20271245.3394
       246.539         192.108
   8282965.768 9   6453065.53047  22030472.602    22030473.5324   22030479.5894
     -2753.118       -2145.287
    299063.824 9    239257.01747  22536303.701    22536305.0854   22536309.8654
     -1616.744       -1259.801
  -8171701.836 9  -6355127.73348  20284821.202    20284821.6064   20284826.9624
       479.429         373.581
 -13529599.235 9  -9649873.21547  23021482.019    23021482.4804   23021488.1914
      3649.131        2843.479
 96 10  8 16 52 29.9980000  0  9  1 28 22 21 17  6 26 23  3         -0.001068687
  -4516887.290 8  -3505793.21945  24492271.780    24492272.6724   24492280.9754
      4199.023        3271.966
 -13524064.412 9 -10522274.240 9  20186132.120    20186132.773    20186137.643
      1292.843        1007.410
  -1305933.979 9  -1008928.52046  23622772.998    23622773.2764   23622780.4134
     -1014.180        -790.270
 -16636206.990 9 -12948146.21648  21811321.721    21811322.3434   21811328.5684
      2527.938        1969.822
  -4631854.480 9  -3601874.22348  20269852.553    20269853.1394   20269858.4464
       238.764         186.050
   8365683.003 9   6517520.48547  22046213.249    22046214.1394   22046220.1284
     -2761.753       -2152.015
    347783.829 9    277220.65847  22545574.905    22545576.2474   22545581.0364
     -1631.711       -1271.463
  -8185931.076 9  -6366215.45048  20282113.428    20282113.8634   20282119.2244
       468.800         365.299
 -13638949.275 9  -9735081.02247  23000673.449    23000673.8704   23000679.5964
      3640.379        2836.659
 96 10  8 16 52 59.9980000  0  9  1 28 22 21 17  6 26 23  3         -0.001078224
  -4642871.190 8  -3603962.46445  24468298.771    24468298.7184   24468307.1104
      4200.083        3272.792
 -13562573.138 9 -10552281.050 9  20178804.141    20178804.802    20178809.687
      1274.561         993.164
  -1275350.464 9   -985097.25347  23628593.033    23628593.1484   23628600.2794
     -1024.468        -798.287
 -16711928.240 9 -13007149.75848  21796912.382    21796913.0564   21796919.2564
      2520.286        1963.859
  -4638891.797 9  -3607357.85648  20268513.390    20268513.9774   20268519.3064
       230.640         179.719
   8448661.326 9   6582178.88347  22062003.625    22062004.4394   22062010.3964
     -2770.078       -2158.502
    396953.364 9    315534.56247  22554931.624    22554932.8444   22554937.6984
     -1645.965       -1282.570
  -8199834.978 9  -6377049.66248  20279467.483    20279468.0044   20279473.3714
       458.184         357.026
 -13748035.586 9  -9820083.32247  22979915.109    22979915.4324   22979921.1394
      3632.058        2830.175
 96 10  8 16 53 29.9980000  0  9  1 28 22 21 17  6 26 23  3         -0.001087783
  -4768863.546 8  -3702138.30045  24444322.336    24444323.2454   24444331.6034
      4199.115        3272.038
 -13600523.416 9 -10581852.700 9  20171582.436    20171583.081    20171588.025
      1255.033         977.948
  -1244448.167 9   -961017.58047  23634473.406    23634473.6874   23634480.8104
     -1036.201        -807.429
 -16787410.310 9 -13065966.93248  21782548.651    21782549.2854   21782555.4794
      2511.281        1956.842
  -4645676.711 9  -3612644.81548  20267222.339    20267222.8744   20267228.1884
       221.350         172.481
   8531906.661 9   6647045.34047  22077844.584    22077845.5684   22077851.4964
     -2780.037       -2166.263
    446561.932 9    354190.57347  22564371.849    22564373.0384   22564377.9004
     -1661.798       -1294.908
  -8213402.287 9  -6387621.58848  20276885.740    20276886.2884   20276891.6134
       445.977         347.514
 -13856858.898 9  -9904880.69347  22959206.442    22959207.0354   22959212.7514
      3622.453        2822.691
 96 10  8 16 53 59.9980000  0  9  1 28 22 21 17  6 26 23  3         -0.001097347
  -4894839.166 8  -3800301.08945  24420350.143    24420350.8354   24420359.2494
      4198.877        3271.852
 -13637901.973 9 -10610978.856 9  20164469.527    20164470.198    20164475.132
      1236.366         963.402
  -1213211.020 9   -936676.98747  23640417.709    23640417.9794   23640425.1004
     -1046.632        -815.557
 -16862627.174 9 -13124577.44548  21768235.216    21768235.9924   21768242.1904
      2502.682        1950.142
  -4652192.143 9  -3617721.78248  20265982.415    20265983.0124   20265988.3274
       212.413         165.517
   8615441.641 9   6712137.50247  22093740.626    22093741.7484   22093747.6614
     -2789.459       -2173.604
    496640.896 9    393213.12947  22573901.718    22573902.7594   22573907.6394
     -1677.203       -1306.911
  -8226615.953 9  -6397917.94848  20274371.342    20274371.8384   20274377.1614
       434.549         338.610
 -13965414.455 9  -9989469.41947  22938549.176    22938549.5764   22938555.3154
      3614.212        2816.269
 96 10  8 16 54 29.9980000  0  9  1 28 22 21 17  6 26 23  3         -0.001106917
  -5020785.698 8  -3898441.17845  24396382.760    24396384.0194   24396392.4924
      4198.205        3271.329
 -13674701.958 9 -10639654.176 9  20157466.639    20157467.381    20157472.331
      1217.385         948.612
  -1181651.126 9   -912084.89746  23646423.470    23646423.6624   23646430.7724
     -1057.061        -823.684
 -16937561.813 9 -13182968.04848  21753975.702    21753976.4154   21753982.5694
      2493.445        1942.944
  -4658412.860 9  -3622569.10148  20264798.627    20264799.2634   20264804.5804
       202.747         157.985
   8699277.876 9   6777464.39947  22109694.516    22109695.3264   22109701.2114
     -2799.344       -2181.307
    547197.373 9    432607.77347  22583521.997    22583523.3794   22583528.2344
     -1692.845       -1319.100
  -8239473.225 9  -6407936.60048  20271924.573    20271925.1914   20271930.4834
       422.988         329.601
 -14073706.206 9 -10073852.58147  22917941.466    22917942.3184   22917948.0324
      3605.515        2809.492
 96 10  8 16 54 59.9980000  0  9  1 28 22 21 17  6 26 23  3         -0.001116490
  -5146734.794 8  -3996583.30545  24372415.114    24372416.7834   24372424.9744
      4198.554        3271.601
 -13710935.393 9 -10667888.025 9  20150571.633    20150572.406    20150577.352
      1198.300         933.740
  -1149772.201 9   -887244.22147  23652489.783    23652490.0314   23652497.1654
     -1068.147        -832.322
 -17012225.531 9 -13241147.54448  21739767.675    21739768.3384   21739774.5144
      2484.216        1935.753
  -4664353.724 9  -3627198.35548  20263668.172    20263668.7764   20263674.0904
       193.536         150.807
   8783415.611 9   6843026.24047  22125705.535    22125706.2674   22125712.1954
     -2809.732       -2189.401
    598228.466 9    472372.23847  22593232.362    22593234.3064   22593239.1444
     -1708.959       -1331.656
  -8251988.579 9  -6417688.82348  20269543.035    20269543.6144   20269548.8784
       411.452         320.612
 -14181745.201 9 -10158038.80347  22897382.134    22897383.1664   22897388.8714
      3597.031        2802.881
 96 10  8 16 55 29.9980000  0  9  1 28 22 21 17  6 26 23  3         -0.001126058
  -5272706.299 8  -4094742.86745  24348443.984    24348445.2934   24348453.2854
      4199.683        3272.480
 -13746598.375 9 -10695677.372 9  20143785.336    20143785.993    20143790.922
      1179.450         919.052
  -1117570.492 9   -862152.01747  23658617.437    23658617.8544   23658625.0034
     -1078.474        -840.369
 -17086619.684 9 -13299116.98748  21725610.936    21725611.5834   21725617.7694
      2475.499        1928.960
  -4670041.755 9  -3631630.59848  20262585.638    20262586.4084   20262591.7404
       185.660         144.670
   8867858.154 9   6908825.57747  22141774.370    22141775.1514   22141781.1184
     -2819.469       -2196.989
    649728.094 9    512501.81247  22603032.434    22603034.3164   22603039.2024
     -1724.112       -1343.464
  -8264172.189 9  -6427182.54048  20267224.543    20267225.1214   20267230.4114
       401.035         312.495
 -14289529.311 9 -10242026.40247  22876871.311    22876872.5354   22876878.2314
      3588.671        2796.367
 96 10  8 16 55 59.9980000  0  9  1 28 22 21 17  6 26 23  3         -0.001135614
  -5398695.328 8  -4192916.08045  24324469.289    24324470.6364   24324478.3584
      4200.860        3273.397
 -13781675.134 9 -10723009.916 9  20137110.368    20137111.112    20137116.058
      1160.355         904.173
  -1085047.353 9   -836809.34746  23664806.695    23664806.8334   23664813.9914
     -1088.422        -848.121
 -17160730.081 9 -13356865.31748  21711508.145    21711508.8114   21711515.0394
      2466.626        1922.046
  -4675469.569 9  -3635860.07548  20261552.894    20261553.5564   20261558.8634
       177.533         138.337
   8952615.068 9   6974869.88247  22157902.778    22157903.8494   22157909.8674
     -2829.553       -2204.846
    701694.850 9    552995.36747  22612922.024    22612923.2814   22612928.1814
     -1738.814       -1354.920
  -8276025.997 9  -6436419.26848  20264968.840    20264969.3924   20264974.6984
       390.507         304.291
 -14397038.641 9 -10325799.89447  22856413.261    22856414.1374   22856419.8914
      3579.860        2789.501
 96 10  8 16 56 29.9980000  0  9  1 28 22 21 17  6 26 23  3         -0.001145172
  -5524718.253 8  -4291115.74045  24300487.420    24300489.2174   24300496.8864
      4200.871        3273.406
 -13816177.301 9 -10749894.727 9  20130544.801    20130545.589    20130550.516
      1140.042         888.344
  -1052216.985 9   -811227.28546  23671053.965    23671054.2294   23671061.3954
     -1100.030        -857.166
 -17234577.244 9 -13414408.52548  21697455.392    21697456.1564   21697462.3714
      2456.938        1914.497
  -4680659.702 9  -3639904.34248  20260565.284    20260565.9374   20260571.2594
       168.750         131.494
   9037673.300 9   7041148.98147  22174088.677    22174089.8854   22174095.9534
     -2840.687       -2213.522
    754094.054 9    593825.90047  22622893.666    22622894.5304   22622899.4324
     -1754.268       -1366.962
  -8287557.767 9  -6445405.06448  20262774.323    20262774.9604   20262780.2594
       378.561         294.983
 -14504274.077 9 -10409359.95547  22836007.287    22836007.8494   22836013.6764
      3569.303        2781.275
 96 10  8 16 56 59.9980000  0  9  1 28 22 21 17  6 26 23  3         -0.001154718
  -5650760.986 8  -4389330.79245  24276502.062    24276503.9434   24276511.6124
      4201.859        3274.176
 -13850091.865 9 -10776321.664 9  20124091.115    20124091.879    20124096.795
      1120.857         873.395
  -1019061.699 9   -785392.04946  23677363.102    23677363.4254   23677370.6814
     -1110.328        -865.191
 -17308162.217 9 -13471747.44048  21683452.728    21683453.4084   21683459.6044
      2448.589        1907.991
  -4685610.355 9  -3643762.00048  20259623.183    20259623.8704   20259629.2044
       161.058         125.500
   9123033.186 9   7107663.13947  22190331.970    22190333.3244   22190339.3964
     -2849.974       -2220.759
    806938.248 9    635003.17547  22632949.472    22632950.4664   22632955.3514
     -1768.645       -1378.165
  -8298757.630 9  -6454132.22148  20260643.055    20260643.6774   20260648.9924
       367.965         286.726
 -14611213.478 9 -10492689.34647  22815657.350    22815657.9144   22815663.7614
      3559.842        2773.903
 96 10  8 16 57 29.9980000  0  9  1 28 22 21 17  6 26 23  3         -0.001164279
  -5776822.650 8  -4487560.61945  24252513.751    24252515.1034   24252522.8874
      4201.875        3274.188
 -13883432.566 9 -10802301.438 9  20117746.574    20117747.358    20117752.286
      1101.366         858.207
   -985608.204 9   -759324.43146  23683729.417    23683729.5224   23683736.7294
     -1120.440        -873.070
 -17381495.333 9 -13528890.10148  21669498.002    21669498.5684   21669504.7714
      2439.697        1901.062
  -4690321.435 9  -3647432.98248  20258726.741    20258727.3784   20258732.7134
       152.273         118.654
   9208668.224 9   7174391.68947  22206628.049    22206629.1374   22206635.2484
     -2859.473       -2228.161
    860205.220 9    676509.88747  22643085.559    22643086.9434   22643091.6714
     -1783.123       -1389.446
  -8309636.496 9  -6462609.25948  20258572.872    20258573.4874   20258578.8014
       356.775         278.006
 -14717863.571 9 -10575793.30747  22795362.239    22795363.0404   22795368.9614
      3549.686        2765.989
 96 10  8 16 57 59.9980000  0  9  1 28 22 21 17  6 26 23  3         -0.001173842
  -5902891.883 8  -4585796.32945  24228523.652    24228524.7964   24228532.7454
      4202.398        3274.596
 -13916193.232 9 -10827829.229 9  20111512.479    20111513.198    20111518.156
      1082.296         843.348
   -951848.971 9   -733018.56446  23690153.464    23690153.7334   23690160.9424
     -1130.611        -880.995
 -17454565.100 9 -13585827.55048  21655593.268    21655593.7954   21655600.0284
      2431.284        1894.507
  -4694758.134 9  -3650890.15248  20257882.432    20257883.1144   20257888.4534
       143.209         111.591
   9294575.818 9   7241332.63847  22222975.690    22222976.8684   22222982.9734
     -2868.063       -2234.854
    913913.635 9    718360.59047  22653306.141    22653307.3364   22653312.0434
     -1797.851       -1400.923
  -8320179.426 9  -6470824.52248  20256566.639    20256567.2244   20256572.5484
       345.678         269.359
 -14824214.010 9 -10658663.76247  22775124.160    22775125.1754   22775131.1564
      3540.010        2758.449
 96 10  8 16 58 29.9980000  0  9  1 28 22 21 17  6 26 23  3         -0.001183405
  -6028956.998 8  -4684028.81545  24204534.450    24204535.3394   24204543.4044
      4201.572        3273.952
 -13948368.708 9 -10852901.031 9  20105389.658    20105390.403    20105395.369
      1062.337         827.795
   -917766.367 9   -706460.72846  23696639.076    23696639.3914   23696646.6704
     -1141.886        -889.781
 -17527370.644 9 -13642559.11248  21641738.585    21641739.3734   21641745.5844
      2422.106        1887.355
  -4698913.366 9  -3654127.99648  20257091.750    20257092.3644   20257097.7354
       133.329         103.893
   9380746.841 9   7308478.85447  22239373.610    22239374.6644   22239380.8044
     -2876.928       -2241.762
    968076.804 9    760565.64347  22663612.728    22663614.2074   22663618.9294
     -1813.370       -1413.015
  -8330375.945 9  -6478769.85548  20254626.286    20254626.8794   20254632.2174
       333.863         260.153
 -14930263.856 9 -10741299.98947  22754943.379    22754944.5304   22754950.5144
      3529.669        2750.391
 96 10  8 16 58 59.9980000  0  9  1 28 22 21 17  6 26 23  3         -0.001192971
  -6155021.889 8  -4782261.13345  24180544.949    24180545.9264   24180553.9674
      4202.414        3274.608
 -13979964.273 9 -10877520.962 9  20099377.119    20099377.967    20099382.962
      1043.706         813.277
   -883368.833 9   -679657.49446  23703184.813    23703185.0354   23703192.3474
     -1151.583        -897.337
 -17599921.113 9 -13699091.92348  21627932.622    21627933.4334   21627939.6544
      2414.196        1881.192
  -4702777.987 9  -3657139.39948  20256356.283    20256356.9464   20256362.3074
       124.108          96.708
   9467159.270 9   7375813.16847  22255817.459    22255818.4634   22255824.5834
     -2884.317       -2247.520
   1022683.340 9    803116.16447  22674003.939    22674005.4464   22674010.2204
     -1827.192       -1423.786
  -8340243.656 9  -6486458.98248  20252748.470    20252749.1054   20252754.4644
       323.624         252.175
 -15036026.280 9 -10823712.25347  22734817.506    22734818.5884   22734824.5864
      3520.917        2743.572
 96 10  8 16 59 29.9980000  0  9  1 28 22 21 17  6 26 23  3         -0.001202547
  -6281087.787 8  -4880494.22945  24156555.526    24156556.4484   24156564.2184
      4201.918        3274.222
 -14010978.764 9 -10901688.102 9  20093475.353    20093476.126    20093481.113
      1023.904         797.847
   -848661.243 9   -652612.65546  23709789.339    23709789.7374   23709797.0314
     -1162.270        -905.665
 -17672209.881 9 -13755420.80948  21614176.631    21614177.3224   21614183.5384
      2404.994        1874.021
  -4706353.933 9  -3659925.85348  20255675.815    20255676.4834   20255681.8434
       114.458          89.188
   9553822.580 9   7443342.98147  22272309.178    22272309.9764   22272316.0714
     -2893.275       -2254.500
   1077721.062 9    846002.68747  22684477.443    22684478.7944   22684483.6344
     -1842.131       -1435.427
  -8349781.094 9  -6493890.74948  20250933.614    20250934.1954   20250939.5724
       312.335         243.378
 -15141506.988 9 -10905904.99747  22714745.136    22714746.2344   22714752.2984
      3511.103        2735.924
 96 10  8 16 59 59.9980000  0  9  1 28 22 21 17  6 26 23  3         -0.001212126
  -6407151.069 8  -4978725.30545  24132566.433    24132567.2614   24132574.9914
      4201.238        3273.692
 -14041412.379 9 -10925402.612 9  20087684.006    20087684.791    20087689.802
      1003.981         782.323
   -813642.976 9   -625325.73046  23716453.170    23716453.5184   23716460.8604
     -1173.258        -914.227
 -17744241.337 9 -13811549.19248  21600469.489    21600470.1664   21600476.4054
      2396.190        1867.161
  -4709666.854 9  -3662507.35948  20255045.440    20255046.0494   20255051.4204
       105.550          82.247
   9640743.845 9   7511073.79747  22288849.755    22288850.5974   22288856.6824
     -2902.523       -2261.706
   1133197.998 9    889231.45047  22695034.335    22695035.7044   22695040.5214
     -1857.218       -1447.183
  -8359001.690 9  -6501075.62348  20249178.972    20249179.5534   20249184.9584
       301.434         234.884
 -15246708.499 9 -10987880.18647  22694726.284    22694727.0634   22694733.1164
      3501.257        2728.252
 96 10  8 17  0 29.9980000  0  9  1 28 22 21 17  6 26 23  3         -0.001221703
  -6533210.812 8  -5076953.61145  24108577.351    24108578.8954   24108586.4424
      4202.497        3274.673
 -14071256.688 9 -10948657.924 9  20082004.652    20082005.614    20082010.622
       985.453         767.885
   -778309.298 9   -597793.03446  23723177.037    23723177.2864   23723184.6754
     -1182.381        -921.336
 -17816020.865 9 -13867481.26748  21586810.230    21586810.9734   21586817.1714
      2388.862        1861.451
  -4712726.606 9  -3664891.58748  20254463.216    20254463.7994   20254469.1814
        98.243          76.553
   9727942.239 9   7579020.55547  22305443.010    22305443.9614   22305450.0124
     -2910.906       -2268.238
   1189110.792 9    932799.84147  22705674.205    22705675.5694   22705680.3734
     -1870.462       -1457.503
  -8367906.835 9  -6508014.69248  20247484.270    20247484.9084   20247490.3494
       292.116         227.623
 -15351623.987 9 -11069632.50047  22674761.357    22674762.2724   22674768.3344
      3492.903        2721.743
 96 10  8 17  0 59.9980000  0  9  1 28 22 21 17  6 26 23  3         -0.001231285
  -6659281.413 8  -5175190.37245  24084587.209    24084588.5244   24084596.0294
      4202.577        3274.735
 -14100519.443 9 -10971460.075 9  20076436.137    20076437.090    20076442.125
       965.884         752.637
   -742685.502 9   -570034.27846  23729955.986    23729956.3144   23729963.6814
     -1192.046        -928.867
 -17887546.937 9 -13923215.84648  21573199.314    21573200.0004   21573206.1634
      2379.902        1854.469
  -4715542.139 9  -3667085.51348  20253927.402    20253928.0174   20253933.4134
        90.085          70.196
   9815419.413 9   7647184.54447  22322089.632    22322090.3694   22322096.3244
     -2920.591       -2275.785
   1245445.912 9    976697.31947  22716394.405    22716395.7754   22716400.5674
     -1884.830       -1468.699
  -8376509.474 9  -6514718.04548  20245847.214    20245847.8864   20245853.3294
       281.762         219.555
 -15456260.024 9 -11151167.06247  22654849.545    22654850.6334   22654856.7434
      3483.123        2714.122
 96 10  8 17  1 29.9980000  0  9  1 28 22 21 17  6 26 23  3         -0.001240854
  -6785338.970 9  -5273416.99345  24060599.793    24060600.5584   24060608.0794
      4201.375        3273.799
 -14129184.167 9 -10993796.230 9  20070981.407    20070982.380    20070987.421
       945.237         736.548
   -706766.954 9   -542045.84346  23736790.675    23736791.4324   23736798.8254
     -1202.490        -937.005
 -17958791.005 9 -13978730.67548  21559642.006    21559642.7164   21559648.8204
      2369.857        1846.642
  -4718110.334 9  -3669086.70948  20253438.695    20253439.3234   20253444.6964
        80.993          63.111
   9903202.420 9   7715586.85247  22338794.333    22338795.0054   22338800.9464
     -2931.242       -2284.085
   1302229.473 9   1020944.23047  22727199.864    22727201.3804   22727206.2064
     -1900.609       -1480.994
  -8384791.183 9  -6521171.32148  20244271.282    20244271.9324   20244277.3814
       270.565         210.830
 -15560580.942 9 -11232456.07847  22634997.931    22634998.9344   22635005.1284
      3471.653        2705.184
 96 10  8 17  1 59.9980000  0  9  1 28 22 21 17  6 26 23  3         -0.001250401
  -6911378.276 9  -5371629.37745  24036615.398    24036615.9734   24036623.6154
      4200.876        3273.410
 -14157242.677 9 -11015660.010 9  20065642.100    20065643.004    20065648.050
       925.030         720.803
   -670545.875 9   -513821.66446  23743683.745    23743684.0404   23743691.5564
     -1212.529        -944.828
 -18029750.155 9 -14034023.49548  21546139.072    21546139.6244   21546145.7334
      2360.474        1839.330
  -4720400.428 9  -3670871.20048  20253002.906    20253003.5324   20253008.9314
        71.270          55.535
   9991281.881 9   7784220.17047  22355554.929    22355555.9804   22355561.9644
     -2940.968       -2291.663
   1359474.695 9   1065550.87047  22738093.073    22738094.8154   22738099.6744
     -1915.934       -1492.936
  -8392749.351 9  -6527372.49548  20242756.882    20242757.5694   20242763.0034
       259.635         202.313
 -15664564.877 9 -11313482.50847  22615210.678    22615211.4044   22615217.6154
      3460.283        2696.324
 96 10  8 17  2 29.9980000  0  9  1 28 22 21 17  6 26 23  3         -0.001259939
  -7037411.750 9  -5469837.22946  24012631.338    24012632.6084   24012640.2844
      4201.487        3273.886
 -14184707.641 9 -11037061.288 9  20060415.771    20060416.598    20060421.642
       906.255         706.173
   -634046.383 9   -485380.55246  23750629.234    23750629.6874   23750637.2294
     -1220.471        -951.016
 -18100431.618 9 -14089099.93448  21532688.669    21532689.3824   21532695.4704
      2351.904        1832.652
  -4722405.548 9  -3672433.63448  20252621.294    20252621.9694   20252627.3874
        62.764          48.907
  10079636.309 9   7853067.73047  22372368.172    22372369.2834   22372375.2664
     -2948.886       -2297.833
   1417164.856 9   1110504.22947  22749071.265    22749072.8924   22749077.8054
     -1929.811       -1503.749
  -8400386.889 9  -6533323.82048  20241303.515    20241304.1934   20241309.6254
       249.697         194.569
 -15768216.674 9 -11394250.13247  22595486.203    22595487.1344   22595493.3174
      3450.104        2688.393
 96 10  8 17  2 59.9980000  0  9  1 28 22 21 17  6 26 23  3         -0.001269474
  -7163430.353 8  -5568033.50246  23988650.936    23988652.0704   23988659.6974
      4199.588        3272.406
 -14211593.413 9 -11058011.243 9  20055299.628    20055300.397    20055305.437
       885.842         690.266
   -597289.515 9   -456738.87246  23757623.947    23757624.3344   23757631.8324
     -1230.408        -958.759
 -18170840.490 9 -14143963.95948  21519290.346    21519290.9864   21519297.0924
      2341.863        1824.828
  -4724139.657 9  -3673784.89348  20252291.286    20252291.9764   20252297.3994
        52.578          40.970
  10168236.536 9   7922106.84647  22389228.287    22389229.3574   22389235.4054
     -2958.172       -2305.069
   1475291.506 9   1155797.69947  22760132.403    22760134.0424   22760138.9514
     -1945.481       -1515.959
  -8407706.834 9  -6539027.66648  20239910.494    20239911.2244   20239916.6994
       237.984         185.442
 -15871535.625 9 -11474758.38547  22575824.943    22575826.1734   22575832.3674
      3437.474        2678.551
 96 10  8 17  3 29.9980000  0  9  1 28 22 21 17  6 26 23  3         -0.001278982
  -7289408.362 9  -5666198.12846  23964678.128    23964679.1764   23964686.8224
      4198.535        3271.586
 -14237879.080 9 -11078493.589 9  20050297.579    20050298.410    20050303.470
       866.093         674.878
   -560241.608 9   -427870.41546  23764673.810    23764674.3054   23764681.8024
     -1239.932        -966.181
 -18240972.001 9 -14198611.86848  21505944.635    21505945.3714   21505951.4714
      2333.135        1818.027
  -4725576.524 9  -3674904.53548  20252017.916    20252018.5444   20252023.9964
        42.696          33.270
  10257099.153 9   7991350.39947  22406138.162    22406139.3694   22406145.4604
     -2966.385       -2311.469
   1533877.049 9   1201448.74547  22771280.808    22771282.5534   22771287.4414
     -1960.574       -1527.720
  -8414693.954 9  -6544472.17448  20238580.902    20238581.6374   20238587.0954
       227.300         177.117
 -15974487.157 9 -11554980.35447  22556234.298    22556235.1734   22556241.3004
      3425.573        2669.278
 96 10  8 17  3 59.9980000  0  9  1 28 22 21 17  6 26 23  3         -0.001288474
  -7415360.315 9  -5764342.46446  23940709.986    23940711.2944   23940719.0554
      4198.404        3271.484
 -14263572.217 9 -11098514.218 9  20045408.344    20045409.171    20045414.241
       846.810         659.852
   -522910.602 9   -398781.36246  23771778.047    23771778.1644   23771785.6894
     -1248.692        -973.007
 -18310838.880 9 -14253053.56648  21492649.328    21492650.1274   21492656.2304
      2324.731        1811.479
  -4726717.228 9  -3675793.39748  20251800.869    20251801.4994   20251806.9404
        33.671          26.237
  10346210.309 9   8060787.63447  22423095.458    22423096.6934   22423102.7984
     -2974.295       -2317.632
   1592917.968 9   1247454.62647  22782516.183    22782517.7054   22782522.5944
     -1975.275       -1539.175
  -8421349.771 9  -6549658.52248  20237314.422    20237315.0894   20237320.5444
       216.474         168.681
 -16077085.399 9 -11634927.02047  22536710.627    22536711.3764   22536717.4694
      3414.410        2660.579
 96 10  8 17  4 29.9980000  0  9  1 28 22 21 17  6 26 23  3         -0.001297958
  -7541294.037 9  -5862472.58446  23916746.002    23916746.8204   23916754.6634
      4197.244        3270.580
 -14288672.432 9 -11118072.833 9  20040631.961    20040632.784    20040637.838
       826.633         644.130
   -485300.082 9   -369474.50046  23778934.852    23778935.2644   23778942.7244
     -1258.491        -980.642
 -18380436.464 9 -14307285.41948  21479405.322    21479406.0994   21479412.2454
      2315.388        1804.198
  -4727581.916 9  -3676467.18348  20251636.376    20251636.9694   20251642.3984
        24.096          18.776
  10435570.368 9   8130418.82047  22440100.045    22440101.3704   22440107.4804
     -2982.807       -2324.265
   1652403.080 9   1293806.64347  22793835.920    22793837.3024   22793842.2324
     -1990.191       -1550.798
  -8427662.978 9  -6554577.89848  20236113.178    20236113.7574   20236119.1864
       204.581         159.414
 -16179336.920 9 -11714603.51947  22517252.952    22517253.5894   22517259.5734
      3402.570        2651.353
 96 10  8 17  4 59.9980000  0  9  1 28 22 21 17  6 26 23  3         -0.001307446
  -7667217.965 9  -5960595.07046  23892783.745    23892784.2024   23892792.2084
      4197.511        3270.788
 -14313186.813 9 -11137174.953 9  20035966.903    20035967.869    20035972.898
       807.396         629.140
   -447410.682 9   -339950.33046  23786145.044    23786145.4854   23786152.8204
     -1267.612        -987.750
 -18449784.865 9 -14361323.10948  21466208.645    21466209.5184   21466215.6674
      2307.522        1798.069
  -4728171.583 9  -3676926.67248  20251524.158    20251524.7754   20251530.1914
        15.036          11.716
  10525160.838 9   8200229.54847  22457148.745    22457149.9024   22457156.0654
     -2990.141       -2329.980
   1712305.539 9   1340483.85647  22805235.285    22805236.3874   22805241.2964
     -2003.459       -1561.137
  -8433648.162 9  -6559241.67948  20234974.223    20234974.8024   20234980.2444
       194.282         151.388
 -16281257.057 9 -11794021.78847  22497858.050    22497858.8264   22497864.7474
      3391.954        2643.081
 96 10  8 17  5 29.9980000  0  9  1 28 22 21 17  6 26 23  3         -0.001316945
  -7793134.813 9  -6058712.03046  23868822.254    23868822.9244   23868831.0024
      4196.708        3270.162
 -14337106.920 9 -11155814.002 9  20031415.162    20031416.039    20031421.071
       787.070         613.301
   -409243.617 9   -310209.80546  23793408.182    23793408.4934   23793415.7624
     -1276.989        -995.056
 -18518871.759 9 -14415157.02648  21453062.020    21453062.6804   21453068.8324
      2298.052        1790.690
  -4728476.683 9  -3677164.41648  20251466.088    20251466.7604   20251472.1454
         5.054           3.938
  10614990.315 9   8270226.50847  22474242.692    22474243.9704   22474250.1134
     -2998.438       -2336.445
   1772614.558 9   1387477.87747  22816711.784    22816712.8294   22816717.7824
     -2017.329       -1571.945
  -8439304.281 9  -6563649.03748  20233897.874    20233898.4704   20233903.8944
       182.578         142.269
 -16382853.790 9 -11873188.06147  22478524.827    22478525.6084   22478531.4674
      3380.989        2634.537
 96 10  8 17  5 59.9980000  0  9  1 28 22 21 17  6 26 23  3         -0.001326465
  -7919038.484 9  -6156818.71846  23844862.714    23844864.2124   23844872.2914
      4196.551        3270.040
 -14360424.122 9 -11173983.253 9  20026978.072    20026978.916    20026983.978
       767.295         597.892
   -370803.711 9   -280256.66246  23800722.846    23800723.3234   23800730.7184
     -1285.779       -1001.906
 -18587685.848 9 -14468778.36848  21439967.097    21439967.8294   21439973.9654
      2289.436        1783.976
  -4728492.302 9  -3677176.59048  20251463.154    20251463.8184   20251469.1744
        -4.036          -3.145
  10705059.932 9   8340410.59147  22491382.255    22491383.7314   22491389.8324
     -3006.253       -2342.535
   1833321.121 9   1434781.66747  22828263.669    22828264.9034   22828269.8894
     -2029.805       -1581.666
  -8444618.121 9  -6567789.68848  20232886.618    20232887.3124   20232892.7154
       171.814         133.881
 -16484136.306 9 -11952109.48247  22459251.129    22459252.2374   22459258.0094
      3371.082        2626.817
 96 10  8 17  6 29.9980000  0  9  1 28 22 21 17  6 26 23  3         -0.001336008
  -8044917.110 9  -6254905.88446  23820908.858    23820910.2304   23820918.3024
      4195.371        3269.120
 -14383146.366 9 -11191688.900 9  20022654.165    20022655.023    20022660.086
       747.699         582.623
   -332092.987 9   -250092.50746  23808089.307    23808089.8294   23808097.1944
     -1294.695       -1008.853
 -18656239.663 9 -14522196.89048  21426921.835    21426922.4734   21426928.6024
      2281.004        1777.406
  -4728231.918 9  -3676973.70048  20251512.745    20251513.3994   20251518.7104
       -13.104         -10.211
  10795360.683 9   8410774.77647  22508566.388    22508567.4974   22508573.5634
     -3013.666       -2348.311
   1894391.495 9   1482368.94047  22839884.960    22839886.2034   22839891.2484
     -2041.484       -1590.767
  -8449620.878 9  -6571687.93748  20231934.643    20231935.3074   20231940.6994
       161.973         126.213
 -16585120.532 9 -12030798.47447  22440034.871    22440035.6084   22440041.3774
      3361.298        2619.193
 96 10  8 17  6 59.9980000  0  9  1 28 22 21 17  6 26 23  3         -0.001345560
  -8170740.919 9  -6352950.34346  23796965.522    23796966.7134   23796974.7884
      4193.627        3267.761
 -14405265.280 9 -11208924.425 9  20018445.258    20018445.963    20018450.998
       727.568         566.936
   -293103.400 9   -219711.04946  23815509.155    23815509.3524   23815516.6574
     -1303.846       -1015.984
 -18724527.771 9 -14575408.37848  21413927.095    21413927.7004   21413933.8024
      2272.073        1770.446
  -4727690.080 9  -3676551.49548  20251615.865    20251616.5364   20251621.8114
       -22.129         -17.243
  10885910.248 9   8481332.84047  22525797.238    22525798.5494   22525804.6194
     -3022.162       -2354.931
   1955831.684 9   1530244.37547  22851576.334    22851577.8864   22851582.9134
     -2053.873       -1600.421
  -8454324.461 9  -6575353.06248  20231039.650    20231040.2764   20231045.6094
       152.202         118.599
 -16685790.594 9 -12109242.66947  22420878.056    22420878.7444   22420884.4944
      3350.655        2610.900
 96 10  8 17  7 29.9980000  0  9  1 28 22 21 17  6 26 23  3         -0.001355122
  -8296512.134 9  -6450953.80246  23773032.653    23773033.1784   23773041.2544
      4191.325        3265.968
 -14426781.908 9 -11225690.629 9  20014350.795    20014351.484    20014356.507
       707.140         551.018
   -253851.455 9   -189125.15046  23822978.465    23822978.7864   23822986.1394
     -1312.834       -1022.988
 -18792545.073 9 -14628408.84648  21400983.838    21400984.4264   21400990.5314
      2262.835        1763.248
  -4726889.189 9  -3675927.43148  20251768.264    20251768.9304   20251774.2134
       -31.146         -24.270
  10976707.299 9   8552083.75247  22543075.077    22543076.6474   22543082.8264
     -3030.549       -2361.467
   2017647.566 9   1578412.57147  22863339.388    22863341.0884   22863346.0824
     -2067.013       -1610.659
  -8458734.110 9  -6578789.15348  20230200.503    20230201.1494   20230206.4664
       142.171         110.782
 -16786145.537 9 -12187441.30447  22401780.830    22401781.8474   22401787.5634
      3339.784        2602.429
 96 10  8 17  7 59.9980000  0  9  1 28 22 21 17  6 26 23  3         -0.001364679
  -8422220.707 9  -6548908.45746  23749110.994    23749111.5464   23749119.6514
      4188.600        3263.844
 -14447692.300 9 -11241984.442 9  20010371.532    20010372.362    20010377.378
       686.358         534.824
   -214329.497 9   -158328.85846  23830499.366    23830499.6154   23830506.9924
     -1322.503       -1030.522
 -18860298.103 9 -14681203.38348  21388090.795    21388091.4454   21388097.5464
      2253.408        1755.902
  -4725825.849 9  -3675098.86248  20251970.625    20251971.3034   20251976.5714
       -40.264         -31.375
  11067745.454 9   8623022.54747  22560399.057    22560400.6054   22560406.8534
     -3039.130       -2368.153
   2079856.326 9   1626886.90947  22875177.099    22875179.0534   22875184.0254
     -2080.811       -1621.411
  -8462860.931 9  -6582004.85448  20229415.107    20229415.8194   20229421.1484
       132.356         103.135
 -16886169.453 9 -12265381.99247  22382747.140    22382747.9674   22382753.6234
      3327.850        2593.130
 96 10  8 17  8 29.9980000  0  9  1 28 22 21 17  6 26 23  3         -0.001374227
  -8547860.933 9  -6646809.84846  23725202.435    23725202.9684   23725211.0084
      4187.302        3262.833
 -14468001.851 9 -11257810.071 9  20006506.737    20006507.602    20006512.611
       667.319         519.989
   -174543.285 9   -127326.65946  23838070.607    23838070.7554   23838078.1534
     -1330.185       -1036.508
 -18927787.225 9 -14733792.28748  21375248.181    21375248.6994   21375254.7444
      2245.496        1749.737
  -4724510.453 9  -3674073.88348  20252221.021    20252221.6124   20252226.9084
       -47.817         -37.260
  11159012.501 9   8694139.68947  22577766.851    22577768.1984   22577774.4634
     -3045.610       -2373.203
   2142457.124 9   1675666.72047  22887090.052    22887091.6334   22887096.5804
     -2092.798       -1630.752
  -8466706.237 9  -6585001.19248  20228683.369    20228684.0544   20228689.4224
       123.506          96.238
 -16985847.374 9 -12343053.09547  22363779.259    22363779.9234   22363785.5324
      3316.992        2584.669
 96 10  8 17  8 59.9980000  0  9  1 28 22 21 17  6 26 23  3         -0.001383767
  -8673434.170 9  -6744659.04246  23701306.643    23701307.1004   23701315.1104
      4184.954        3261.003
 -14487703.308 9 -11273161.864 9  20002757.653    20002758.551    20002763.546
       646.743         503.956
   -134497.031 9    -96121.82146  23845691.531    23845691.3894   23845698.7724
     -1338.963       -1043.348
 -18995001.012 9 -14786166.64248  21362457.861    21362458.3104   21362464.3374
      2235.960        1742.306
  -4722929.035 9  -3672841.62148  20252521.891    20252522.5414   20252527.8604
       -57.080         -44.478
  11250504.617 9   8765432.21047  22595177.279    22595178.5664   22595184.8854
     -3053.186       -2379.106
   2205465.217 9   1724763.89947  22899080.174    22899081.7034   22899086.6824
     -2107.032       -1641.843
  -8470245.515 9  -6587759.07448  20228009.792    20228010.5194   20228015.9104
       113.012          88.061
 -17085163.514 9 -12420442.28247  22344880.017    22344880.7234   22344886.3214
      3304.713        2575.101
 96 10  8 17  9 29.9980000  0  9  1 28 22 21 17  6 26 23  3         -0.001393304
  -8798949.844 9  -6842463.37846  23677421.316    23677422.1454   23677430.1824
      4182.961        3259.450
 -14506799.910 9 -11288042.337 9  19999123.637    19999124.587    19999129.590
       626.672         488.316
    -94197.114 9    -64719.32246  23853360.339    23853360.1634   23853367.6084
     -1347.450       -1049.961
 -19061938.421 9 -14838325.63448  21349719.979    21349720.4964   21349726.5314
      2226.916        1735.259
  -4721072.366 9  -3671394.86548  20252875.157    20252875.8424   20252881.1874
       -66.601         -51.897
  11342203.479 9   8836885.82547  22612627.102    22612628.2374   22612634.6144
     -3059.848       -2384.297
   2268888.825 9   1774184.87447  22911149.399    22911150.7964   22911155.8114
     -2120.793       -1652.566
  -8473477.148 9  -6590277.22348  20227394.824    20227395.5634   20227400.9684
       102.788          80.095
 -17184125.134 9 -12497555.22047  22326048.179    22326048.9904   22326054.5434
      3293.012        2565.983
 96 10  8 17  9 59.9980000  0  9  1 28 22 21 17  6 26 23  3         -0.001402835
  -8924401.881 9  -6940218.14046  23653548.416    23653549.2824   23653557.3044
      4180.895        3257.840
 -14525290.406 9 -11302450.520 9  19995605.075    19995605.963    19995610.944
       606.378         472.502
    -53628.681 9    -33107.58446  23861080.169    23861080.0634   23861087.5434
     -1356.715       -1057.180
 -19128595.743 9 -14890266.37248  21337035.469    21337036.0024   21337042.0294
      2217.199        1727.688
  -4718920.833 9  -3669718.35148  20253284.632    20253285.2404   20253290.6264
       -76.441         -59.564
  11434111.833 9   8908502.69047  22630116.617    22630117.8564   22630124.2454
     -3067.163       -2389.997
   2332721.863 9   1823924.87847  22923296.215    22923297.8544   22923302.8844
     -2134.312       -1663.100
  -8476393.626 9  -6592549.80448  20226839.905    20226840.6034   20226845.9644
        91.941          71.642
 -17282727.753 9 -12574388.42047  22307284.737    22307285.5404   22307291.1054
      3280.927        2556.566
 96 10  8 17 10 29.9980000  0 10  1 28 22 21 17  6 26 23  9  3      -0.001412359
  -9049785.471 9  -7037919.56546  23629688.799    23629689.4054   23629697.5504
      4178.572        3256.030
 -14543170.250 9 -11316382.872 9  19992202.662    19992203.551    19992208.532
       586.055         456.666
    -12786.653 9     -1282.66446  23868852.291    23868852.0874   23868859.6144
     -1365.642       -1064.137
 -19194962.256 9 -14941980.51048  21324406.347    21324406.8484   21324412.8534
      2207.671        1720.263
  -4716467.702 9  -3667806.82648  20253751.519    20253752.0894   20253757.4594
       -86.639         -67.511
  11526244.355 9   8980294.22547  22647649.088    22647650.1644   22647656.4684
     -3074.584       -2395.780
   2396960.484 9   1873980.91347  22935520.483    22935522.0484   22935527.0724
     -2147.725       -1673.552
  -8478982.682 9  -6594567.24548  20226347.207    20226347.9244   20226353.3054
        81.260          63.319
  -2052816.08718  -1587913.69456  24659571.766    24659572.6975   24659579.9635
      2655.122        2068.926
 -17380972.661 9 -12650942.87947  22288589.406    22288590.1004   22288595.7374
      3269.063        2547.322
 96 10  8 17 10 59.9980000  0 10  1 28 22 21 17  6 26 23  9  3      -0.001421872
  -9175103.480 9  -7135569.88746  23605841.312    23605842.0434   23605850.2074
      4175.955        3253.991
 -14560439.270 9 -11329839.255 9  19988916.427    19988917.390    19988922.337
       565.245         440.451
     28321.036 9     30749.27446  23876674.684    23876674.5744   23876682.2444
     -1374.824       -1071.291
 -19261040.025 9 -14993469.65548  21311832.079    21311832.6364   21311838.6684
      2197.646        1712.451
  -4713703.999 9  -3665653.29148  20254277.314    20254277.9734   20254283.3694
       -97.603         -76.054
  11618605.561 9   9052263.95447  22665224.483    22665225.9094   22665232.2234
     -3082.664       -2402.076
   2461606.615 9   1924354.49647  22947822.072    22947823.8454   22947828.8564
     -2161.914       -1684.608
  -8481265.507 9  -6596346.06548  20225912.871    20225913.5404   20225918.9034
        70.949          55.285
  -2132401.042 9  -1649927.89146  24644427.519    24644428.2994   24644435.3694
      2650.599        2065.402
 -17478855.177 9 -12727214.95547  22269963.072    22269963.6224   22269969.3214
      3256.342        2537.409
 96 10  8 17 11 29.9980000  0 10  1 28 22 21 17  6 26 23  9  3      -0.001431362
  -9300336.999 9  -7233154.38846  23582009.668    23582010.8134   23582018.8434
      4173.348        3251.959
 -14577081.110 9 -11342806.930 9  19985749.577    19985750.572    19985755.526
       544.606         424.368
     69703.760 9     62995.51046  23884549.200    23884549.3414   23884557.0984
     -1383.549       -1078.090
 -19326820.001 9 -15044726.75048  21299314.526    21299315.1004   21299321.1134
      2188.196        1705.088
  -4710609.264 9  -3663241.81748  20254866.236    20254866.8704   20254872.2734
      -108.352         -84.430
  11711209.545 9   9124422.85747  22682846.205    22682847.8764   22682854.1954
     -3090.600       -2408.260
   2526669.196 9   1975052.58247  22960203.169    22960204.8794   22960209.8234
     -2175.122       -1694.900
  -8483233.048 9  -6597879.21148  20225538.402    20225539.0994   20225544.5124
        60.637          47.250
  -2211850.533 8  -1711836.55446  24629309.058    24629309.5464   24629316.5914
      2646.345        2062.087
 -17576347.999 9 -12803183.38147  22251410.510    22251411.3494   22251417.0374
      3243.475        2527.383
 96 10  8 17 11 59.9980000  0 10  1 28 22 21 17  6 26 23  9  3      -0.001440848
  -9425515.766 9  -7330696.21946  23558188.601    23558189.9924   23558198.0404
      4171.443        3250.475
 -14593120.693 9 -11355305.309 9  19982697.401    19982698.338    19982703.294
       524.355         408.588
    111322.692 9     95425.81946  23892469.582    23892469.1124   23892477.0034
     -1391.397       -1084.205
 -19392333.096 9 -15095775.89148  21286847.764    21286848.3924   21286854.3524
      2179.111        1698.009
  -4707215.189 9  -3660597.08648  20255512.173    20255512.7804   20255518.1524
      -118.158         -92.071
  11804036.611 9   9196755.58847  22700510.457    22700512.2944   22700518.6104
     -3098.167       -2414.156
   2592100.621 9   2026038.07147  22972654.228    22972656.0384   22972661.0394
     -2187.381       -1704.453
  -8484914.806 9  -6599189.66648  20225218.327    20225219.0974   20225224.4934
        51.201          39.897
  -2291190.921 8  -1773660.16646  24614210.789    24614211.3744   24614218.4034
      2642.594        2059.164
 -17673463.587 9 -12878857.86347  22232929.987    22232930.8584   22232936.5224
      3230.517        2517.286
 96 10  8 17 12 29.9980000  0 10  1 28 22 21 17  6 26 23  9  3      -0.001450321
  -9550622.375 9  -7428181.83746  23534381.730    23534382.8974   23534390.9224
      4168.648        3248.297
 -14608545.963 9 -11367325.006 9  19979762.111    19979763.007    19979767.970
       503.614         392.426
    153172.821 9    128036.27146  23900433.422    23900432.9584   23900440.8184
     -1399.024       -1090.149
 -19457582.117 9 -15146619.26248  21274431.284    21274431.9194   21274437.8404
      2170.449        1691.259
  -4703521.259 9  -3657718.70048  20256215.185    20256215.7394   20256221.1144
      -128.556        -100.174
  11897095.273 9   9269268.78547  22718219.336    22718220.8484   22718227.1444
     -3105.882       -2420.168
   2657907.707 9   2077316.28647  22985176.973    22985178.6334   22985183.7374
     -2200.004       -1714.289
  -8486313.224 9  -6600279.33448  20224952.252    20224952.9644   20224958.3594
        41.602          32.417
  -2370408.714 8  -1835388.23446  24599135.803    24599136.6334   24599143.7164
      2638.383        2055.883
 -17770178.955 9 -12954220.47847  22214525.700    22214526.5264   22214532.1794
      3216.709        2506.526
 96 10  8 17 12 59.9980000  0 10  1 28 22 21 17  6 26 23  9  3      -0.001459785
  -9675654.105 9  -7525609.09146  23510589.364    23510590.1234   23510598.1274
      4166.551        3246.663
 -14623353.237 9 -11378863.148 9  19976944.336    19976945.259    19976950.252
       483.311         376.606
    195246.435 9    160820.87946  23908439.502    23908439.2854   23908447.2264
     -1406.092       -1095.656
 -19522575.882 9 -15197263.72748  21262063.231    21262063.9974   21262069.9334
      2162.352        1684.950
  -4699524.092 9  -3654604.03048  20256975.820    20256976.3994   20256981.7874
      -138.028        -107.554
  11990372.511 9   9341952.29246  22735969.462    22735970.9784   22735977.2544
     -3112.892       -2425.630
   2724086.306 9   2128883.99947  22997770.585    22997771.9944   22997777.1564
     -2212.047       -1723.673
  -8487423.610 9  -6601144.56848  20224740.937    20224741.6354   20224747.0164
        32.108          25.019
  -2449503.365 9  -1897020.37346  24584084.814    24584085.3824   24584092.4914
      2634.381        2052.764
 -17866486.247 9 -13029265.10447  22196199.020    22196199.8204   22196205.5194
      3203.733        2496.415
 96 10  8 17 13 29.9980000  0 10  1 28 22 21 17  6 26 23  9  3      -0.001469254
  -9800614.332 9  -7622980.65946  23486809.949    23486811.0354   23486818.9644
      4164.222        3244.848
 -14637547.610 9 -11389923.705 9  19974243.180    19974244.133    19974249.168
       463.058         360.824
    237536.256 9    193773.95246  23916486.998    23916486.8814   23916494.7104
     -1413.274       -1101.252
 -19587327.530 9 -15247719.53148  21249741.333    21249742.1534   21249748.1004
      2154.369        1678.729
  -4695251.439 9  -3651274.69548  20257788.834    20257789.4834   20257794.8484
      -146.741        -114.344
  12083865.386 9   9414803.84346  22753760.421    22753762.0724   22753768.4074
     -3120.023       -2431.187
   2790631.687 9   2180737.50847  23010433.584    23010435.1704   23010440.2954
     -2224.296       -1733.218
  -8488238.765 9  -6601779.74948  20224585.793    20224586.5194   20224591.8754
        22.340          17.408
  -2528474.032 9  -1958555.87746  24569057.194    24569057.7104   24569064.6954
      2630.383        2049.649
 -17962413.282 9 -13104013.43047  22177944.408    22177945.4764   22177951.2164
      3191.509        2486.890
 96 10  8 17 13 59.9980000  0 10  1 28 22 21 17  6 26 23  9  3      -0.001478723
  -9925499.383 9  -7720293.63446  23463045.472    23463046.2444   23463054.0574
      4161.767        3242.935
 -14651132.944 9 -11400509.686 9  19971658.026    19971658.947    19971663.976
       443.053         345.236
    280048.347 9    226900.21746  23924576.347    23924576.7804   23924584.4654
     -1420.539       -1106.914
 -19651829.426 9 -15297980.72948  21237467.000    21237467.8144   21237473.7744
      2146.218        1672.378
  -4690715.386 9  -3647740.11748  20258652.047    20258652.7094   20258658.0394
      -155.313        -121.023
  12177569.546 9   9487820.02946  22771591.395    22771593.3764   22771599.7304
     -3126.446       -2436.192
   2857554.737 9   2232885.30347  23023169.050    23023170.2554   23023175.3844
     -2236.776       -1742.942
  -8488762.312 9  -6602187.70248  20224486.081    20224486.8564   20224492.2534
        12.843          10.008
  -2607317.660 9  -2019992.41846  24554053.823    24554054.3324   24554061.2364
      2626.273        2046.446
 -18057975.295 9 -13178477.31947  22159759.418    22159760.5834   22159766.3774
      3179.708        2477.695
 96 10  8 17 14 29.9980000  0 10  1 28 22 21 17  6 26 23  9  3      -0.001488188
 -10050287.365 9  -7817530.97646  23439299.314    23439299.9374   23439307.7154
      4158.268        3240.209
 -14664107.870 9 -11410620.023 9  19969189.087    19969189.930    19969194.945
       422.596         329.296
    322792.263 9    260207.13546  23932710.094    23932710.7354   23932718.3154
     -1428.324       -1112.980
 -19716083.561 9 -15348048.85748  21225239.794    21225240.6174   21225246.5904
      2137.854        1665.860
  -4685901.499 9  -3643989.03848  20259568.138    20259568.8064   20259574.0984
      -164.952        -128.534
  12271476.856 9   9560994.49546  22789461.773    22789463.3474   22789469.6804
     -3133.174       -2441.434
   2924868.998 9   2285337.93547  23035978.429    23035979.7734   23035984.9424
     -2250.168       -1753.378
  -8488977.849 9  -6602355.64748  20224445.049    20224445.7994   20224451.2044
         2.146           1.672
  -2686030.688 9  -2081327.17346  24539075.326    24539075.8324   24539082.5774
      2621.954        2043.081
 -18153174.394 9 -13252658.41347  22141643.614    22141644.7754   22141650.6034
      3167.497        2468.179
 96 10  8 17 14 59.9980000  0 10  1 28 22 21 17  6 26 23  9  3      -0.001497655
 -10174982.357 9  -7914695.86346  23415570.139    23415571.2724   23415579.0054
      4154.648        3237.388
 -14676477.796 9 -11420258.939 9  19966835.168    19966836.018    19966841.048
       402.161         313.372
    365761.469 9    293689.60646  23940886.939    23940887.5454   23940895.0514
     -1436.133       -1119.065
 -19780084.111 9 -15397919.39348  21213060.937    21213061.6954   21213067.6484
      2128.875        1658.864
  -4680811.027 9  -3640022.44548  20260536.854    20260537.4954   20260542.7954
      -174.289        -135.810
  12365576.649 9   9634318.95446  22807368.637    22807369.9364   22807376.3134
     -3140.171       -2446.886
   2992576.235 9   2338096.78647  23048862.971    23048864.1234   23048869.2484
     -2263.579       -1763.828
  -8488880.084 9  -6602279.46348  20224463.689    20224464.3954   20224469.8034
        -8.549          -6.662
  -2764618.483 9  -2142564.36246  24524120.597    24524121.0234   24524127.6404
      2617.296        2039.451
 -18248016.148 9 -13326561.06247  22123595.691    22123597.0124   22123602.8114
      3155.432        2458.778
 96 10  8 17 15 29.9980000  0 10  1 28 22 21 17  6 26 23  9  3      -0.001507099
 -10299544.049 9  -8011756.88146  23391866.888    23391867.9214   23391875.6404
      4149.979        3233.750
 -14688215.988 9 -11429405.591 9  19964601.475    19964602.334    19964607.350
       380.889         296.797
    408987.445 9    327372.15346  23949112.432    23949113.2394   23949120.7424
     -1445.076       -1126.033
 -19843790.646 9 -15447560.82348  21200937.933    21200938.7144   21200944.6784
      2118.589        1650.849
  -4675411.690 9  -3635815.17448  20261564.260    20261564.9494   20261570.2344
      -185.318        -144.404
  12459898.407 9   9707816.37746  22825317.489    22825318.7864   22825325.1914
     -3147.319       -2452.456
   3060702.814 9   2391182.40747  23061827.439    23061828.2964   23061833.3354
     -2277.527       -1774.696
  -8488443.962 9  -6601939.62048  20224546.645    20224547.3804   20224552.7884
       -19.909         -15.514
  -2843051.400 9  -2203680.87146  24509195.519    24509195.7564   24509202.4114
      2612.151        2035.442
 -18342470.142 9 -13400161.55447  22105621.590    22105622.9854   22105628.7624
      3141.787        2448.146
 96 10  8 17 15 59.9980000  0 10  1 28 22 21 17  6 26 23  9  3      -0.001516535
 -10423994.098 9  -8108730.90146  23368184.167    23368185.7574   23368193.5114
      4146.397        3230.959
 -14699341.107 9 -11438074.523 9  19962484.386    19962485.303    19962490.331
       360.485         280.897
    452450.477 9    361239.41446  23957383.037    23957384.0784   23957391.5764
     -1452.529       -1131.841
 -19907210.501 9 -15496978.86948  21188869.511    21188870.3104   21188876.2654
      2109.289        1643.602
  -4669698.040 9  -3631362.98448  20262651.584    20262652.2414   20262657.5124
      -195.743        -152.527
  12554403.986 9   9781457.04146  22843301.559    22843302.6544   22843309.0474
     -3153.314       -2457.128
   3129206.496 9   2444561.86547  23074863.398    23074864.1654   23074869.2584
     -2289.520       -1784.042
  -8487695.395 9  -6601356.31148  20224689.057    20224689.8354   20224695.2224
       -30.243         -23.566
  -2921350.916 9  -2264693.45646  24494295.105    24494295.8674   24494302.4424
      2607.604        2031.899
 -18436526.756 9 -13473452.40247  22087723.340    22087724.5824   22087730.3384
      3128.325        2437.656
 96 10  8 17 16 29.9980000  0 10  1 28 22 21 17  6 26 23  9  3      -0.001525967
 -10548342.586 9  -8205625.78146  23344521.517    23344522.9724   23344530.7014
      4143.550        3228.740
 -14709851.320 9 -11446264.309 9  19960484.271    19960485.258    19960490.303
       340.167         265.065
    496129.468 9    395274.96646  23965695.035    23965695.9384   23965703.3894
     -1459.297       -1137.115
 -19970358.549 9 -15546185.11748  21176852.815    21176853.6284   21176859.5594
      2100.366        1636.649
  -4663680.874 9  -3626674.28748  20263796.677    20263797.2894   20263802.5294
      -205.266        -159.948
  12649095.282 9   9855242.40646  22861320.853    22861321.8424   22861328.2284
     -3159.484       -2461.936
   3198071.160 9   2498222.60147  23087967.987    23087968.7404   23087973.8364
     -2301.464       -1793.349
  -8486638.930 9  -6600533.08748  20224890.097    20224890.8924   20224896.2694
       -39.978         -31.152
  -2999514.844 9  -2325600.38846  24479420.858    24479421.6644   24479428.2234
      2603.242        2028.500
 -18530171.461 9 -13546422.27847  22069903.311    22069904.6404   22069910.3674
      3114.641        2426.993
 96 10  8 17 16 59.9980000  0 10  1 28 22 21 17  6 26 23  9  3      -0.001535401
 -10672618.078 9  -8302463.78246  23320873.464    23320874.1404   23320881.7794
      4141.030        3226.777
 -14719760.525 9 -11453985.777 9  19958598.561    19958599.575    19958604.637
       320.055         249.394
    540003.617 9    429462.58446  23974044.150    23974044.9154   23974052.4194
     -1466.095       -1142.412
 -20033233.203 9 -15595178.33648  21164888.138    21164888.9654   21164894.8904
      2090.835        1629.222
  -4657392.153 9  -3621773.98648  20264993.381    20264993.9654   20264999.2384
      -214.364        -167.037
  12743965.212 9   9929166.98146  22879374.289    22879375.1224   22879381.4024
     -3165.725       -2466.799
   3267278.817 9   2552150.60947  23101137.722    23101138.5394   23101143.6024
     -2312.654       -1802.068
  -8485315.913 9  -6599502.16148  20225141.914    20225142.6634   20225148.0344
       -48.615         -37.882
  -3077555.179 9  -2386411.03346  24464570.109    24464570.9944   24464577.4874
      2599.029        2025.217
 -18623415.560 9 -13619080.00747  22052159.630    22052160.8954   22052166.5714
      3101.305        2416.601
 96 10  8 17 17 29.9980000  0 10  1 28 22 21 17  6 26 23  9  3      -0.001544832
 -10796814.216 9  -8399239.94846  23297239.546    23297240.4054   23297248.0174
      4138.217        3224.585
 -14729057.269 9 -11461230.000 9  19956829.329    19956830.459    19956835.525
       299.192         233.137
    584093.726 9    463818.48746  23982434.657    23982435.0574   23982442.6104
     -1473.741       -1148.370
 -20095809.290 9 -15643938.89948  21152980.197    21152981.1454   21152987.0084
      2080.369        1621.067
  -4650822.380 9  -3616654.68648  20266243.514    20266244.1154   20266249.4404
      -224.229        -174.724
  12839026.397 9  10003240.57246  22897463.781    22897464.6864   22897470.9964
     -3172.264       -2471.894
   3336828.514 9   2606345.14247  23114372.441    23114373.4224   23114378.4374
     -2324.514       -1811.310
  -8483724.541 9  -6598262.12148  20225444.743    20225445.5274   20225450.8754
       -57.989         -45.186
  -3155458.800 8  -2447115.12646  24449745.367    24449746.3124   24449752.9334
      2593.876        2021.202
 -18716245.879 9 -13691415.30347  22034494.623    22034495.8824   22034501.5444
      3086.788        2405.289
 96 10  8 17 17 59.9980000  0 10  1 28 22 21 17  6 26 23  9  3      -0.001554250
 -10920928.166 9  -8495952.07046  23273621.441    23273622.3534   23273629.8324
      4135.013        3222.088
 -14737727.663 9 -11467986.161 9  19955179.457    19955180.532    19955185.584
       277.931         216.570
    628400.454 9    498343.17246  23990866.178    23990866.4024   23990874.0024
     -1481.080       -1154.088
 -20158077.148 9 -15692459.28548  21141131.142    21141131.9534   21141137.8154
      2070.075        1613.045
  -4643959.862 9  -3611307.27948  20267549.406    20267549.9684   20267555.3544
      -234.102        -182.417
  12934295.614 9  10077476.26946  22915592.649    22915593.7284   22915600.2414
     -3179.961       -2477.892
   3406739.141 9   2660820.91647  23127675.797    23127676.8564   23127682.0454
     -2337.163       -1821.166
  -8481851.509 9  -6596802.61248  20225801.210    20225801.9704   20225807.3304
       -67.889         -52.901
  -3233201.538 8  -2507693.86745  24434951.706    24434952.2724   24434958.8924
      2588.006        2016.628
 -18808641.684 9 -13763412.01747  22016912.335    22016913.5424   22016919.1674
      3072.173        2393.901
 96 10  8 17 18 29.9980000  0 10  1 28 22 21 17  6 26 23  9  3      -0.001563649
 -11044942.464 9  -8592586.53946  23250021.819    23250023.3014   23250030.6974
      4132.300        3219.974
 -14745768.463 9 -11474251.728 9  19953649.383    19953650.437    19953655.464
       257.917         200.974
    672929.167 9    533040.84546  23999339.356    23999339.8174   23999347.6154
     -1487.855       -1159.368
 -20220045.706 9 -15740746.45448  21129338.996    21129339.7124   21129345.5764
      2060.841        1605.850
  -4636807.717 9  -3605734.18448  20268910.359    20268911.0064   20268916.3904
      -243.135        -189.456
  13029787.413 9  10151885.40946  22933763.963    22933765.2304   22933771.7024
     -3186.280       -2482.816
   3477027.747 9   2715591.22047  23141051.130    23141052.3164   23141057.5794
     -2348.800       -1830.234
  -8479684.951 9  -6595114.38448  20226213.467    20226214.2484   20226219.5854
       -76.783         -59.831
  -3310779.610 8  -2568144.28046  24420189.068    24420189.6534   24420196.1814
      2583.611        2013.203
 -18900613.279 9 -13835078.18447  21999410.764    21999411.9304   21999417.5334
      3059.144        2383.749
 96 10  8 17 18 59.9980000  0 10  1 28 22 21 17  6 26 23  9  3      -0.001573050
 -11168865.214 9  -8689149.67446  23226439.971    23226441.6244   23226448.9214
      4129.276        3217.618
 -14753203.715 9 -11480045.439 9  19952234.439    19952235.569    19952240.592
       237.895         185.373
    717673.288 9    567906.36046  24007853.726    24007854.2234   24007862.2304
     -1494.928       -1164.879
 -20281727.872 9 -15788810.45148  21117601.321    21117601.9714   21117607.8094
      2051.661        1598.697
  -4629367.220 9  -3599936.39748  20270326.230    20270326.8874   20270332.2764
      -252.855        -197.030
  13125468.308 9  10226441.88846  22951971.818    22951972.8324   22951979.2494
     -3192.281       -2487.492
   3547654.791 9   2770625.24047  23154490.762    23154492.2264   23154497.5054
     -2359.482       -1838.557
  -8477238.531 9  -6593208.07748  20226679.005    20226679.7624   20226685.1164
       -86.360         -67.294
  -3388217.296 8  -2628485.26245  24405453.193    24405453.6914   24405460.2804
      2578.912        2009.542
 -18992197.130 9 -13906442.21447  21981982.948    21981984.0774   21981989.7044
      3046.463        2373.867
 96 10  8 17 19 29.9980000  0 10  1 28 22 21 17  6 26 23  9  3      -0.001582456
 -11292677.121 9  -8785626.43546  23202879.384    23202880.9754   23202888.3244
      4125.270        3214.496
 -14760023.487 9 -11485359.556 9  19950936.761    19950937.815    19950942.849
       217.260         169.293
    762632.745 9    602939.65946  24016408.892    24016409.6994   24016417.7354
     -1501.799       -1170.233
 -20343135.662 9 -15836660.65848  21105915.739    21105916.4284   21105922.2814
      2042.930        1591.894
  -4621617.314 9  -3593897.51948  20271800.947    20271801.6584   20271807.0564
      -263.431        -205.271
  13221331.505 9  10301140.43346  22970214.425    22970215.0984   22970221.4534
     -3198.130       -2492.049
   3618621.891 9   2825924.23747  23167995.238    23167996.8554   23168002.0974
     -2371.082       -1847.596
  -8474480.712 9  -6591059.12648  20227203.816    20227204.5234   20227209.8854
       -96.872         -75.485
  -3465495.419 8  -2688702.01046  24390747.899    24390748.2374   24390754.7984
      2573.486        2005.314
 -19083387.630 9 -13977499.73147  21964629.775    21964631.0774   21964636.7374
      3033.296        2363.607
 96 10  8 17 19 59.9980000  0 10  1 28 22 21 17  6 26 23  9  3      -0.001591865
 -11416356.893 9  -8882000.23246  23179344.231    23179345.5324   23179352.7844
      4120.442        3210.734
 -14766219.946 9 -11490187.977 9  19949757.688    19949758.701    19949763.716
       196.292         152.955
    807796.993 9    638132.55346  24025003.433    24025004.1704   24025012.2464
     -1508.822       -1175.705
 -20404288.984 9 -15884312.58148  21094278.522    21094279.3114   21094285.1664
      2034.404        1585.250
  -4613542.562 9  -3587605.51048  20273337.492    20273338.2074   20273343.6434
      -274.358        -213.785
  13317374.237 9  10375978.86446  22988490.493    22988491.4004   22988497.8494
     -3204.178       -2496.762
   3689936.951 9   2881494.37847  23181566.239    23181567.7384   23181572.9644
     -2382.709       -1856.656
  -8471405.192 9  -6588662.61648  20227788.986    20227789.7464   20227795.1524
      -107.542         -83.799
  -3542611.976 8  -2748792.79846  24376073.083    24376073.4404   24376079.9184
      2568.057        2001.083
 -19174180.370 9 -14048247.31247  21947352.408    21947353.7674   21947359.4434
      3019.989        2353.238
 96 10  8 17 20 29.9980000  0 10  1 28 22 21 17  6 26 23  9  3      -0.001601287
 -11539907.602 9  -8978273.47246  23155833.439    23155834.5954   23155841.8354
      4116.063        3207.322
 -14771806.727 9 -11494541.319 9  19948694.593    19948695.568    19948700.611
       175.855         137.030
    853161.623 9    673481.58846  24033635.688    24033636.7794   24033644.8494
     -1515.646       -1181.023
 -20465201.738 9 -15931777.04448  21082687.081    21082687.9674   21082693.8294
      2026.093        1578.774
  -4605155.264 9  -3581069.96548  20274933.557    20274934.2554   20274939.7034
      -285.159        -222.202
  13413571.633 9  10450937.82346  23006795.946    23006797.1854   23006803.6584
     -3209.297       -2500.751
   3761575.203 9   2937316.34147  23195198.533    23195200.1334   23195205.3344
     -2393.445       -1865.022
  -8468036.350 9  -6586037.54048  20228430.028    20228430.7904   20228436.2104
      -117.177         -91.307
  -3619583.391 8  -2808770.45046  24361425.883    24361426.2214   24361432.7344
      2562.997        1997.141
 -19264590.402 9 -14118696.67547  21930148.038    21930149.3074   21930154.9674
      3007.027        2343.138
 96 10  8 17 20 59.9980000  0 10  1 28 22 21 17  6 26 23  9  3      -0.001610708
 -11663320.200 9  -9074439.06746  23132348.090    23132349.8634   23132357.1734
      4111.533        3203.792
 -14776775.007 9 -11498412.712 9  19947749.170    19947750.105    19947755.187
       155.424         121.110
    898727.805 9    708987.65446  24042306.590    24042307.7854   24042315.7754
     -1521.942       -1185.929
 -20525865.006 9 -15979047.10048  21071143.104    21071144.0644   21071149.9884
      2018.209        1572.630
  -4596433.446 9  -3574273.75148  20276593.268    20276593.9654   20276599.4564
      -296.046        -230.685
  13509928.341 9  10526020.91746  23025132.136    23025133.3024   23025139.7434
     -3214.466       -2504.779
   3833547.439 9   2993398.57047  23208894.596    23208896.0264   23208901.2574
     -2404.760       -1873.839
  -8464383.536 9  -6583191.19248  20229125.155    20229125.8634   20229131.3064
      -126.280         -98.400
  -3696390.482 8  -2868620.06546  24346809.935    24346810.1444   24346816.6994
      2557.429        1992.802
 -19354596.001 9 -14188830.89547  21913020.577    21913021.8224   21913027.4634
      2993.276        2332.423
 96 10  8 17 21 29.9980000  0 10  1 28 22 21 17  6 26 23  9  3      -0.001620109
 -11786582.733 9  -9170487.74546  23108891.885    23108893.6784   23108901.0484
      4106.428        3199.814
 -14781116.493 9 -11501795.699 9  19946922.977    19946923.957    19946929.039
       134.396         104.724
    944492.388 9    744648.34046  24051015.377    24051016.5044   24051024.4554
     -1528.760       -1191.242
 -20586280.762 9 -16026124.29348  21059646.248    21059647.2864   21059653.2234
      2009.798        1566.076
  -4587375.783 9  -3567215.84548  20278316.932    20278317.6194   20278323.0834
      -307.322        -239.472
  13606454.450 9  10601236.01346  23043500.925    23043501.6374   23043508.1564
     -3220.235       -2509.274
   3905887.570 9   3049767.46446  23222660.772    23222661.9144   23222667.1394
     -2417.447       -1883.725
  -8460452.170 9  -6580127.78648  20229873.202    20229873.9604   20229879.4174
      -135.273        -105.407
  -3773015.018 8  -2928327.46446  24332228.586    24332229.1004   24332235.6244
      2551.387        1988.094
 -19444167.370 9 -14258626.76047  21895975.946    21895976.9774   21895982.5794
      2978.468        2320.884
 96 10  8 17 21 59.9980000  0 10  1 28 22 21 17  6 26 23  9  3      -0.001629485
 -11909706.539 9  -9266428.30646  23085462.536    23085463.9354   23085471.2754
      4102.023        3196.381
 -14784839.391 9 -11504696.662 9  19946214.478    19946215.486    19946220.618
       113.981          88.816
    990457.703 9    780465.42446  24059762.833    24059763.3484   24059771.3094
     -1535.435       -1196.443
 -20646449.878 9 -16073009.30148  21048196.428    21048197.4594   21048203.4144
      2001.529        1559.633
  -4577995.622 9  -3559906.63848  20280101.899    20280102.6314   20280108.0684
      -317.723        -247.576
  13703142.969 9  10676577.65946  23061900.253    23061900.9164   23061907.5354
     -3225.477       -2513.359
   3978596.572 9   3106423.78747  23236496.711    23236497.9824   23236503.2444
     -2429.634       -1893.221
  -8456264.312 9  -6576864.51848  20230670.176    20230670.8944   20230676.3174
      -143.744        -112.008
  -3849467.592 9  -2987900.87946  24317680.220    24317680.6734   24317687.2314
      2545.533        1983.532
 -19533301.687 9 -14328082.06047  21879014.158    21879015.3204   21879020.9144
      2964.117        2309.702
 96 10  8 17 22 29.9980000  0 10  1 28 22 21 17  6 26 23  9  3      -0.001638831
 -12032685.418 9  -9362255.95546  23062060.649    23062061.8374   23062069.1144
      4096.603        3192.158
 -14787935.369 9 -11507109.118 9  19945625.292    19945626.334    19945631.499
        92.409          72.007
   1036638.295 9    816450.27646  24068550.878    24068551.2664   24068559.3074
     -1543.206       -1202.498
 -20706352.310 9 -16119686.49948  21036797.302    21036798.3814   21036804.3364
      1991.978        1552.191
  -4568291.707 9  -3552345.15548  20281948.532    20281949.2604   20281954.6864
      -329.148        -256.479
  13800007.697 9  10752056.60846  23080332.598    23080333.7204   23080340.4354
     -3232.030       -2518.465
   4051684.038 9   3163375.01947  23250404.532    23250406.0894   23250411.3314
     -2442.755       -1903.445
  -8451805.872 9  -6573390.40748  20231518.614    20231519.3424   20231524.7334
      -153.536        -119.638
  -3925718.523 9  -3047317.14746  24303170.139    24303170.6054   24303177.0474
      2537.974        1977.642
 -19621992.192 9 -14397191.52347  21862137.087    21862138.0884   21862143.7124
      2948.582        2297.596
 96 10  8 17 22 59.9980000  0 10  1 28 22 21 17  6 26 23  9  3      -0.001648151
 -12155522.414 9  -9457973.04546  23038685.383    23038686.6984   23038693.9594
      4092.509        3188.968
 -14790403.525 9 -11509032.366 9  19945155.650    19945156.691    19945161.841
        71.998          56.102
   1083029.597 9    852599.28746  24077378.807    24077379.3724   24077387.2464
     -1549.686       -1207.548
 -20765984.548 9 -16166153.15948  21025449.739    21025450.7264   21025456.6784
      1983.136        1545.301
  -4558275.341 9  -3544540.20948  20283854.575    20283855.3244   20283860.7754
      -338.555        -263.809
  13897040.805 9  10827666.76646  23098797.694    23098798.6174   23098805.2274
     -3237.011       -2522.346
   4125143.483 9   3220616.10747  23264383.967    23264384.9744   23264390.2494
     -2454.476       -1912.579
  -8447068.088 9  -6569698.62548  20232420.090    20232420.8894   20232426.2644
      -162.534        -126.650
  -4001764.320 9  -3106573.52746  24288699.181    24288699.6424   24288705.9104
      2531.619        1972.690
 -19710237.367 9 -14465953.98947  21845344.557    21845345.5484   21845351.1974
      2934.386        2286.535
 96 10  8 17 23 29.9980000  0 10  1 28 22 21 17  6 26 23  9  3      -0.001657469
 -12278243.814 9  -9553600.06646  23015332.279    23015333.5724   23015340.7844
      4089.185        3186.378
 -14792257.305 9 -11510476.878 9  19944802.805    19944803.916    19944809.068
        51.708          40.292
   1129619.717 9    888903.25546  24086244.854    24086245.2304   24086253.0684
     -1556.231       -1212.648
 -20825336.755 9 -16212401.61548  21014155.335    21014156.3904   21014162.3144
      1973.787        1538.016
  -4547984.252 9  -3536521.18548  20285812.806    20285813.6094   20285819.1164
      -347.446        -270.737
  13994223.265 9  10903393.29146  23117290.769    23117291.8724   23117298.5884
     -3241.751       -2526.040
   4198948.947 9   3278126.82046  23278428.632    23278429.7074   23278435.0264
     -2465.502       -1921.170
  -8442055.828 9  -6565792.96948  20233373.961    20233374.6944   20233380.0694
      -171.395        -133.555
  -4077626.362 8  -3165686.75546  24274263.045    24274263.6594   24274269.9554
      2525.926        1968.254
 -19798066.883 9 -14534392.55747  21828630.685    21828632.1234   21828637.7704
      2920.971        2276.081
 96 10  8 17 23 59.9980000  0 10  1 28 22 21 17  6 26 23  9  3      -0.001666791
 -12400860.303 9  -9649145.33146  22991999.074    22992000.3844   22992007.5234
      4085.507        3183.512
 -14793496.287 9 -11511442.328 9  19944566.907    19944568.144    19944573.323
        31.311          24.398
   1176409.406 9    925362.72346  24095148.370    24095148.9824   24095156.7614
     -1562.591       -1217.603
 -20884398.210 9 -16258423.50448  21002916.340    21002917.3854   21002923.2904
      1964.072        1530.446
  -4537416.765 9  -3528286.78948  20287823.804    20287824.5574   20287830.0594
      -356.735        -277.975
  14091555.436 9  10979236.48646  23135813.026    23135813.6614   23135820.3264
     -3246.796       -2529.971
   4273076.919 9   3335888.82946  23292534.791    23292535.7314   23292541.1424
     -2475.866       -1929.246
  -8436767.725 9  -6561672.36648  20234380.209    20234380.9854   20234386.3594
      -180.747        -140.842
  -4153304.391 8  -3224656.64446  24259861.791    24259862.6554   24259868.8014
      2519.572        1963.303
 -19885485.777 9 -14602511.16047  21811995.498    21811996.7984   21812002.4914
      2907.358        2265.474
 96 10  8 17 24 29.9980000  0 10  1 28 22 21 17  6 26 23  9  3      -0.001676120
 -12523355.216 9  -9744595.87446  22968689.176    22968690.2914   22968697.4004
      4080.996        3179.997
 -14794115.675 9 -11511924.976 9  19944448.977    19944450.265    19944455.464
        10.221           7.964
   1223391.396 9    961972.03246  24104088.788    24104089.3364   24104097.1954
     -1569.173       -1222.732
 -20943158.321 9 -16304210.58248  20991734.702    20991735.6994   20991741.6064
      1953.521        1522.224
  -4526557.895 9  -3519825.34248  20289890.211    20289890.9504   20289896.4454
      -366.985        -285.962
  14189049.117 9  11055205.51846  23154365.286    23154366.2594   23154372.7914
     -3252.561       -2534.463
   4347509.184 9   3393887.95046  23306699.018    23306699.7114   23306705.2134
     -2486.052       -1937.183
  -8431200.798 9  -6557334.50148  20235439.497    20235440.3524   20235445.7234
      -190.237        -148.237
  -4228788.291 8  -3283475.21046  24245497.503    24245498.4454   24245504.6974
      2512.810        1958.034
 -19972479.795 9 -14670298.69047  21795441.110    21795442.3554   21795448.1064
      2892.334        2253.767
 96 10  8 17 24 59.9980000  0 10  1 28 22 21 17  6 26 23  9  3      -0.001685456
 -12645736.421 9  -9839957.80546  22945400.375    22945401.7894   22945408.9954
      4076.659        3176.617
 -14794128.351 9 -11511934.863 9  19944446.539    19944447.837    19944453.035
       -10.381          -8.089
   1270542.940 9    998713.46846  24113061.030    24113062.0084   24113069.8704
     -1575.115       -1227.362
 -21001627.267 9 -16349770.78048  20980608.478    20980609.4494   20980615.2984
      1943.549        1514.454
  -4515418.567 9  -3511145.35548  20292009.953    20292010.7234   20292016.2104
      -376.749        -293.571
  14286694.250 9  11131292.57646  23172946.590    23172947.5824   23172954.0014
     -3258.224       -2538.876
   4422232.342 9   3452113.74047  23320918.486    23320919.1134   23320924.6004
     -2496.502       -1945.326
  -8425376.514 9  -6552796.09548  20236547.846    20236548.7014   20236554.0984
      -199.107        -155.148
  -4304093.467 8  -3342154.54546  24231167.356    24231168.1664   24231174.5364
      2506.416        1953.051
 -20059039.748 9 -14737747.98647  21778969.279    21778970.5064   21778976.3104
      2877.303        2242.054
 96 10  8 17 25 29.9980000  0 10  1 28 22 21 17  6 26 23  9  3      -0.001694773
 -12767968.468 9  -9935203.51046  22922140.438    22922141.6984   22922149.0154
      4071.557        3172.642
 -14793509.612 9 -11511452.739 9  19944564.270    19944565.596    19944570.774
       -31.412         -24.477
   1317878.049 9   1035597.94346  24122068.901    24122069.6304   24122077.4804
     -1581.028       -1231.970
 -21059795.061 9 -16395096.31148  20969539.577    20969540.4894   20969546.3214
      1934.039        1507.043
  -4503960.599 9  -3502217.07948  20294190.280    20294191.0704   20294196.6014
      -387.790        -302.174
  14384529.140 9  11207527.48946  23191563.786    23191564.9434   23191571.3234
     -3264.552       -2543.807
   4497280.519 9   3510592.79247  23335199.480    23335200.3964   23335205.9174
     -2507.210       -1953.670
  -8419274.415 9  -6548041.21748  20237709.016    20237709.8744   20237715.2824
      -208.270        -162.288
  -4379185.934 8  -3400668.13846  24216877.915    24216878.4674   24216884.8214
      2499.183        1947.415
 -20145126.248 9 -14804828.36747  21762587.350    21762588.7454   21762594.5884
      2861.121        2229.445
 96 10  8 17 25 59.9980000  0 10  1 28 22 21 17  6 26 23  9  3      -0.001704071
 -12890041.894 9 -10030325.62346  22898910.682    22898911.8424   22898919.2164
      4066.234        3168.494
 -14792270.734 9 -11510487.391 9  19944800.164    19944801.366    19944806.551
       -51.415         -40.064
   1365372.506 9   1072606.57446  24131107.298    24131107.5854   24131115.5444
     -1585.466       -1235.428
 -21117701.768 9 -16440218.40448  20958520.200    20958521.1904   20958527.0254
      1926.090        1500.849
  -4492175.348 9  -3493033.77948  20296432.974    20296433.7404   20296439.3044
      -398.102        -310.209
  14482540.122 9  11283899.61046  23210214.997    23210215.8874   23210222.2174
     -3269.679       -2547.802
   4572638.168 9   3569312.99947  23349539.808    23349540.5074   23349546.0844
     -2516.920       -1961.236
  -8412905.159 9  -6543078.15848  20238921.039    20238921.8734   20238927.2784
      -216.597        -168.777
  -4454066.671 8  -3459016.75146  24202628.336    24202628.9864   24202635.4674
      2492.634        1942.312
 -20230731.602 9 -14871533.82347  21746297.310    21746298.5664   21746304.4284
      2845.793        2217.501
 96 10  8 17 26 29.9980000  0 10  1 28 22 21 17  6 26 23  9  3      -0.001713352
 -13011938.556 9 -10125309.98346  22875714.710    22875715.6234   22875723.0584
      4060.622        3164.121
 -14790417.016 9 -11509042.945 9  19945152.912    19945154.112    19945159.319
       -71.800         -55.948
   1413010.903 9   1109727.35946  24140173.064    24140172.9804   24140181.0214
     -1590.084       -1239.026
 -21175349.701 9 -16485138.85348  20947550.203    20947551.1474   20947556.9564
      1917.516        1494.168
  -4480071.842 9  -3483602.48448  20298736.120    20298736.9614   20298742.5164
      -408.355        -318.199
  14580713.334 9  11360398.14146  23228897.516    23228897.6924   23228904.0144
     -3274.653       -2551.678
   4648307.323 9   3628275.93547  23363938.609    23363939.8364   23363945.4964
     -2527.285       -1969.313
  -8406278.092 9  -6537914.21248  20240181.981    20240182.9154   20240188.3404
      -224.989        -175.316
  -4528737.363 8  -3517201.63146  24188418.958    24188419.5804   24188425.9894
      2485.872        1937.043
 -20315861.195 9 -14937868.55247  21730097.467    21730098.9004   21730104.7734
      2829.995        2205.191
 96 10  8 17 26 59.9980000  0 10  1 28 22 21 17  6 26 23  9  3      -0.001722613
 -13133651.388 9 -10220151.10346  22852553.655    22852554.3514   22852561.8974
      4054.001        3158.962
 -14787935.089 9 -11507108.989 9  19945625.229    19945626.418    19945631.610
       -93.256         -72.667
   1460805.546 9   1146969.89746  24149268.442    24149268.0484   24149276.1354
     -1595.790       -1243.473
 -21232728.644 9 -16529849.69348  20936631.377    20936632.2884   20936638.0994
      1908.233        1486.935
  -4467648.245 9  -3473921.76948  20301100.237    20301101.1164   20301106.6634
      -419.526        -326.903
  14679044.697 9  11437019.92046  23247609.187    23247609.6224   23247615.9414
     -3280.209       -2556.007
   4724308.288 9   3687497.41747  23378400.814    23378402.3114   23378408.0284
     -2538.923       -1978.382
  -8399369.932 9  -6532531.23048  20241496.586    20241497.4904   20241502.9184
      -235.083        -183.181
  -4603184.571 8  -3575212.39946  24174252.099    24174252.8764   24174259.0774
      2477.751        1930.715
 -20400509.856 9 -15003828.54347  21713989.487    21713990.7774   21713996.6354
      2813.744        2192.528
 96 10  8 17 27 29.9980000  0 10  1 28 22 21 17  6 26 23  9  3      -0.001731874
 -13255195.185 9 -10314860.50146  22829424.657    22829425.3234   22829432.8614
      4048.997        3155.062
 -14784838.451 9 -11504696.033 9  19946214.491    19946215.678    19946220.859
      -113.177         -88.190
   1508736.233 9   1184318.44046  24158389.046    24158388.9894   24158397.1784
     -1599.632       -1246.466
 -21289856.931 9 -16574365.22348  20925760.094    20925761.0984   20925766.9274
      1900.171        1480.653
  -4454909.553 9  -3463995.52148  20303524.461    20303525.2404   20303530.7644
      -429.644        -334.788
  14777503.522 9  11513741.00746  23266345.194    23266345.7744   23266352.1494
     -3283.622       -2558.666
   4800617.291 9   3746958.93846  23392921.809    23392923.4524   23392929.1494
     -2548.275       -1985.669
  -8392191.941 9  -6526937.98848  20242862.564    20242863.4034   20242868.8234
      -243.423        -189.680
  -4677423.849 8  -3633061.14146  24160124.366    24160125.5724   24160131.7694
      2471.427        1925.787
 -20484704.523 9 -15069434.76347  21697967.787    21697969.0874   21697974.8854
      2799.304        2181.276
 96 10  8 17 27 59.9980000  0 10  1 28 22 21 17  6 26 23  9  3      -0.001741136
 -13376567.393 9 -10409436.19746  22806328.210    22806328.8554   22806336.4784
      4042.548        3150.037
 -14781125.051 9 -11501802.481 9  19946921.114    19946922.320    19946927.494
      -134.330        -104.673
   1556801.543 9   1221771.89146  24167535.507    24167535.5654   24167543.7414
     -1604.734       -1250.442
 -21346712.005 9 -16618667.86048  20914940.870    20914941.9174   20914947.7444
      1890.108        1472.811
  -4441850.514 9  -3453819.65048  20306009.460    20306010.3174   20306015.8364
      -440.914        -343.569
  14876081.925 9  11590555.26746  23285103.754    23285104.6744   23285111.0904
     -3288.247       -2562.270
   4877233.143 9   3806659.56547  23407501.499    23407502.9964   23407508.6734
     -2559.380       -1994.322
  -8384745.204 9  -6521135.33448  20244279.663    20244280.4744   20244285.9254
      -253.060        -197.190
  -4751446.042 8  -3690740.71246  24146038.406    24146039.6294   24146045.9654
      2463.361        1919.502
 -20568449.288 9 -15134690.42047  21682031.639    21682033.0134   21682038.7434
      2783.701        2169.118
 96 10  8 17 28 29.9980000  0 10  1 28 22 21 17  6 26 23  9  3      -0.001750392
 -13497766.188 9 -10503876.77047  22783265.117    22783265.4554   22783273.0554
      4037.486        3146.093
 -14776787.312 9 -11498422.436 9  19947746.605    19947747.784    19947752.939
      -154.865        -120.674
   1605011.540 9   1259338.09646  24176709.933    24176709.6684   24176717.9594
     -1609.371       -1254.055
 -21403274.282 9 -16662742.34248  20904177.378    20904178.4424   20904184.2734
      1880.853        1465.600
  -4428463.590 9  -3443388.28948  20308556.903    20308557.7904   20308563.3144
      -451.682        -351.960
  14974788.181 9  11667469.17146  23303887.056    23303887.9134   23303894.3074
     -3292.203       -2565.353
   4954170.841 9   3866610.98247  23422142.133    23422143.8194   23422149.4854
     -2569.748       -2002.401
  -8377014.408 9  -6515111.33948  20245750.747    20245751.6034   20245757.0414
      -262.406        -204.472
  -4825231.950 8  -3748236.14746  24131996.924    24131998.3164   24132004.9434
      2455.787        1913.600
 -20651732.974 9 -15199586.78847  21666183.437    21666184.6504   21666190.3664
      2768.559        2157.319
 96 10  8 17 28 59.9980000  0 10  1 28 22 21 17  6 26 23  9  3      -0.001759651
 -13618817.023 9 -10598202.04247  22760230.040    22760230.1434   22760237.7734
      4033.034        3142.624
 -14771832.703 9 -11494561.713 9  19948689.441    19948690.604    19948695.780
      -174.906        -136.290
   1653368.291 9   1297018.65445  24185911.475    24185911.6514   24185920.0154
     -1613.882       -1257.570
 -21459564.216 9 -16706604.60748  20893465.764    20893466.7974   20893472.6514
      1872.284        1458.923
  -4414744.098 9  -3432697.77748  20311167.714    20311168.5494   20311174.0944
      -462.403        -360.314
  15073617.518 9  11744478.96546  23322693.825    23322694.5764   23322701.0984
     -3295.970       -2568.288
   5031423.662 9   3926807.94347  23436842.937    23436844.6064   23436850.2574
     -2579.869       -2010.288
  -8368997.623 9  -6508864.49348  20247276.248    20247277.1294   20247282.5624
      -271.381        -211.466
  -4898785.029 8  -3805550.20446  24118000.154    24118001.6174   24118008.2554
      2448.356        1907.810
 -20734567.204 9 -15264132.92747  21650420.536    21650421.8074   21650427.5124
      2754.221        2146.146
 96 10  8 17 29 29.9980000  0 10  1 28 22 21 17  6 26 23  9  3      -0.001768900
 -13739703.966 9 -10692399.60947  22737225.514    22737226.0564   22737233.7164
      4026.811        3137.775
 -14766255.235 9 -11490215.644 9  19949750.780    19949751.976    19949757.165
      -196.242        -152.916
   1701889.872 8   1334827.64046  24195144.289    24195144.9244   24195153.3824
     -1620.258       -1262.539
 -21515566.387 9 -16750242.64948  20882808.985    20882809.9364   20882815.8044
      1861.944        1450.865
  -4400675.662 9  -3421735.37148  20313844.850    20313845.6964   20313851.2584
      -474.596        -369.815
  15172590.443 9  11821600.63646  23341528.133    23341528.5784   23341535.0334
     -3301.629       -2572.698
   5108999.252 9   3987256.40746  23451605.084    23451606.8384   23451612.4414
     -2591.081       -2019.024
  -8360695.578 9  -6502395.36548  20248856.034    20248856.9454   20248862.3854
      -281.388        -219.263
  -4972086.902 8  -3862668.49346  24104050.874    24104052.5994   24104059.3704
      2439.157        1900.642
 -20816945.454 9 -15328323.76848  21634744.638    21634745.7844   21634751.4394
      2738.347        2133.777
 96 10  8 17 29 59.9980000  0 10  1 28 22 21 17  6 26 23  9  3      -0.001778136
 -13860424.287 9 -10786467.33647  22714252.826    22714253.7804   22714261.3794
      4021.286        3133.470
 -14760055.268 9 -11485384.509 9  19950930.649    19950931.792    19950937.009
      -217.043        -169.124
   1750591.715 9   1372777.09745  24204411.605    24204412.5304   24204420.9824
     -1626.567       -1267.455
 -21571284.470 9 -16793659.32148  20872206.175    20872207.1294   20872213.0024
      1852.589        1443.576
  -4386270.253 9  -3410510.37948  20316586.025    20316586.9934   20316592.5254
      -485.590        -378.382
  15271717.590 9  11898842.49846  23360391.202    23360391.8944   23360398.3304
     -3306.742       -2576.682
   5186895.376 9   4047954.63647  23466428.267    23466430.0464   23466435.6324
     -2601.726       -2027.319
  -8352104.112 9  -6495700.71548  20250490.971    20250491.8484   20250497.3064
      -291.293        -226.982
  -5045129.106 8  -3919584.41146  24090151.441    24090153.1854   24090159.8054
      2430.460        1893.865
 -20898863.253 9 -15392155.81147  21619156.148    21619157.3304   21619162.9704
      2722.773        2121.641
 96 10  8 17 30 29.9980000  0 10  1 28 22 21 17  6 26 23  9  3      -0.001787360
 -13980984.941 9 -10880410.64947  22691311.015    22691311.8654   22691319.3754
      4015.743        3129.150
 -14753237.558 9 -11480072.018 9  19952228.001    19952229.164    19952234.393
      -237.791        -185.292
   1799481.539 8   1410873.03645  24213714.381    24213715.9634   24213724.4524
     -1633.005       -1272.471
 -21626722.712 9 -16836857.93148  20861656.620    20861657.5654   20861663.4424
      1842.985        1436.092
  -4371548.048 9  -3399038.53548  20319387.497    20319388.5334   20319394.0564
      -496.158        -386.617
  15370992.354 9  11976199.39546  23379282.769    23379283.4044   23379289.7374
     -3311.804       -2580.626
   5265090.679 9   4108885.99947  23481308.727    23481310.1694   23481315.7324
     -2611.598       -2035.011
  -8343226.052 9  -6488782.74148  20252180.385    20252181.2684   20252186.7044
      -300.693        -234.306
  -5117927.594 8  -3976310.49745  24076298.401    24076300.0524   24076306.7214
      2422.524        1887.681
 -20980319.484 9 -15455628.18947  21603655.383    21603656.6994   21603662.3614
      2707.326        2109.605
 96 10  8 17 30 59.9980000  0 10  1 28 22 21 17  6 26 23  9  3      -0.001796578
 -14101381.854 9 -10974226.36447  22668400.057    22668401.0514   22668408.5564
      4010.300        3124.909
 -14745806.109 9 -11474281.287 9  19953642.269    19953643.359    19953648.562
      -257.895        -200.957
   1848554.335 8   1449111.54545  24223052.863    24223054.2584   24223062.7254
     -1638.521       -1276.770
 -21681879.532 9 -16879837.25148  20851160.587    20851161.5694   20851167.4314
      1833.794        1428.930
  -4356525.138 9  -3387332.37348  20322246.305    20322247.2714   20322252.7954
      -505.558        -393.941
  15470405.558 9  12053664.14546  23398200.041    23398201.0704   23398207.4944
     -3316.040       -2583.927
   5343572.350 9   4170040.50846  23496243.493    23496244.7884   23496250.3184
     -2620.629       -2042.049
  -8334084.044 9  -6481659.09548  20253920.076    20253920.9424   20253926.3684
      -309.028        -240.801
  -5190493.766 8  -4032855.46646  24062489.275    24062490.9204   24062497.5434
      2415.067        1881.870
 -21061317.036 9 -15518743.15947  21588242.030    21588243.3534   21588249.0274
      2692.045        2097.697
 96 10  8 17 31 29.9980000  0 10  1 28 22 21 17  6 26 23  9  3      -0.001805780
 -14221586.951 9 -11067892.61447  22645525.638    22645526.8204   22645534.2294
      4003.343        3119.488
 -14737755.703 9 -11468008.253 9  19955174.068    19955175.300    19955180.531
      -278.909        -217.332
   1897792.615 8   1487479.01045  24232423.004    24232423.9334   24232432.4394
     -1643.989       -1281.030
 -21736744.169 9 -16922588.89648  20840720.188    20840721.1524   20840727.0344
      1823.828        1421.165
  -4341204.691 9  -3375394.36848  20325161.634    20325162.6174   20325168.1494
      -515.895        -401.996
  15569958.342 9  12131237.66846  23417143.590    23417145.4484   23417151.7724
     -3320.793       -2587.631
   5422331.098 9   4231410.91047  23511230.904    23511232.1254   23511237.6914
     -2630.044       -2049.385
  -8324683.504 9  -6474333.99748  20255708.915    20255709.8174   20255715.2604
      -317.805        -247.640
  -5262827.946 8  -4089219.69546  24048724.678    24048726.2724   24048732.8144
      2407.162        1875.711
 -21141824.122 9 -15581475.94147  21572922.085    21572923.3304   21572928.9994
      2675.013        2084.426
 96 10  8 17 31 59.9980000  0 10  1 28 22 21 17  6 26 23  9  3      -0.001814970
 -14341594.386 9 -11161404.84647  22622688.860    22622690.1294   22622697.5604
      3996.447        3114.115
 -14729082.605 9 -11461250.008 9  19956824.500    19956825.764    19956830.992
      -299.987        -233.756
   1947178.157 8   1525961.21745  24241821.517    24241821.7814   24241830.2504
     -1648.937       -1284.886
 -21791319.963 9 -16965115.47348  20830334.708    20830335.6874   20830341.5904
      1813.732        1413.298
  -4325578.907 9  -3363218.43548  20328135.129    20328136.1174   20328141.6864
      -526.657        -410.382
  15669634.393 9  12208907.23846  23436111.333    23436113.1524   23436119.3874
     -3324.933       -2590.857
   5501364.402 9   4292995.26647  23526270.331    23526271.6794   23526277.3164
     -2639.542       -2056.786
  -8315028.877 9  -6466810.91048  20257546.117    20257547.0434   20257552.4514
      -326.460        -254.384
  -5334934.341 8  -4145406.43645  24035003.103    24035004.7204   24035011.4474
      2399.358        1869.630
 -21221826.093 9 -15643815.12847  21557697.941    21557699.4014   21557705.1144
      2657.722        2070.952
 96 10  8 17 32 29.9980000  0 10  1 28 22 21 17  6 26 23  9  3      -0.001824142
 -14461391.867 9 -11254753.47547  22599892.354    22599893.4374   22599900.7624
      3989.622        3108.796
 -14719780.689 9 -11454001.773 9  19958594.648    19958595.862    19958601.073
      -320.541        -249.772
   1996693.211 8   1564544.35245  24251244.002    24251244.3184   24251252.4354
     -1652.478       -1287.645
 -21845590.281 9 -17007404.01648  20820007.441    20820008.3744   20820014.2794
      1804.103        1405.794
  -4309623.112 9  -3350785.35248  20331171.429    20331172.4174   20331177.9834
      -537.551        -418.871
  15769425.892 9  12286666.76346  23455101.482    23455102.9294   23455109.2044
     -3328.257       -2593.447
   5580681.554 9   4354800.78046  23541364.100    23541365.2884   23541370.9054
     -2648.723       -2063.940
  -8305127.900 9  -6459095.86148  20259430.226    20259431.1124   20259436.5364
      -334.094        -260.333
  -5406816.294 8  -4201418.29745  24021324.503    24021326.0084   24021332.8244
      2392.283        1864.117
 -21301313.848 9 -15705753.62748  21542571.952    21542573.3804   21542579.0904
      2641.189        2058.069
 96 10  8 17 32 59.9980000  0 10  1 28 22 21 17  6 26 23  9  3      -0.001833262
 -14580974.793 9 -11347934.91847  22577136.494    22577137.5514   22577144.8354
      3982.611        3103.333
 -14709853.169 9 -11446266.055 9  19960483.786    19960484.973    19960490.220
      -341.163        -265.841
   2046322.417 8   1603216.41045  24260687.880    24260688.5244   24260696.5854
     -1656.113       -1290.478
 -21899578.072 9 -17049472.40548  20809733.920    20809734.8434   20809740.7154
      1795.187        1398.847
  -4293324.609 9  -3338085.22448  20334273.016    20334273.9254   20334279.4784
      -548.966        -427.766
  15869331.261 8  12364515.03146  23474112.593    23474114.2704   23474120.5764
     -3331.887       -2596.276
   5660289.707 9   4416833.05946  23556512.866    23556514.1574   23556519.9014
     -2658.258       -2071.370
  -8294985.835 9  -6451192.95348  20261360.150    20261361.0484   20261366.5144
      -341.992        -266.487
  -5478470.497 8  -4257252.69845  24007689.067    24007690.7464   24007697.2974
      2384.764        1858.258
 -21380295.276 9 -15767297.59148  21527542.307    21527543.7134   21527549.4494
      2624.358        2044.954
 96 10  8 17 33 29.9980000  0 10  1 28 22 21 17  6 26 23  9  3      -0.001842402
 -14700343.308 9 -11440949.29847  22554421.291    22554422.4504   22554429.6974
      3975.463        3097.763
 -14699304.102 9 -11438046.013 9  19962491.230    19962492.402    19962497.653
      -361.967        -282.052
   2096066.648 8   1641978.10745  24270154.262    24270154.6124   24270162.5814
     -1660.192       -1293.656
 -21953301.271 9 -17091334.62848  20799510.589    20799511.6454   20799517.5194
      1786.485        1392.066
  -4276670.272 9  -3325107.82148  20337442.275    20337443.1604   20337448.7374
      -561.151        -437.261
  15969346.130 9  12442448.59746  23493145.278    23493146.4254   23493152.9194
     -3335.573       -2599.148
   5740183.377 9   4479087.82146  23571715.857    23571717.3564   23571723.2024
     -2667.845       -2078.840
  -8284604.468 9  -6443103.57648  20263335.720    20263336.5834   20263342.0214
      -350.007        -272.733
  -5549889.134 8  -4312903.55446  23994098.685    23994100.1704   23994106.6314
      2376.498        1851.817
 -21458774.883 9 -15828450.51848  21512608.024    21512609.5534   21512615.3104
      2607.935        2032.157
 96 10  8 17 33 59.9980000  0 10  1 28 22 21 17  6 26 23  9  3      -0.001851534
 -14819506.543 9 -11533803.70947  22531745.158    22531746.4734   22531753.5854
      3968.105        3092.030
 -14688135.858 9 -11429343.493 9  19964616.373    19964617.653    19964622.905
      -383.121        -298.536
   2145937.783 8   1680838.70645  24279644.601    24279644.8864   24279652.6934
     -1665.204       -1297.562
 -22006767.301 9 -17132996.44948  20789336.378    20789337.3654   20789343.2414
      1777.350        1384.948
  -4259656.111 9  -3311850.03848  20340679.994    20340680.8474   20340686.4164
      -573.591        -446.954
  16069468.773 9  12520466.15245  23512198.078    23512199.0714   23512205.7604
     -3339.969       -2602.573
   5820367.970 9   4541569.28246  23586974.786    23586975.9364   23586981.9114
     -2678.347       -2087.024
  -8273980.663 9  -6434825.28948  20265357.314    20265358.2404   20265363.6484
      -358.860        -279.631
  -5621063.815 8  -4368364.29045  23980554.213    23980555.9354   23980562.4624
      2367.786        1845.028
 -21536771.775 9 -15889227.30248  21497765.700    21497767.2404   21497773.0104
      2591.164        2019.089
 96 10  8 17 34 29.9980000  0 10  1 28 22 21 17  6 26 23  9  3      -0.001860649
 -14938453.235 9 -11626489.38747  22509110.534    22509111.6854   22509118.6704
      3960.812        3086.347
 -14676347.576 9 -11420157.826 9  19966859.582    19966860.894    19966866.124
      -403.606        -314.498
   2195954.144 9   1719812.44245  24289162.095    24289162.7464   24289170.4084
     -1670.155       -1301.419
 -22059982.327 9 -17174462.68548  20779209.808    20779210.8464   20779216.7354
      1769.557        1378.876
  -4242293.454 9  -3298320.69548  20343983.986    20343984.8584   20343990.4254
      -584.629        -455.555
  16169714.398 9  12598579.55945  23531274.413    23531275.2654   23531281.8474
     -3343.987       -2605.704
   5900853.003 9   4604284.84546  23602290.400    23602291.7184   23602297.7874
     -2688.097       -2094.621
  -8263097.982 9  -6426345.27548  20267428.252    20267429.1714   20267434.5824
      -367.533        -286.389
  -5691986.525 8  -4423628.70946  23967058.119    23967059.6054   23967066.3624
      2359.440        1838.525
 -21614277.192 9 -15949621.12248  21483016.880    21483018.4054   21483024.2364
      2574.984        2006.481
 96 10  8 17 34 59.9980000  0 10  1 28 22 21 17  6 26 23  9  3      -0.001869707
 -15057175.523 9 -11719000.21347  22486518.686    22486519.5624   22486526.4994
      3953.363        3080.543
 -14663937.294 9 -11410487.488 9  19969221.271    19969222.506    19969227.713
      -424.371        -330.679
   2246139.436 9   1758917.83046  24298711.888    24298712.6924   24298720.3654
     -1676.028       -1305.996
 -22112958.615 9 -17215742.89148  20769128.783    20769129.7744   20769135.6574
      1761.383        1372.506
  -4224598.036 9  -3284532.06248  20347351.277    20347352.1834   20347357.7534
      -595.677        -464.164
  16270090.562 9  12676794.65245  23550375.242    23550376.3434   23550382.8564
     -3348.247       -2609.024
   5981636.638 9   4667233.08846  23617662.815    23617664.2794   23617670.3894
     -2697.963       -2102.309
  -8251945.527 9  -6417655.05248  20269550.487    20269551.3954   20269556.8214
      -376.547        -293.413
  -5762641.191 8  -4478684.26846  23953613.079    23953614.3484   23953621.1284
      2350.343        1831.436
 -21691282.069 9 -16009624.90748  21468363.375    21468364.8224   21468370.6804
      2558.019        1993.262
 96 10  8 17 35 29.9980000  0 10  1 28 22 21 17  6 26 23  9  3      -0.001878765
 -15175670.306 9 -11811333.76147  22463969.598    22463970.7304   22463977.6224
      3945.872        3074.705
 -14650904.258 9 -11400331.888 9  19971701.374    19971702.625    19971707.827
      -445.058        -346.798
   2296493.839 8   1798154.98546  24308294.208    24308294.8214   24308302.6404
     -1681.440       -1310.213
 -22165675.810 9 -17256821.21048  20759096.932    20759097.9934   20759103.9144
      1752.393        1365.501
  -4206573.221 9  -3270486.75548  20350781.310    20350782.2304   20350787.7754
      -606.489        -472.589
  16370590.607 8  12755106.29845  23569500.268    23569500.9194   23569507.4834
     -3352.300       -2612.182
   6062712.545 9   4730409.07246  23633091.320    23633092.5414   23633098.7314
     -2707.647       -2109.855
  -8240518.961 9  -6408751.23948  20271724.950    20271725.8184   20271731.2264
      -385.812        -300.633
  -5833023.418 8  -4533527.53546  23940219.466    23940221.1354   23940227.8984
      2341.299        1824.389
 -21767775.628 9 -16069230.26848  21453807.118    21453808.5754   21453814.4164
      2541.031        1980.024
 96 10  8 17 35 59.9980000  0 10  1 28 22 21 17  6 26 23  9  3      -0.001887797
 -15293944.391 9 -11903495.33447  22441462.782    22441463.8844   22441470.7424
      3939.327        3069.605
 -14637246.318 9 -11389689.349 9  19974300.337    19974301.629    19974306.829
      -465.202        -362.495
   2347010.984 8   1837518.95246  24317907.590    24317907.8174   24317915.7624
     -1686.057       -1313.811
 -22218106.172 9 -17297676.02148  20749119.790    20749120.8254   20749126.7174
      1743.248        1358.375
  -4188228.635 9  -3256192.27548  20354272.198    20354273.0794   20354278.6314
      -616.249        -480.194
  16471220.163 8  12833518.84845  23588649.615    23588650.2414   23588656.7854
     -3356.074       -2615.122
   6144088.145 9   4793818.56046  23648576.779    23648577.8214   23648584.0284
     -2716.928       -2117.087
  -8228804.538 9  -6399623.11648  20273954.045    20273954.9584   20273960.3544
      -394.777        -307.618
  -5903131.951 8  -4588157.52446  23926878.375    23926880.0384   23926886.6994
      2332.895        1817.840
 -21843752.424 9 -16128432.96048  21439349.174    21439350.6644   21439356.4964
      2524.258        1966.954
 96 10  8 17 36 29.9980000  0 10  1 28 22 21 17  6 26 23  9  3      -0.001896808
 -15412007.169 9 -11995492.25147  22418996.221    22418997.2094   22419004.0724
      3932.281        3064.115
 -14622969.932 9 -11378564.904 9  19977017.104    19977018.344    19977023.550
      -485.762        -378.516
   2397679.539 9   1877000.91845  24327549.468    24327549.7874   24327557.9314
     -1690.902       -1317.586
 -22270244.806 9 -17338303.51448  20739198.180    20739199.1294   20739205.0454
      1733.344        1350.658
  -4169574.373 9  -3241656.48848  20357821.980    20357822.8564   20357828.4264
      -626.665        -488.310
  16571978.111 8  12912031.44245  23607823.097    23607823.8744   23607830.6004
     -3360.262       -2618.386
   6225739.474 9   4857442.91846  23664114.091    23664115.5804   23664121.7774
     -2725.504       -2123.769
  -8216810.837 9  -6390277.37348  20276236.368    20276237.2944   20276242.6564
      -403.781        -314.635
  -5972967.526 8  -4642574.81046  23913589.006    23913590.7604   23913597.2654
      2323.666        1810.649
 -21919210.635 9 -16187231.55448  21424990.206    21424991.4824   21424997.3024
      2507.142        1953.617
 96 10  8 17 36 59.9980000  0 10  1 28 22 21 17  6 26 23  9  3      -0.001905816
 -15529874.345 9 -12087336.75747  22396566.838    22396567.8154   22396574.6924
      3925.848        3059.102
 -14608088.289 9 -11366968.829 9  19979849.006    19979850.239    19979855.444
      -506.076        -394.345
   2448469.612 8   1916577.57245  24337214.876    24337214.8094   24337223.1314
     -1694.774       -1320.603
 -22322087.917 9 -17378700.72348  20729332.796    20729333.7004   20729339.6304
      1723.069        1342.651
  -4150611.922 9  -3226880.55548  20361430.311    20361431.2704   20361436.8324
      -637.405        -496.679
  16672845.849 8  12990629.58045  23627017.827    23627018.4724   23627025.1954
     -3363.971       -2621.276
   6307628.818 9   4921252.74546  23679696.783    23679698.5834   23679704.7924
     -2733.597       -2130.075
  -8204575.059 9  -6380743.00648  20278564.756    20278565.6834   20278571.0624
      -411.736        -320.833
  -6042534.695 8  -4696782.98846  23900350.834    23900352.4784   23900359.2164
      2314.530        1803.530
 -21994173.773 9 -16245644.37948  21410725.173    21410726.4724   21410732.3054
      2490.636        1940.755
 96 10  8 17 37 29.9980000  0 10  1 28 22 21 17  6 26 23  9  3      -0.001914816
 -15647537.060 9 -12179021.93447  22374176.322    22374177.3074   22374184.2494
      3918.658        3053.500
 -14592583.196 9 -11354886.945 9  19982799.509    19982800.769    19982805.989
      -527.330        -410.906
   2499378.257 8   1956246.61145  24346901.840    24346902.3624   24346910.8154
     -1699.052       -1323.937
 -22373606.729 9 -17418845.23348  20719529.075    20719529.9874   20719535.9454
      1711.883        1333.935
  -4131309.059 9  -3211839.36548  20365103.585    20365104.4734   20365110.0674
      -649.153        -505.834
  16773841.088 8  13069327.08145  23646236.586    23646237.3884   23646243.9764
     -3368.833       -2625.065
   6389778.745 9   4985265.62246  23695329.279    23695331.2084   23695337.4194
     -2742.854       -2137.289
  -8192080.537 9  -6371007.01848  20280942.309    20280943.2984   20280948.6734
      -420.954        -328.016
  -6111808.125 8  -4750762.23845  23887168.375    23887169.9114   23887177.0544
      2303.904        1795.250
 -22068629.409 9 -16303661.75548  21396556.719    21396558.0444   21396563.8284
      2473.327        1927.268
 96 10  8 17 37 59.9980000  0 10  1 28 22 21 17  6 26 23  9  3      -0.001923807
 -15765001.288 9 -12270552.43947  22351823.629    22351824.5464   22351831.5284
      3912.070        3048.366
 -14576459.250 9 -11342322.840 9  19985867.810    19985869.087    19985874.283
      -547.646        -426.737
   2550404.973 8   1996007.65445  24356611.320    24356612.3554   24356620.9164
     -1702.798       -1326.856
 -22424821.628 9 -17458752.93748  20709783.320    20709784.1454   20709790.0754
      1702.528        1326.645
  -4111672.782 9  -3196538.37348  20368840.277    20368841.1734   20368846.7434
      -660.030        -514.309
  16874964.686 8  13148124.58245  23665479.985    23665480.4974   23665487.3694
     -3372.667       -2628.052
   6472190.268 9   5049482.33246  23711011.714    23711013.5994   23711019.7324
     -2751.240       -2143.823
  -8179333.656 9  -6361074.38248  20283368.086    20283368.9394   20283374.3654
      -428.844        -334.164
  -6180783.666 8  -4804509.41445  23874042.914    23874044.3604   23874051.3174
      2294.312        1787.776
 -22142584.907 9 -16361289.40648  21382483.289    21382484.7464   21382490.5544
      2456.868        1914.443
 96 10  8 17 38 29.9980000  0 10  1 28 22 21 17  6 26 23  9  3      -0.001932790
 -15882247.877 9 -12361913.36147  22329512.249    22329513.1744   22329520.1934
      3904.598        3042.544
 -14559713.468 9 -11329274.184 9  19989054.451    19989055.707    19989060.904
      -568.383        -442.896
   2601554.325 8   2035864.26445  24366344.932    24366345.6484   24366354.3034
     -1706.664       -1329.868
 -22475753.834 9 -17498440.35048  20700091.117    20700092.0684   20700097.9624
      1693.291        1319.447
  -4091689.374 9  -3180966.88748  20372642.958    20372643.9084   20372649.4704
      -671.770        -523.457
  16976201.733 8  13227010.49245  23684744.699    23684745.4554   23684752.1304
     -3375.992       -2630.643
   6554861.671 9   5113901.55446  23726743.378    23726745.5874   23726751.6064
     -2759.941       -2150.603
  -8166345.098 9  -6350953.42848  20285839.710    20285840.6044   20285846.0334
      -436.809        -340.371
  -6249454.731 8  -4858019.28845  23860974.913    23860976.5924   23860983.4974
      2284.092        1779.812
 -22216041.622 9 -16418528.39448  21368504.940    21368506.3514   21368512.1714
      2440.490        1901.681
 96 10  8 17 38 59.9980000  0 10  1 28 22 21 17  6 26 23  9  3      -0.001941771
 -15999282.217 9 -12453108.89847  22307241.418    22307242.2274   22307249.2604
      3897.185        3036.767
 -14542357.509 9 -11315750.070 9  19992357.180    19992358.419    19992363.648
      -589.264        -459.167
   2652811.095 8   2075804.55345  24376098.713    24376099.4414   24376108.0904
     -1710.814       -1333.102
 -22526423.089 9 -17537922.87248  20690449.019    20690449.9764   20690455.9114
      1684.046        1312.244
  -4071370.025 9  -3165133.62948  20376509.557    20376510.5664   20376516.1274
      -683.499        -532.597
  17077526.463 8  13305964.73445  23704026.587    23704026.8084   23704033.6004
     -3379.412       -2633.308
   6637805.820 9   5178533.30246  23742526.743    23742529.5044   23742535.4364
     -2770.347       -2158.712
  -8153119.564 9  -6340647.81848  20288356.431    20288357.3654   20288362.7594
      -445.658        -347.266
  -6317825.718 8  -4911295.35546  23847964.518    23847965.9994   23847972.9144
      2273.411        1771.489
 -22289016.356 9 -16475391.81748  21354618.187    21354619.7274   21354625.5344
      2423.854        1888.717
 96 10  8 17 39 29.9980000  0 10  1 28 22 21 17  6 26 23  9  3      -0.001950740
 -16116101.216 9 -12544136.63447  22285011.105    22285012.2564   22285019.2884
      3889.984        3031.156
 -14524384.095 9 -11301744.822 9  19995777.417    19995778.642    19995783.874
      -609.466        -474.909
   2704181.023 8   2115833.01345  24385874.671    24385874.9114   24385883.5714
     -1714.561       -1336.022
 -22576826.792 9 -17577198.46748  20680857.430    20680858.4484   20680864.4104
      1675.722        1305.757
  -4050710.422 9  -3149035.24448  20380441.002    20380441.9514   20380447.5294
      -694.333        -541.039
  17178937.440 8  13384986.17345  23723323.485    23723324.6704   23723331.6894
     -3381.733       -2635.117
   6721056.780 9   5243404.14046  23758369.179    23758371.7594   23758377.5714
     -2779.999       -2166.233
  -8139626.702 9  -6330133.89948  20290924.085    20290924.9824   20290930.3534
      -454.273        -353.979
  -6385883.780 8  -4964327.58746  23835013.697    23835015.1544   23835021.7344
      2263.360        1763.657
 -22361490.711 9 -16531865.33748  21340826.791    21340828.3444   21340834.1104
      2407.151        1875.702
 96 10  8 17 39 59.9980000  0 11  1 28 22 21 17  6 26 23  9  3 31   -0.001959686
 -16232676.652 9 -12634974.58447  22262827.414    22262828.5984   22262835.6454
      3882.190        3025.083
 -14505790.278 9 -11287256.145 9  19999315.768    19999316.934    19999322.172
      -629.606        -490.602
   2755667.969 8   2155952.69345  24395672.279    24395672.6334   24395681.2804
     -1717.328       -1338.178
 -22626964.067 9 -17616266.45948  20671316.661    20671317.6304   20671323.5854
      1667.081        1299.024
  -4029704.646 9  -3132667.10948  20384438.286    20384439.2184   20384444.8274
      -705.575        -549.799
  17280426.782 8  13464068.68545  23742635.947    23742637.5644   23742644.5314
     -3383.591       -2636.564
   6804604.894 9   5308506.50746  23774268.322    23774270.4634   23774276.2884
     -2789.208       -2173.409
  -8125867.634 9  -6319412.54748  20293542.323    20293543.2274   20293548.6224
      -462.402        -360.313
  -6453629.016 8  -5017116.08846  23822122.176    23822123.6084   23822130.2574
      2253.444        1755.930
 -22433443.500 9 -16587932.43648  21327134.857    21327136.1894   21327141.9124
      2390.171        1862.471
  -1180617.94118   -624027.80755  24487840.470    24487842.8985   24487849.4665
      3781.879        2946.919
 96 10  8 17 40 29.9980000  0 11  1 28 22 21 17  6 26 23  9  3 31   -0.001968622
 -16349015.701 9 -12725628.33247  22240688.773    22240689.9294   22240697.0224
      3874.285        3018.923
 -14486592.999 9 -11272297.237 9  20002968.857    20002970.055    20002975.288
      -649.666        -506.233
   2807234.777 8   2196134.58345  24405484.602    24405485.4994   24405494.1274
     -1720.039       -1340.290
 -22676832.516 9 -17655124.97548  20661826.997    20661827.9374   20661833.9294
      1658.064        1291.998
  -4008357.624 9  -3116033.07548  20388500.526    20388501.4334   20388507.0304
      -716.902        -558.625
  17381968.876 8  13543192.28445  23761959.572    23761960.4214   23761967.4254
     -3385.471       -2638.029
   6888420.992 9   5373817.69646  23790218.277    23790220.1914   23790226.0734
     -2797.970       -2180.236
  -8111862.893 9  -6308499.76448  20296207.391    20296208.2364   20296213.6164
      -470.836        -366.885
  -6521073.365 9  -5069670.09446  23809288.251    23809289.5454   23809296.1214
      2243.397        1748.101
 -22504883.144 9 -16643599.68648  21313540.547    21313541.6724   21313547.3714
      2372.811        1848.944
  -1293963.920 8   -712349.34445  24466271.888    24466273.9004   24466280.3764
      3775.054        2941.601
 96 10  8 17 40 59.9980000  0 11  1 28 22 21 17  6 26 23  9  3 31   -0.001977535
 -16465106.658 9 -12816088.76947  22218597.342    22218598.4604   22218605.5864
      3865.268        3011.897
 -14466784.508 9 -11256862.060 9  20006738.217    20006739.485    20006744.742
      -670.797        -522.699
   2858890.817 8   2236386.01245  24415314.614    24415315.3644   24415323.9004
     -1723.797       -1343.218
 -22726422.216 9 -17693766.28748  20652390.378    20652391.3424   20652397.3154
      1647.934        1284.104
  -3986665.411 9  -3099130.05848  20392628.443    20392629.3454   20392634.9134
      -729.321        -568.302
  17483585.050 8  13622373.60945  23781296.609    23781297.3994   23781304.4744
     -3388.766       -2640.597
   6972507.868 9   5439339.89146  23806219.388    23806221.4474   23806227.3644
     -2807.445       -2187.619
  -8097592.947 9  -6297380.32548  20298922.863    20298923.7214   20298929.1094
      -480.304        -374.263
  -6588208.866 8  -5121983.45346  23796513.016    23796513.9764   23796520.5084
      2232.573        1739.667
 -22575777.506 9 -16698842.03948  21300049.799    21300050.9414   21300056.6524
      2353.417        1833.831
  -1407101.758 8   -800508.67745  24444742.921    24444744.5554   24444750.9804
      3767.379        2935.620
 96 10  8 17 41 29.9980000  0 11  1 28 22 21 17  6 26 23  9  3 31   -0.001986415
 -16580931.190 9 -12906341.60247  22196556.473    22196557.6804   22196564.9214
      3855.990        3004.668
 -14446356.625 9 -11240944.245 9  20010625.628    20010626.818    20010632.065
      -691.281        -538.661
   2910651.262 8   2276718.79945  24425164.200    24425165.0624   24425173.4954
     -1727.082       -1345.778
 -22775725.968 9 -17732184.77748  20643008.142    20643009.1044   20643015.1194
      1638.835        1277.014
  -3964606.227 9  -3081941.09548  20396826.146    20396827.0904   20396832.6344
      -741.552        -577.833
  17585285.929 8  13701620.95245  23800649.928    23800650.4884   23800657.6474
     -3391.552       -2642.768
   7056844.593 9   5505056.77146  23822268.718    23822270.2674   23822276.1544
     -2815.050       -2193.545
  -8083060.384 9  -6286056.25148  20301688.286    20301689.1624   20301694.5644
      -488.618        -380.741
  -6655037.134 8  -5174057.40146  23783796.309    23783796.9744   23783803.5394
      2222.581        1731.881
 -22646090.387 9 -16753631.28248  21286669.610    21286670.8434   21286676.5904
      2333.919        1818.638
  -1520024.663 9   -888500.52745  24423255.073    24423256.1824   24423262.5574
      3760.429        2930.204
 96 10  8 17 41 59.9980000  0 11  1 28 22 21 17  6 26 23  9  3 31   -0.001995271
 -16696476.978 9 -12996377.22747  22174568.861    22174569.9884   22174577.2224
      3847.027        2997.683
 -14425319.088 9 -11224551.368 9  20014629.000    20014630.137    20014635.369
      -711.417        -554.351
   2962506.723 8   2317125.61845  24435032.886    24435032.9334   24435041.3434
     -1730.046       -1348.088
 -22824762.029 9 -17770394.67648  20633676.855    20633677.8294   20633683.8444
      1629.988        1270.120
  -3942180.154 9  -3064466.24348  20401093.702    20401094.6474   20401100.1814
      -753.653        -587.262
  17687067.014 8  13780930.78445  23820017.457    23820018.6804   23820026.0474
     -3394.087       -2644.743
   7141395.674 9   5570940.68346  23838358.173    23838359.8564   23838365.7954
     -2821.898       -2198.881
  -8068290.028 9  -6274546.88348  20304499.020    20304499.8734   20304505.2724
      -496.299        -386.726
  -6721572.792 8  -5225903.36845  23771135.122    23771135.7524   23771141.9714
      2212.726        1724.202
 -22715829.771 9 -16807973.65248  21273398.517    21273399.8914   21273405.6104
      2315.205        1804.056
  -1632741.680 9   -976331.96446  24401805.504    24401806.9424   24401813.3144
      3753.766        2925.012
 96 10  8 17 42 29.9980000  0 11  1 28 22 21 17  6 26 23  9  3 31   -0.002004109
 -16811757.666 9 -13086206.28147  22152631.803    22152632.7904   22152639.9684
      3838.316        2990.896
 -14403678.703 9 -11207688.744 9  20018746.953    20018748.161    20018753.411
      -731.266        -569.818
   3014453.827 8   2357603.85945  24444918.146    24444918.0964   24444926.6114
     -1733.140       -1350.499
 -22873543.470 9 -17808406.17448  20624394.023    20624395.0554   20624401.0364
      1622.231        1264.076
  -3919395.981 9  -3046712.35148  20405429.433    20405430.3304   20405435.8984
      -765.174        -596.239
  17788929.981 8  13860304.42345  23839400.863    23839402.6184   23839410.0014
     -3396.565       -2646.674
   7226150.204 9   5636983.11246  23854486.585    23854488.0634   23854494.1734
     -2828.492       -2204.020
  -8053287.033 9  -6262856.23848  20307353.954    20307354.8914   20307360.2394
      -504.003        -392.730
  -6787817.337 8  -5277522.43346  23758529.110    23758529.7924   23758536.0494
      2203.470        1716.990
 -22785010.174 9 -16861880.45648  21260234.108    21260235.3214   21260241.0144
      2296.832        1789.739
  -1745257.498 9  -1064006.63646  24380394.964    24380395.8934   24380402.3214
      3747.217        2919.909
 96 10  8 17 42 59.9970000  0 11  1 28 22 21 17  6 26 23  9  3 31   -0.002012930
 -16926761.730 9 -13175819.79047  22130747.491    22130748.2054   22130755.3544
      3829.131        2983.738
 -14381434.554 9 -11190355.654 9  20022979.859    20022981.088    20022986.353
      -751.484        -585.572
   3066507.181 8   2398164.88545  24454823.419    24454823.5454   24454832.0944
     -1736.555       -1353.160
 -22922081.757 9 -17846228.19248  20615157.458    20615158.5164   20615164.4884
      1613.806        1257.511
  -3896259.751 9  -3028684.12648  20409832.135    20409833.0194   20409838.6074
      -777.099        -605.532
  17890870.489 8  13939738.46845  23858799.219    23858801.2314   23858808.9114
     -3399.284       -2648.793
   7311110.378 9   5703185.79246  23870654.344    23870655.6014   23870661.6964
     -2835.561       -2209.528
  -8038047.230 9  -6250981.06748  20310254.011    20310254.9414   20310260.2934
      -511.603        -398.652
  -6853773.276 9  -5328916.63046  23745977.871    23745978.7054   23745985.0804
      2193.912        1709.542
 -22853628.650 9 -16915349.38948  21247176.367    21247177.6644   21247183.3674
      2278.319        1775.313
  -1857561.837 8  -1151516.50645  24359024.110    24359025.0624   24359031.4924
      3739.994        2914.281
 96 10  8 17 43 29.9970000  0 11  1 28 22 21 17  6 26 23  9  3 31   -0.002021738
 -17041489.742 9 -13265218.18747  22108915.416    22108916.1894   22108923.3104
      3819.392        2976.150
 -14358585.086 9 -11172550.887 9  20027327.990    20027329.195    20027334.463
      -771.906        -601.485
   3118647.731 9   2438793.85145  24464745.470    24464745.7634   24464754.0534
     -1739.286       -1355.288
 -22970364.542 9 -17883851.13048  20605969.543    20605970.5704   20605976.5864
      1604.958        1250.617
  -3872768.606 9  -3010379.35348  20414302.307    20414303.2454   20414308.8344
      -788.881        -614.712
  17992885.188 8  14019230.32845  23878211.882    23878213.9744   23878221.6534
     -3401.759       -2650.721
   7396287.774 9   5769557.72446  23886863.233    23886864.3954   23886870.5404
     -2843.099       -2215.402
  -8022585.765 9  -6238933.17748  20313196.237    20313197.1694   20313202.5464
      -519.274        -404.629
  -6919439.624 9  -5380085.20146  23733481.914    23733482.8634   23733489.2234
      2183.664        1701.556
 -22921708.910 9 -16968398.94048  21234221.066    21234222.3874   21234228.1154
      2260.362        1761.321
  -1969647.135 8  -1238855.69245  24337694.131    24337695.6734   24337702.2534
      3732.140        2908.161
 96 10  8 17 43 59.9970000  0 11  1 28 22 21 17  6 26 23  9  3 31   -0.002030535
 -17155943.062 9 -13354402.54147  22087135.499    22087136.4064   22087143.5404
      3810.965        2969.583
 -14335129.324 9 -11154273.681 9  20031791.539    20031792.678    20031797.957
      -791.849        -617.025
   3170854.001 8   2479474.05545  24474679.787    24474680.3054   24474688.4034
     -1741.180       -1356.764
 -23018374.819 9 -17921261.71648  20596833.522    20596834.5054   20596840.5284
      1595.695        1243.399
  -3848938.732 9  -2991810.62648  20418836.935    20418837.9404   20418843.4964
      -799.659        -623.111
  18094972.449 8  14098778.75045  23897637.996    23897640.5044   23897648.3164
     -3403.983       -2652.454
   7481695.355 8   5836109.00446  23903115.967    23903116.9744   23903123.1054
     -2850.757       -2221.369
  -8006897.020 9  -6226708.18048  20316181.648    20316182.6544   20316188.0084
      -526.768        -410.469
  -6984791.999 8  -5431009.10246  23721045.480    23721046.5734   23721052.9764
      2173.124        1693.343
 -22989264.753 9 -17021039.85248  21221365.640    21221366.9234   21221372.6684
      2243.158        1747.915
  -2081494.224 8  -1326009.25145  24316410.575    24316411.7064   24316418.5134
      3723.952        2901.781
 96 10  8 17 44 29.9970000  0 11  1 28 22 21 17  6 26 23  9  3 31   -0.002039322
 -17270150.927 9 -13443395.62747  22065402.238    22065403.3784   22065410.5124
      3802.612        2963.074
 -14311072.864 9 -11135528.398 9  20036369.325    20036370.457    20036375.764
      -812.069        -632.781
   3223119.663 8   2520200.53045  24484625.660    24484626.0794   24484634.2934
     -1743.511       -1358.580
 -23066108.499 9 -17958456.77148  20587750.081    20587751.0464   20587757.1014
      1586.243        1236.034
  -3824796.227 9  -2972998.29448  20423431.047    20423432.1054   20423437.6784
      -809.985        -631.157
  18197123.848 8  14178377.13645  23917077.238    23917079.3294   23917087.5054
     -3406.155       -2654.147
   7567346.989 8   5902850.46446  23919415.158    23919416.0574   23919422.1074
     -2859.603       -2228.262
  -7990979.120 9  -6214304.62348  20319210.755    20319211.7494   20319217.0624
      -534.613        -416.582
  -7049827.963 9  -5481686.44746  23708669.077    23708670.5054   23708676.9134
      2162.391        1684.980
 -23056293.635 9 -17073270.14148  21208610.539    21208611.7464   21208617.4924
      2225.239        1733.952
  -2193077.288 8  -1412957.09045  24295176.974    24295177.9664   24295184.9864
      3714.557        2894.460
 96 10  8 17 44 59.9970000  0 11  1 28 22 21 17  6 26 23  9  3 31   -0.002048062
 -17384107.552 9 -13532192.95147  22043717.041    22043718.1244   22043725.2464
      3794.551        2956.793
 -14286405.361 9 -11116306.977 9  20041063.343    20041064.507    20041069.846
      -832.249        -648.506
   3275455.585 8   2560981.74045  24494584.223    24494585.2324   24494593.6964
     -1745.340       -1360.005
 -23113540.396 9 -17995416.67948  20578723.960    20578725.0554   20578731.0904
      1576.042        1228.085
  -3800343.391 9  -2953944.14448  20428084.233    20428085.3054   20428090.9094
      -820.141        -639.071
  18299343.335 8  14258028.56645  23936529.719    23936531.1604   23936539.2564
     -3408.292       -2655.812
   7653271.731 8   5969804.75445  23935765.540    23935766.9754   23935773.2194
     -2868.543       -2235.228
  -7974827.896 9  -6201719.25948  20322284.220    20322285.2414   20322290.5354
      -541.897        -422.257
  -7114534.268 8  -5532106.92246  23696356.234    23696357.4704   23696363.8664
      2151.322        1676.355
 -23122776.598 9 -17125075.04048  21195959.200    21195960.4334   21195966.1794
      2207.122        1719.835
  -2304361.572 8  -1499672.11645  24274000.357    24274001.4304   24274008.2234
      3704.462        2886.594
 96 10  8 17 45 29.9970000  0 11  1 28 22 21 17  6 26 23  9  3 31   -0.002056772
 -17497826.787 9 -13620805.29647  22022076.983    22022078.0914   22022085.1484
      3786.325        2950.383
 -14261135.011 9 -11096615.808 9  20045872.006    20045873.301    20045878.663
      -852.791        -664.512
   3327846.592 8   2601805.86345  24504553.469    24504554.8804   24504563.4754
     -1747.904       -1362.003
 -23160669.606 9 -18032140.72748  20569755.652    20569756.6374   20569762.7044
      1565.688        1220.017
  -3775587.217 9  -2934653.62348  20432795.197    20432796.2554   20432801.8964
      -830.583        -647.207
  18401626.452 8  14337729.59645  23955993.401    23955995.1924   23956003.2744
     -3411.035       -2657.949
   7739461.302 8   6036965.38845  23952167.791    23952168.3104   23952174.3984
     -2877.813       -2242.452
  -7958449.998 9  -6188957.26148  20325400.817    20325401.8154   20325407.1394
      -550.337        -428.834
  -7178898.049 8  -5582260.49346  23684108.137    23684109.3584   23684115.8514
      2139.189        1666.901
 -23188715.955 9 -17176456.35348  21183411.329    21183412.5604   21183418.3274
      2188.409        1705.254
  -2415343.587 8  -1586151.60345  24252881.203    24252882.2414   24252889.0524
      3693.997        2878.439
 96 10  8 17 45 59.9970000  0 11  1 28 22 21 17  6 26 23  9  3 31   -0.002065465
 -17611320.006 9 -13709241.52347  22000479.812    22000481.0574   22000488.0544
      3778.902        2944.599
 -14235270.263 9 -11076461.473 9  20050793.963    20050795.246    20050800.577
      -872.345        -679.749
   3380305.229 8   2642682.69745  24514536.681    24514537.4724   24514546.0394
     -1750.252       -1363.833
 -23207512.057 9 -18068641.32348  20560841.831    20560842.8194   20560848.8674
      1556.411        1212.788
  -3750534.857 9  -2915132.31248  20437562.495    20437563.5514   20437569.2194
      -840.504        -654.938
  18503978.541 8  14417484.33845  23975469.958    23975472.0884   23975480.4644
     -3413.170       -2659.613
   7825904.897 8   6104323.96245  23968617.239    23968618.0394   23968624.0604
     -2885.936       -2248.781
  -7941835.326 9  -6176010.76348  20328562.372    20328563.4404   20328568.8164
      -558.040        -434.836
  -7242919.963 9  -5632147.66746  23671924.938    23671926.3614   23671932.8454
      2128.308        1658.422
 -23254110.823 9 -17227413.38348  21170966.813    21170968.2754   21170974.0894
      2170.372        1691.199
  -2526034.164 8  -1672403.99845  24231817.287    24231818.6194   24231825.1954
      3684.560        2871.086
